GFSNW_925_thetae_000.txt.gz
Theta_e
311 312 316 317 318 318 320 325 324 327 318 322 325 331 324 317 321 322 324 323 323 324 323 324 324 324 324 320 320 322 318 321 330 320 319 320 320 321 320 329 324 330 329 322
310 312 315 317 318 318 324 324 328 326 326 332 344 325 323 322 321 321 322 324 324 324 325 325 324 325 322 321 322 323 320 326 329 323 324 321 320 320 318 322 322 322 329 324
310 311 313 317 319 320 321 327 331 322 323 329 327 326 324 324 323 323 323 324 323 324 325 324 325 324 322 321 320 316 319 320 322 325 319 317 318 317 317 317 327 324 324 320
309 310 312 316 317 319 318 328 326 321 336 332 325 324 323 324 323 322 322 322 323 324 325 325 324 324 321 320 316 320 321 324 321 319 317 316 316 316 316 317 318 320 320 318
309 310 312 316 316 315 322 327 326 326 327 326 325 322 324 323 322 323 322 323 323 323 326 322 323 321 319 321 320 320 320 328 322 322 317 316 317 316 316 316 316 317 317 318
309 310 312 316 316 317 324 323 325 326 322 326 328 328 324 323 324 323 321 322 324 326 323 322 321 321 320 319 321 324 322 325 323 326 320 320 325 322 318 317 316 317 320 318
309 310 312 316 316 320 326 325 323 332 333 331 328 325 323 323 323 322 321 321 325 321 319 318 319 321 321 320 320 322 318 321 323 324 321 328 320 317 317 317 316 316 316 317
309 310 312 316 317 319 323 320 327 327 323 330 325 323 322 323 321 323 323 322 321 321 321 327 320 320 316 319 318 321 321 326 319 325 321 319 318 317 317 317 317 316 319 318
309 310 312 314 319 318 322 315 321 325 330 332 322 322 323 328 328 326 322 321 321 321 331 324 322 327 322 322 318 317 318 320 326 320 321 321 320 317 316 316 319 319 317 316
309 310 311 313 317 319 324 320 317 329 331 323 323 325 327 324 326 326 324 324 322 322 323 318 333 327 319 322 323 319 317 319 321 321 320 320 316 316 315 319 321 318 315 314
309 310 311 313 314 319 324 322 316 328 329 323 322 322 325 322 325 330 325 325 327 329 318 323 328 325 325 323 320 319 319 321 318 320 320 320 316 315 319 320 318 316 313 312
310 310 311 313 314 316 321 326 317 323 327 324 323 321 321 321 321 325 325 323 325 327 327 324 327 319 316 324 324 316 321 323 325 321 322 319 316 316 316 315 316 313 312 310
311 311 311 313 314 315 319 324 320 325 332 324 322 322 320 320 321 322 325 327 321 324 323 317 315 315 318 318 324 321 316 316 325 321 318 317 317 316 315 314 313 311 310 309
311 311 311 313 314 315 317 323 321 324 320 312 328 319 320 319 320 321 323 322 322 323 319 313 311 314 320 320 321 325 321 317 318 319 318 317 316 315 314 312 311 311 309 308
312 312 312 313 314 315 318 321 321 321 326 320 326 320 319 319 321 320 321 322 324 324 317 310 315 324 325 324 321 323 317 317 320 321 318 318 316 313 310 311 310 309 308 304
311 312 313 313 314 315 322 322 321 320 323 323 323 320 318 318 320 321 320 321 323 323 322 315 319 320 323 318 319 316 315 314 314 316 316 315 313 311 310 309 307 305 303 302
310 311 313 314 314 317 320 320 317 318 322 320 321 324 316 315 319 321 321 320 322 322 323 323 321 322 319 313 318 315 313 313 313 314 314 313 311 310 309 305 304 302 301 299
311 311 313 313 314 315 318 317 314 318 321 321 320 319 316 314 316 318 314 318 318 320 320 318 318 320 319 320 316 315 314 314 313 311 310 310 309 309 305 303 301 299 298 297
311 311 313 313 313 316 317 315 315 316 319 323 315 315 316 314 311 311 312 313 315 315 316 317 316 316 317 317 315 314 313 312 311 310 309 307 305 303 302 300 298 297 297 296
311 311 310 307 310 313 313 314 318 317 319 317 313 316 317 314 309 309 311 309 314 314 312 308 309 314 313 313 313 313 311 311 310 309 307 305 302 300 298 297 297 297 296 294
307 304 302 304 307 311 311 312 314 311 314 313 312 312 312 310 312 310 309 309 309 313 312 312 311 311 311 311 311 309 308 308 307 306 305 302 298 297 297 298 297 295 294 293
304 304 304 305 303 302 311 310 306 309 315 307 305 309 311 308 310 310 304 308 305 312 307 307 312 312 311 309 308 307 306 305 302 300 298 297 296 296 296 296 295 294 293 292
303 300 299 302 299 305 308 311 308 309 303 301 302 303 302 302 303 302 303 307 309 305 309 309 310 309 308 308 307 305 301 297 297 297 296 295 294 293 292 293 292 292 292 292
298 299 304 304 306 305 304 304 303 300 300 301 300 301 302 299 303 301 307 305 306 308 310 309 309 306 306 306 305 302 298 292 294 294 294 294 294 293 292 292 292 292 292 292
301 301 305 304 300 299 298 296 299 298 300 300 301 301 303 302 303 303 304 305 307 308 310 307 304 303 302 301 301 297 294 292 294 295 294 293 292 292 292 292 292 292 291 290
301 301 303 299 302 300 298 297 298 299 299 301 303 302 305 305 305 305 307 307 308 309 307 306 300 299 298 298 297 297 296 295 295 294 294 294 293 292 292 293 292 292 291 290
299 299 297 299 300 299 299 299 300 300 300 302 303 306 304 302 305 306 306 307 306 303 305 300 299 298 298 298 298 297 295 295 295 295 294 294 294 293 292 291 292 293 294 294

GFSNW_925_thetae_003.txt.gz
Theta_e
311 312 316 317 317 316 318 326 323 325 322 318 321 326 329 317 321 322 323 323 323 323 323 325 325 325 322 320 321 320 317 319 316 320 319 319 319 321 321 316 323 316 314 316
310 311 315 317 318 318 322 323 326 326 329 317 319 328 323 321 321 321 322 323 323 323 325 324 326 324 322 321 320 320 319 319 318 323 322 320 319 319 322 321 311 315 314 317
309 311 313 317 318 318 322 326 320 323 322 325 330 326 324 324 322 322 323 323 323 324 324 323 325 324 323 319 317 316 319 320 316 317 318 316 316 317 317 320 315 317 315 318
309 310 312 317 318 319 321 325 323 317 315 320 325 325 324 324 323 322 322 322 323 324 323 325 325 323 321 320 315 319 319 321 319 317 316 316 316 316 315 316 315 315 315 319
309 310 312 317 316 317 319 328 325 321 319 319 325 322 324 324 323 322 323 322 323 323 320 322 323 322 321 322 319 321 320 319 316 318 319 317 316 315 315 314 315 315 316 318
309 310 312 317 316 315 324 325 325 324 325 322 323 322 324 324 322 321 322 322 321 319 322 320 319 318 318 321 321 320 315 310 312 318 317 315 314 316 319 317 316 316 315 317
309 310 312 317 316 321 326 325 327 319 317 322 324 326 324 323 321 321 323 322 319 320 314 311 310 311 314 319 320 316 311 313 308 309 309 313 319 316 316 317 316 316 318 315
309 310 312 318 317 322 322 322 328 319 316 324 325 324 322 322 322 322 322 320 318 316 319 311 311 309 306 310 321 320 316 307 306 312 311 312 316 317 316 316 317 317 316 314
309 310 312 317 318 322 320 316 325 322 317 321 325 322 321 319 321 318 321 321 321 321 308 307 312 314 314 316 319 313 315 306 309 306 309 307 312 317 315 316 314 316 314 313
309 310 312 315 319 322 323 316 321 328 321 321 324 322 321 322 320 317 321 320 319 318 310 314 314 315 317 317 315 310 307 306 306 311 304 309 314 315 315 314 312 315 312 311
309 310 311 313 316 321 325 320 323 328 319 320 322 323 321 322 320 315 318 315 315 308 311 311 311 311 311 313 316 313 310 309 313 310 310 311 314 315 312 312 315 312 311 310
309 309 310 312 314 318 325 326 324 325 322 322 322 320 319 320 321 319 318 314 322 315 311 311 314 311 312 307 311 315 315 313 313 311 311 310 314 313 314 313 312 311 310 310
310 309 310 311 314 316 323 323 323 326 317 318 320 321 321 321 321 322 319 316 320 320 314 310 312 313 312 313 314 314 314 316 311 312 316 316 315 315 314 312 311 309 309 309
310 310 310 311 313 315 322 323 322 322 312 307 318 320 321 318 321 322 322 320 321 317 309 308 309 308 313 309 311 309 311 316 315 312 315 315 314 313 312 311 310 310 310 309
311 311 311 311 313 315 319 320 321 321 321 310 313 320 319 320 322 322 321 320 318 314 308 307 307 304 310 306 306 309 316 314 311 311 315 314 313 311 310 310 310 310 310 303
311 312 312 312 313 315 322 319 322 320 324 314 312 317 318 319 321 321 321 321 318 317 309 304 310 317 310 310 310 314 315 314 313 313 314 313 311 311 311 309 306 302 301 299
310 311 313 313 314 318 318 317 318 319 322 308 311 309 310 315 319 315 315 318 317 315 310 306 306 310 315 307 314 313 314 312 312 313 312 312 311 310 309 304 302 301 297 296
310 311 313 313 314 316 318 317 315 319 321 311 311 312 309 314 307 308 310 308 311 313 313 310 309 308 303 308 313 314 314 313 311 310 309 309 310 309 304 301 298 296 295 294
310 311 312 313 314 315 316 315 315 317 317 307 307 311 312 309 307 306 305 308 309 309 308 310 310 309 314 313 314 313 312 311 310 309 309 309 305 302 299 297 295 295 294 293
311 312 312 306 311 313 314 315 307 305 305 307 307 308 311 310 303 305 306 302 307 312 308 307 306 310 309 311 311 310 309 309 308 307 305 303 301 298 296 296 296 295 294 293
310 305 302 307 310 312 308 307 307 307 308 309 308 306 309 306 308 307 303 306 305 311 306 309 307 308 307 307 308 307 307 308 307 305 302 299 297 296 295 295 295 295 294 293
306 305 305 306 303 302 309 309 305 308 311 304 308 307 306 304 307 304 302 308 305 310 304 307 307 305 307 307 306 306 304 301 299 297 297 296 295 295 294 293 293 294 293 292
304 302 299 303 299 306 309 310 308 308 302 301 300 303 300 301 301 301 303 308 308 302 307 307 302 307 307 307 299 297 296 295 296 295 294 293 292 292 292 292 292 292 292 292
298 301 304 303 305 304 302 303 302 299 298 299 299 300 302 298 303 301 306 303 302 307 305 301 304 306 305 303 297 295 293 291 292 293 294 293 293 293 292 292 291 292 292 292
299 300 304 303 298 297 297 296 297 297 298 298 299 299 300 301 302 301 302 303 306 305 306 302 299 300 300 297 296 292 290 290 293 294 294 293 293 292 292 292 292 292 290 289
298 298 300 298 300 300 298 297 298 298 297 297 298 301 304 303 302 303 305 305 306 305 301 298 296 297 296 295 294 293 295 294 294 294 294 294 294 293 292 291 291 291 290 289
298 298 295 297 298 298 297 296 298 299 298 301 301 304 302 299 303 304 304 305 302 299 297 295 296 295 295 295 296 296 295 295 295 295 295 294 294 294 291 290 292 293 293 293

GFSNW_925_thetae_006.txt.gz
Theta_e
312 312 316 316 316 314 318 321 318 327 325 309 316 322 326 319 319 320 321 322 323 320 322 325 323 323 322 319 320 317 317 314 313 319 318 318 318 319 317 313 321 312 311 315
311 312 316 317 316 316 319 319 322 328 326 308 307 323 323 320 320 320 321 322 322 322 322 324 324 322 319 316 317 320 317 314 315 320 320 317 319 318 320 314 309 314 311 311
310 311 316 317 317 318 323 320 317 316 317 315 321 324 322 322 320 321 321 321 321 322 323 322 323 323 321 316 315 314 317 318 315 318 318 314 315 315 319 316 312 314 312 314
310 311 315 317 317 318 320 321 316 313 311 313 323 324 322 323 322 321 320 321 322 321 323 324 323 322 320 318 314 317 316 317 316 315 315 315 315 315 314 315 315 315 314 316
309 311 315 317 317 317 320 323 320 316 311 316 321 321 322 322 322 321 322 320 322 320 319 320 322 320 319 319 318 320 315 314 313 316 317 317 315 314 314 313 314 314 317 317
310 311 315 316 316 318 319 321 322 317 315 314 318 317 321 322 321 320 320 320 319 318 321 317 316 317 318 318 319 315 312 307 308 313 312 312 310 314 317 316 315 315 313 315
310 312 316 316 315 317 325 325 321 316 313 315 317 324 322 321 320 322 321 318 317 319 315 310 309 309 315 317 315 311 310 310 303 305 303 307 316 314 315 318 317 315 314 312
310 312 317 317 318 321 324 322 323 314 309 315 322 321 322 320 319 320 321 319 316 312 311 306 309 307 308 310 316 317 310 302 306 304 307 306 312 315 315 314 318 315 314 312
310 312 316 318 321 321 318 322 324 314 314 317 323 320 319 315 316 315 320 319 318 311 302 305 310 308 310 314 319 311 310 302 305 308 302 302 308 315 314 313 313 314 312 311
310 312 314 318 321 323 317 318 324 322 316 318 320 319 319 317 314 313 318 320 317 309 300 307 312 314 313 315 312 309 305 301 305 304 300 306 307 311 313 313 311 313 311 309
309 311 313 316 320 324 321 323 326 323 315 318 321 320 319 318 315 314 316 314 311 306 305 302 310 309 309 310 312 311 309 307 305 303 303 310 309 313 312 310 312 311 309 308
309 310 312 314 317 324 324 322 325 323 316 319 319 320 320 320 316 316 314 312 314 309 309 309 313 309 310 303 311 312 312 309 309 311 311 308 309 311 312 311 311 310 308 307
309 309 310 313 315 323 321 322 324 322 310 313 317 319 319 321 321 318 315 311 317 316 307 306 309 305 308 312 312 311 312 313 310 312 314 312 312 314 312 311 310 308 307 307
310 309 309 312 315 321 321 321 323 318 305 306 314 319 319 320 321 322 319 317 316 310 305 305 308 303 308 305 307 307 308 314 313 310 312 314 314 313 311 310 308 308 308 307
310 310 310 310 314 319 319 319 320 323 314 309 313 316 318 319 321 320 320 317 314 309 306 303 306 298 307 304 302 306 312 312 310 312 311 312 311 310 309 309 309 309 308 298
311 311 311 310 312 319 320 315 319 322 321 310 310 311 313 317 320 320 317 317 314 311 307 304 305 311 306 310 315 312 313 313 311 312 312 312 311 309 309 308 308 303 299 296
311 312 313 312 314 318 316 312 317 320 319 306 311 306 306 313 314 310 311 314 313 312 306 305 306 306 310 307 309 311 311 312 311 312 311 312 310 310 309 302 299 296 295 294
311 312 313 313 316 317 318 314 317 320 316 305 308 307 305 311 305 307 306 305 309 310 310 305 307 305 302 310 311 312 312 312 312 312 310 309 308 305 302 297 296 295 294 293
311 312 312 312 313 312 315 314 315 317 314 306 303 309 311 305 306 302 301 306 306 306 308 307 309 308 314 313 312 312 312 311 310 308 307 308 307 300 298 296 295 294 293 292
311 311 309 307 309 312 313 314 306 305 305 305 305 304 311 308 301 304 304 301 307 312 309 307 307 310 309 307 310 309 309 308 308 306 305 302 300 297 296 296 295 294 293 293
310 306 302 307 311 312 304 305 306 306 308 307 306 304 309 301 307 307 301 306 304 311 305 310 306 308 305 305 306 307 306 307 305 301 299 298 297 296 296 294 293 294 293 292
307 306 306 307 303 303 308 308 305 307 310 303 306 304 306 303 303 305 302 307 305 310 303 308 309 303 305 305 302 300 298 298 297 297 296 295 294 293 292 291 291 291 292 292
305 302 299 305 299 307 314 314 309 307 301 301 300 304 300 301 302 302 303 308 308 302 308 309 304 307 301 298 297 296 296 295 294 294 293 292 291 291 291 291 291 291 291 291
298 302 305 304 303 303 302 303 302 299 298 298 298 300 301 298 303 301 306 303 302 307 306 301 302 304 299 298 296 295 294 293 293 292 292 292 292 292 291 291 291 291 291 291
299 299 303 300 297 297 297 296 297 296 297 298 299 299 300 301 302 301 301 303 304 304 305 301 298 299 298 296 293 291 290 290 292 293 293 293 293 292 292 292 292 291 289 288
297 297 299 298 299 299 298 297 298 297 296 296 297 301 303 302 301 302 304 304 304 303 301 296 297 297 295 294 292 292 294 294 293 293 294 294 294 293 293 292 292 292 291 291
298 297 295 297 297 298 297 296 297 298 297 301 300 300 300 299 301 303 303 303 302 300 297 295 295 295 295 294 295 294 294 294 294 295 293 293 293 293 292 292 293 293 293 293

GFSNW_925_thetae_009.txt.gz
Theta_e
311 312 314 314 313 313 319 314 310 327 319 309 312 318 322 321 318 318 321 321 320 318 321 323 322 322 320 317 319 316 317 313 313 318 316 317 317 318 313 311 318 310 308 314
311 311 315 315 314 315 320 315 321 326 314 309 305 315 324 319 319 319 321 321 321 320 322 322 322 321 318 313 316 318 315 313 315 320 318 315 318 319 315 311 308 316 308 310
311 312 316 316 315 316 321 314 318 314 313 309 311 318 320 321 319 320 320 320 320 320 322 320 322 322 319 314 314 314 315 316 313 317 317 313 314 315 316 313 310 312 311 312
310 312 316 316 315 317 322 316 313 313 312 314 323 320 320 321 321 320 319 320 321 320 323 322 322 321 319 316 315 316 313 314 315 314 314 314 314 314 315 316 314 315 314 313
310 312 316 316 316 319 319 321 315 312 308 312 319 319 322 320 321 320 321 319 321 319 317 319 321 318 316 317 318 318 310 313 311 316 314 314 314 312 311 311 312 314 315 317
310 312 316 316 316 318 316 318 319 313 310 313 316 316 321 321 319 319 319 319 317 317 319 316 315 315 315 316 318 313 308 306 305 307 309 310 306 310 314 314 315 313 315 314
311 315 316 316 317 317 320 323 317 314 311 309 313 320 320 320 319 320 319 317 316 316 310 309 308 308 314 316 314 309 309 305 300 304 302 304 309 310 313 314 316 314 312 311
311 316 316 315 317 317 322 322 318 312 309 313 319 320 320 318 318 319 320 318 314 311 306 308 311 306 308 309 314 312 307 301 306 303 305 305 308 314 316 315 314 313 312 310
312 315 317 318 316 317 318 322 321 312 317 316 319 319 318 313 314 314 319 317 313 308 300 304 306 308 310 314 318 310 306 299 302 304 300 301 305 313 312 311 312 313 310 309
312 315 317 321 321 320 318 322 324 317 314 317 317 317 318 313 313 312 317 319 316 307 299 300 309 312 309 314 312 307 304 299 300 298 298 304 304 311 311 314 309 312 310 309
312 314 316 320 320 318 319 323 325 319 314 318 320 318 317 316 314 314 315 313 310 303 304 301 304 306 308 309 310 311 310 308 303 304 303 309 307 310 313 310 310 311 309 308
310 313 314 318 323 322 323 323 321 320 315 317 319 319 319 319 314 313 311 314 312 308 305 302 306 308 308 303 311 310 310 307 308 308 309 307 307 311 309 309 310 309 308 307
309 311 314 319 324 323 322 324 322 318 308 313 316 318 319 320 318 317 314 309 313 311 304 307 304 304 302 309 310 309 310 309 307 310 311 309 308 310 312 309 310 308 307 306
309 309 312 319 321 320 320 322 318 314 303 307 313 317 317 320 321 320 315 314 311 306 303 303 304 302 306 303 306 306 308 311 311 308 309 311 312 311 311 310 308 307 306 306
309 309 311 317 319 319 320 321 322 320 311 308 307 315 317 318 319 319 318 314 311 307 304 303 305 297 305 303 302 306 309 310 308 309 309 311 309 310 309 309 308 308 306 301
310 310 309 313 318 317 314 310 318 321 316 308 311 308 311 315 317 316 316 315 310 308 307 302 303 306 304 309 313 311 311 311 308 310 308 308 310 309 308 309 308 307 298 296
311 311 311 311 315 317 312 307 316 320 315 306 310 306 305 310 311 308 310 311 311 310 306 304 306 304 308 306 311 312 310 310 310 310 310 312 309 310 308 303 300 297 295 294
312 313 315 316 316 316 315 316 318 318 312 303 307 307 305 309 305 307 305 304 308 308 308 306 308 304 303 310 311 311 311 310 310 310 310 310 308 305 298 295 295 294 294 293
312 311 312 312 312 311 314 314 316 316 312 306 303 308 311 304 305 301 302 305 307 305 310 306 306 306 312 313 312 311 310 311 311 310 308 306 303 298 296 296 296 295 293 292
311 310 308 306 308 311 313 313 305 302 304 303 302 303 310 309 301 304 303 301 310 312 309 306 307 311 307 306 305 306 307 307 307 306 303 298 297 299 299 298 296 294 293 293
309 305 304 309 310 310 303 306 305 307 309 306 304 302 307 303 308 308 301 306 304 311 306 311 309 307 304 303 302 300 302 300 299 300 299 299 298 296 294 294 295 294 292 291
308 306 307 307 301 302 305 307 304 306 309 302 305 304 305 302 301 306 303 307 304 310 302 308 309 301 296 296 297 297 297 296 296 295 295 295 296 297 297 295 292 292 291 290
305 303 300 306 301 309 312 313 308 307 301 300 300 305 300 301 301 302 304 308 308 301 307 309 305 300 299 298 297 296 296 296 297 296 296 294 291 291 291 291 290 290 290 290
299 302 306 305 304 302 302 303 302 298 297 298 298 300 301 298 303 301 307 303 302 308 304 300 302 300 299 297 296 296 294 293 293 291 291 291 291 291 291 291 291 291 290 289
298 298 301 299 297 297 297 296 297 296 296 298 299 299 300 301 302 301 301 303 304 302 301 301 298 297 296 294 292 291 291 291 291 292 292 292 292 292 292 292 292 291 291 291
297 297 299 297 299 299 298 297 298 297 296 296 297 301 302 302 301 300 298 300 301 302 300 297 296 295 293 293 294 293 294 293 292 293 293 293 293 293 292 293 293 292 292 292
297 297 295 297 298 298 297 296 297 297 297 301 300 299 298 298 299 301 302 302 301 299 298 295 295 294 295 294 294 294 294 294 293 292 292 293 292 292 292 291 293 293 293 293

GFSNW_925_thetae_012.txt.gz
Theta_e
309 311 312 312 313 312 317 309 311 325 317 310 309 314 321 321 318 318 320 318 318 317 320 321 321 320 319 315 318 317 315 313 313 317 315 316 316 317 311 309 314 308 307 311
309 310 312 312 313 313 319 313 320 322 311 308 305 312 321 320 317 319 320 320 319 319 320 321 321 320 317 312 316 316 313 313 316 317 314 314 318 317 312 309 308 315 310 311
309 311 311 314 313 314 319 315 319 315 309 307 310 315 318 320 318 320 318 319 318 319 321 319 321 320 317 313 315 315 313 313 313 315 315 312 314 317 313 311 309 311 310 311
309 311 311 315 313 315 319 311 315 316 313 313 312 314 319 320 321 319 317 319 319 319 322 321 321 320 317 315 315 315 311 314 314 314 313 313 313 313 315 314 312 313 312 310
310 310 313 315 314 316 317 319 312 307 310 316 319 316 319 320 320 319 320 319 320 318 317 317 319 316 314 313 317 315 308 310 309 317 313 311 314 311 311 312 312 312 313 312
310 310 314 315 315 317 315 317 314 310 307 311 316 315 321 320 318 318 317 318 316 317 319 315 313 311 311 314 316 310 306 305 304 304 307 306 306 308 309 310 309 310 313 311
310 311 315 316 315 318 318 320 316 311 307 307 313 317 319 319 317 319 317 315 315 315 309 309 308 308 312 313 312 308 304 303 299 303 301 303 308 308 310 312 313 311 312 311
310 314 315 316 315 318 322 322 317 311 304 307 315 318 318 317 316 318 318 317 312 308 306 308 312 307 308 307 311 307 304 300 303 303 303 304 307 312 313 313 312 312 311 310
313 316 315 316 315 317 320 321 323 312 311 312 316 317 316 311 313 311 318 314 309 305 299 303 308 311 312 312 317 309 304 298 302 298 300 301 305 308 311 311 313 311 309 308
315 316 316 315 315 316 319 322 323 315 315 316 315 315 316 312 311 310 315 316 314 305 298 300 304 307 307 312 311 308 305 301 299 299 297 303 303 310 310 314 311 310 309 308
314 316 319 317 316 316 318 321 324 316 314 317 319 316 314 314 313 313 313 312 309 302 304 302 303 301 307 308 309 310 310 307 302 300 299 306 305 311 312 310 307 309 308 306
314 316 319 322 319 319 316 322 319 318 314 315 318 317 317 318 313 312 310 314 311 308 304 297 302 307 306 301 309 308 310 306 306 305 306 305 305 308 308 307 308 309 308 306
313 316 321 322 319 318 320 322 318 318 308 312 315 317 318 319 317 316 313 307 310 307 302 299 303 303 300 307 308 308 309 306 305 308 309 307 306 306 308 308 308 308 306 306
312 317 321 322 322 322 323 319 314 314 304 307 312 316 316 317 319 318 314 311 307 303 302 298 304 301 303 300 305 305 307 308 309 307 308 308 308 308 308 308 308 308 307 306
310 316 319 319 320 320 320 320 317 314 310 308 307 312 314 316 317 316 314 310 308 306 303 300 305 297 303 303 302 305 307 309 307 308 307 308 307 308 309 309 309 307 306 304
309 312 318 318 317 315 313 309 319 315 314 309 312 307 308 313 315 314 313 312 308 307 307 301 301 303 303 309 306 309 308 307 306 309 307 306 306 309 308 309 308 306 302 298
310 309 311 315 316 311 307 307 315 317 313 306 310 307 304 308 310 306 308 309 308 308 305 302 298 304 305 307 305 312 309 309 309 308 309 310 309 310 308 307 303 297 295 294
314 314 314 314 315 316 315 315 318 315 310 302 305 306 304 307 305 306 305 304 307 307 307 304 305 305 304 310 309 309 309 309 309 308 307 308 306 298 295 295 294 294 294 294
313 315 314 311 311 310 312 315 316 315 310 304 304 308 309 304 304 301 303 305 307 305 308 306 308 306 311 310 307 306 306 307 308 307 306 301 296 295 295 295 295 295 293 292
310 310 308 306 309 310 311 311 304 302 302 303 303 303 310 310 301 303 303 302 309 312 308 306 307 310 304 298 299 298 301 303 305 306 298 296 297 297 297 296 295 294 293 295
309 303 304 309 309 308 299 304 303 306 309 305 303 303 306 303 309 308 301 306 304 311 305 310 309 308 300 296 296 296 296 296 296 297 297 297 296 296 295 294 295 294 294 292
308 307 308 306 301 302 305 305 304 307 306 302 305 304 304 301 300 306 303 308 304 311 303 308 308 300 297 296 296 297 297 297 297 297 297 297 297 296 296 294 292 291 290 290
306 302 299 304 300 309 309 310 308 308 301 300 300 304 299 301 300 302 304 309 309 301 306 308 304 300 300 299 298 298 297 297 297 296 296 293 291 290 290 290 290 290 290 289
300 303 307 305 306 302 301 303 302 298 298 298 299 300 301 298 303 302 308 303 302 307 307 302 301 299 297 296 295 295 293 290 290 290 290 290 291 291 291 291 291 291 290 290
298 299 302 300 297 297 296 296 297 296 296 297 300 300 301 301 302 301 301 301 300 296 294 300 297 296 294 292 292 293 292 290 291 291 291 291 292 292 292 292 292 292 291 291
296 296 299 297 299 299 298 297 299 296 296 296 298 301 302 302 301 299 299 299 297 300 300 296 295 294 293 294 294 294 294 294 292 292 293 292 292 291 291 291 291 291 290 291
297 297 295 296 298 298 297 296 297 296 297 301 299 298 299 298 295 298 298 296 299 299 297 295 294 294 295 294 294 293 293 292 292 291 291 291 290 290 291 289 290 291 291 291

GFSNW_925_thetae_015.txt.gz
Theta_e
312 309 308 310 311 311 312 309 314 321 314 313 310 316 318 320 320 316 319 316 317 317 319 320 320 320 319 315 318 319 315 317 321 318 315 316 316 317 316 319 315 313 316 318
311 309 308 311 311 312 315 311 320 317 310 313 310 312 319 321 317 318 319 320 318 319 321 321 320 320 315 312 315 318 315 318 322 320 316 315 318 317 312 312 314 317 327 317
309 308 310 312 311 312 316 317 322 318 309 307 312 315 317 320 317 318 317 319 318 320 321 319 321 320 316 314 315 314 314 314 318 321 316 315 317 318 313 315 318 316 319 316
308 307 311 311 311 313 315 312 317 318 316 311 310 312 316 320 320 318 316 319 319 320 322 321 320 319 316 315 315 315 313 317 315 314 313 314 313 315 314 314 314 320 316 314
307 309 311 311 312 313 313 314 314 308 312 313 313 311 319 319 319 319 319 320 319 318 319 319 321 318 315 314 317 314 309 315 311 316 313 312 315 313 312 314 314 313 313 315
308 309 311 311 313 314 314 315 310 312 306 314 314 315 317 319 319 318 317 318 318 318 318 315 313 312 312 314 317 312 310 311 310 312 308 308 313 312 313 312 312 315 317 316
308 310 310 312 314 315 316 318 311 311 308 311 313 317 319 319 317 319 317 315 317 315 311 310 311 311 313 313 310 308 307 306 304 313 306 314 312 311 310 312 311 311 312 312
309 310 311 314 314 315 321 320 315 310 306 309 313 317 318 317 316 318 318 316 312 310 309 314 315 313 312 311 309 307 305 307 307 316 311 308 309 308 313 315 314 313 313 312
309 310 312 315 314 315 319 320 316 310 310 311 313 317 316 315 314 314 316 312 307 306 305 310 316 319 315 313 316 309 305 303 312 307 311 312 310 306 312 312 318 312 313 312
310 312 315 315 315 315 318 321 318 316 314 315 314 317 317 312 313 315 313 313 313 306 306 310 313 314 309 313 313 312 312 307 311 303 314 310 306 309 310 316 316 310 312 311
314 315 315 315 315 315 318 321 321 317 315 316 317 313 314 313 314 317 314 315 313 307 311 312 311 313 311 311 310 313 314 313 311 303 309 314 305 312 316 315 309 310 311 310
315 316 316 315 315 316 318 320 319 318 315 316 316 316 316 316 312 314 311 316 313 312 310 304 305 311 308 307 317 309 314 312 314 310 313 308 306 312 309 308 310 311 311 310
317 319 318 315 315 316 318 317 318 316 311 314 316 317 317 317 316 314 316 308 311 308 304 304 305 310 307 313 312 310 310 306 311 310 310 307 307 308 307 308 311 310 310 310
320 321 320 315 315 317 317 320 316 313 306 310 314 315 314 315 318 316 313 309 306 304 304 304 305 310 304 307 309 310 310 308 310 310 310 309 309 309 311 310 309 309 309 309
320 321 320 319 319 319 318 317 314 311 314 312 309 311 312 313 313 312 310 309 309 308 307 306 310 302 306 304 305 309 309 312 314 316 312 311 311 308 308 310 311 311 310 307
319 319 321 321 321 319 317 314 317 313 314 311 313 306 307 311 313 311 311 310 308 309 310 306 304 304 308 311 313 311 308 308 308 311 308 308 308 307 309 310 310 308 307 302
317 318 317 315 313 311 309 311 314 313 312 308 310 309 305 306 308 307 309 310 308 310 307 305 304 307 306 308 312 311 310 309 309 308 309 311 310 311 305 301 296 295 294 294
314 315 315 315 315 316 315 312 314 312 308 303 307 307 307 306 307 307 305 307 309 309 307 304 306 306 307 313 309 305 305 305 309 307 308 307 298 297 296 295 296 296 296 296
313 312 310 310 311 310 313 312 313 313 309 306 302 310 312 305 305 302 305 306 310 305 311 308 310 306 309 302 301 300 299 301 304 300 297 297 296 296 296 297 297 296 295 295
311 310 308 305 309 309 309 310 305 304 302 304 304 304 308 309 303 304 305 304 308 312 309 306 308 309 298 297 297 297 297 298 302 300 298 297 298 298 297 297 296 296 297 296
309 304 305 309 308 307 301 303 305 305 306 305 303 303 307 303 311 308 302 307 305 312 309 311 310 307 298 297 297 297 297 297 297 298 297 297 297 296 296 296 296 295 294 293
308 308 307 306 302 302 306 306 304 305 307 302 305 304 306 302 303 307 304 308 306 312 305 309 309 299 298 298 299 298 297 297 297 297 297 297 296 296 296 294 292 290 290 289
307 303 300 305 302 307 304 311 309 306 302 301 301 304 301 302 300 303 306 310 310 302 308 309 303 301 299 298 298 297 295 295 295 295 294 293 291 290 290 290 290 290 289 289
298 302 306 302 307 303 303 304 303 298 298 299 300 301 303 299 304 302 310 303 303 309 309 306 301 299 297 296 296 295 293 289 290 290 290 290 291 291 291 290 290 290 290 290
299 300 302 300 297 297 297 296 298 296 296 298 301 300 302 302 304 302 303 303 305 303 302 301 297 296 294 294 294 292 291 289 292 291 291 290 290 290 290 290 290 290 290 290
296 297 299 298 299 299 298 298 298 297 296 296 299 301 304 303 303 304 305 303 300 301 300 297 295 293 294 295 295 294 293 293 292 291 291 290 290 289 289 289 289 288 288 288
297 298 295 297 298 298 297 296 296 296 298 301 300 304 302 299 301 301 300 299 299 298 296 295 295 294 294 294 294 294 293 291 290 290 289 288 288 287 286 285 285 284 284 284

GFSNW_925_thetae_018.txt.gz
Theta_e
307 311 316 312 309 311 311 317 321 321 320 325 322 322 319 323 325 322 321 320 321 321 322 322 322 321 322 320 321 323 320 323 326 323 320 320 321 322 319 319 319 321 324 318
307 310 315 311 309 311 312 318 324 318 313 325 326 319 320 324 322 321 323 321 322 323 324 325 324 323 318 317 320 323 321 324 326 324 321 320 322 321 319 319 321 321 330 317
306 312 314 309 310 312 316 320 328 324 317 317 320 320 320 320 321 322 322 323 324 325 325 324 326 324 319 318 319 313 316 323 324 326 321 321 322 322 319 319 321 318 320 316
304 313 313 309 311 311 317 321 323 323 327 320 319 320 319 320 323 321 322 323 324 325 326 325 325 323 319 319 316 320 321 323 320 318 318 317 318 320 320 319 319 319 316 316
309 312 312 308 311 312 318 322 323 320 322 317 317 317 319 319 322 323 323 325 324 324 326 324 326 323 321 322 321 321 317 323 318 320 318 317 318 318 318 319 319 318 318 318
307 313 310 308 311 313 318 320 315 320 315 318 319 318 319 319 324 322 321 324 325 325 324 322 321 319 319 320 322 321 320 320 318 319 315 316 321 318 317 317 318 319 319 318
305 311 308 309 311 314 318 321 318 322 322 320 318 316 318 323 323 325 321 322 325 320 317 318 318 319 318 317 315 315 315 316 315 321 313 329 315 314 314 316 316 316 316 316
310 309 308 310 311 314 321 320 319 321 324 320 317 317 317 322 322 323 323 320 318 317 318 324 322 324 324 320 314 313 313 316 318 328 318 315 312 311 312 316 315 316 316 315
308 307 309 310 312 314 320 321 315 322 323 320 317 318 321 326 326 324 318 315 313 313 320 324 328 327 322 321 321 314 311 312 319 317 333 333 315 312 315 316 317 314 316 317
307 308 310 310 313 313 320 321 316 321 324 318 320 320 322 323 324 326 319 317 318 313 322 334 330 326 316 319 320 321 320 319 325 319 327 318 313 311 315 316 315 316 316 317
308 309 310 312 314 313 320 321 317 324 325 320 321 319 321 320 324 328 320 321 319 319 329 332 325 328 318 317 316 319 321 322 323 315 326 325 310 315 320 318 317 315 316 317
309 309 311 313 314 313 320 323 319 319 324 322 319 318 317 319 320 323 320 325 322 323 326 322 321 321 314 321 325 314 319 319 320 317 318 313 312 316 316 315 316 316 316 315
311 312 314 315 314 314 318 320 318 320 324 321 323 322 318 317 317 317 323 319 319 318 316 321 321 323 319 323 322 319 315 312 317 316 315 314 313 312 312 312 314 314 314 314
315 315 315 315 314 314 316 320 317 319 321 319 323 316 317 314 317 317 317 318 313 312 316 321 316 325 314 321 318 321 316 314 316 316 315 314 314 314 313 313 314 315 314 314
318 317 315 315 314 314 316 316 316 315 321 322 323 316 313 314 314 314 314 315 317 319 320 317 326 314 316 312 314 318 313 316 319 319 315 315 315 313 313 314 315 314 314 315
320 318 315 314 315 316 314 320 315 313 314 325 327 313 315 314 315 316 316 316 317 319 322 319 313 309 317 318 321 315 313 313 313 314 313 314 314 314 312 312 308 306 307 305
319 315 314 316 317 316 318 319 314 311 312 321 320 321 313 311 314 312 317 316 317 320 317 312 314 315 316 315 323 313 310 309 311 312 314 316 308 308 304 302 301 300 299 298
317 317 317 315 314 315 316 310 312 310 313 318 321 317 317 311 315 315 310 314 317 314 311 309 312 311 314 320 310 307 306 307 311 305 308 306 303 302 302 301 300 299 298 297
312 312 312 311 313 318 316 311 311 310 315 320 319 322 321 309 308 308 311 313 315 310 317 315 315 312 317 305 303 304 303 304 305 303 303 302 302 301 299 298 297 297 296 296
309 309 313 316 311 309 309 311 316 315 312 311 308 308 313 312 310 311 314 313 314 315 314 310 316 309 301 300 299 299 301 303 304 303 301 301 299 298 298 297 297 296 296 298
310 313 313 309 308 310 310 311 314 313 314 309 307 308 311 308 316 313 309 313 312 316 314 315 315 309 301 298 299 299 300 301 301 300 299 298 298 298 297 297 298 297 295 294
310 311 307 306 309 312 311 310 310 313 312 307 311 309 308 307 307 312 309 313 309 315 309 314 314 303 299 299 299 299 299 299 299 298 298 297 297 297 295 292 292 290 290 289
307 307 305 311 306 313 317 313 312 309 305 303 304 307 307 307 308 308 311 315 314 308 311 312 308 300 299 299 298 298 298 297 297 296 294 293 292 291 291 292 290 290 291 291
305 308 309 310 311 307 306 307 306 300 300 303 305 305 310 304 309 308 316 305 306 312 313 311 302 300 298 298 298 297 295 292 293 294 292 292 290 290 290 289 289 289 289 290
302 304 305 303 299 299 298 297 299 298 298 301 305 305 308 306 308 305 306 309 311 310 310 304 299 297 297 298 297 295 294 293 294 294 292 290 290 291 290 288 287 287 287 287
299 300 302 299 301 301 299 298 299 298 298 299 301 303 306 307 308 309 312 311 310 306 303 298 296 296 296 297 296 296 295 294 293 292 291 290 289 289 288 287 285 284 285 285
300 300 296 298 299 299 297 296 297 296 299 302 303 308 306 304 306 307 305 306 304 301 299 297 297 297 297 296 296 295 293 293 292 291 289 288 286 285 285 285 284 283 284 283

GFSNW_925_thetae_021.txt.gz
Theta_e
302 304 305 308 313 313 310 317 321 323 322 322 326 326 322 319 323 325 321 321 319 319 320 320 320 319 320 322 323 322 321 321 324 323 323 323 323 323 323 324 321 322 326 320
302 303 306 309 313 310 313 322 323 325 321 328 335 324 322 320 323 323 323 320 320 320 320 320 320 320 322 322 323 322 324 321 324 324 324 323 321 321 322 321 323 320 329 320
300 302 306 309 313 310 315 321 326 326 325 324 326 325 322 321 323 322 322 320 322 323 324 324 325 325 322 322 322 313 318 322 322 325 324 323 325 322 321 322 324 321 322 318
300 301 305 308 312 310 315 322 322 323 329 328 327 323 321 320 322 323 323 324 322 323 323 325 326 326 323 322 318 320 323 324 323 322 322 321 321 320 321 321 320 323 320 317
300 302 305 308 311 310 315 322 323 322 325 324 324 320 322 320 322 323 325 323 322 322 324 324 323 326 325 325 324 324 322 324 323 324 322 321 320 319 318 318 319 318 318 318
301 301 303 308 312 310 316 321 321 324 325 327 323 325 321 320 323 326 324 323 324 324 326 326 325 325 324 324 326 326 325 326 322 319 318 320 323 322 320 318 318 319 320 319
302 302 302 308 311 310 316 321 322 325 329 327 323 320 320 320 324 325 324 325 325 325 322 322 322 322 321 320 321 323 324 323 322 321 318 326 315 316 315 316 317 317 317 317
302 301 302 307 311 310 316 321 323 323 332 323 320 318 319 320 324 326 325 324 324 322 323 325 325 326 326 321 318 317 318 320 322 329 319 317 316 314 314 316 316 316 316 315
302 302 305 310 310 310 313 324 323 324 327 325 318 318 318 327 328 327 323 321 320 320 327 329 326 325 323 325 324 317 316 318 321 320 330 329 319 315 316 317 316 315 314 315
303 303 306 311 309 310 312 325 320 320 319 319 318 319 319 321 326 328 324 322 321 320 330 334 330 326 321 322 322 323 323 324 327 323 327 322 316 314 316 316 320 317 316 316
304 305 309 309 309 310 311 325 324 321 320 321 321 319 320 320 323 330 325 324 324 325 330 335 330 333 324 323 320 323 322 325 327 324 326 326 313 316 318 321 317 316 317 316
308 310 309 308 310 311 313 325 323 326 324 326 323 322 321 322 323 325 324 325 326 326 329 330 332 327 320 326 326 319 323 322 323 320 321 317 315 315 315 316 316 316 316 315
307 307 308 310 310 312 313 324 325 324 327 325 323 323 321 320 322 323 326 326 325 325 327 330 331 328 326 327 326 323 319 317 319 318 316 315 315 315 314 315 315 315 316 316
308 308 309 310 311 313 315 323 324 323 326 325 326 320 321 318 320 322 323 324 322 322 324 330 322 329 322 328 324 322 320 317 317 318 316 315 315 316 315 316 316 316 317 317
309 309 310 311 313 314 318 320 319 322 324 325 326 320 318 319 320 320 320 321 322 323 326 321 329 322 323 320 320 322 317 317 320 320 318 318 317 317 316 317 316 314 315 316
311 311 312 313 314 313 318 324 317 317 323 327 328 320 319 319 319 320 321 322 323 324 327 325 321 317 322 324 322 319 316 316 315 318 317 317 317 312 310 309 308 307 306 305
315 314 314 314 314 314 319 319 318 314 320 325 325 324 319 318 319 319 322 322 323 324 324 320 323 320 321 321 323 318 313 312 314 312 315 317 311 310 308 307 305 302 301 299
317 315 314 314 315 315 318 309 313 316 317 323 325 321 322 318 321 322 318 322 324 320 317 316 320 317 321 324 316 312 310 311 310 309 309 309 307 307 305 303 300 300 299 298
313 313 314 315 318 320 316 309 311 313 318 324 323 322 324 315 314 315 317 319 322 315 317 319 320 315 321 313 310 309 308 309 309 307 307 307 305 302 301 300 299 298 297 297
315 316 317 320 313 311 313 311 319 319 317 316 313 316 318 317 315 315 316 315 318 318 316 314 318 316 305 305 305 305 306 308 307 306 305 302 301 300 300 299 299 299 300 299
316 319 317 311 309 311 315 317 320 319 319 312 311 313 315 312 318 314 312 316 315 318 317 317 317 316 306 302 303 303 304 305 304 303 301 301 300 300 299 299 297 294 293 292
314 314 310 310 313 316 318 314 313 317 315 309 312 310 310 310 313 314 313 312 312 317 312 317 316 306 302 301 301 301 301 301 301 300 299 299 298 297 294 294 293 291 292 290
311 312 309 314 312 318 315 313 315 314 308 306 309 310 310 309 311 313 313 315 317 312 316 314 309 302 300 300 301 301 300 299 298 297 295 294 293 292 293 292 290 292 293 292
309 313 311 311 315 308 306 308 307 301 302 307 309 308 310 309 310 311 313 307 311 315 316 314 303 301 300 300 300 300 298 296 295 295 294 293 292 290 290 290 289 289 289 289
305 305 307 304 300 299 298 298 300 299 301 306 311 310 312 310 311 310 310 310 314 314 314 306 300 298 298 299 299 296 295 294 296 295 293 292 292 291 290 288 287 287 286 286
300 301 302 300 302 301 299 299 299 298 299 302 307 308 312 309 311 313 315 315 314 309 306 300 297 297 297 299 297 296 297 296 295 294 293 291 289 290 289 287 285 285 285 285
302 301 297 299 299 299 297 297 297 296 300 304 306 312 308 305 311 310 309 310 306 301 299 299 297 296 297 297 296 295 295 295 294 293 291 289 288 287 286 286 285 284 284 283

GFSNW_925_thetae_024.txt.gz
Theta_e
303 303 304 304 306 309 312 315 318 319 320 319 320 328 324 321 323 320 322 320 319 319 321 320 319 318 320 321 320 322 320 321 329 321 322 322 322 324 322 336 326 332 334 325
302 303 303 304 306 309 312 317 320 321 320 320 325 325 324 322 322 322 323 322 321 319 320 321 320 320 324 324 323 323 323 323 326 322 323 323 322 321 320 323 329 330 334 326
301 302 302 304 306 308 313 317 323 326 325 318 322 326 323 322 322 321 322 322 320 320 320 320 321 322 324 323 324 315 323 322 321 327 323 324 326 323 320 321 333 329 325 319
299 302 302 304 306 308 312 320 322 324 327 326 324 327 323 322 322 320 322 322 319 322 324 322 324 323 325 323 318 320 323 324 322 321 321 322 323 322 321 320 322 324 324 320
299 302 301 303 306 307 311 319 322 324 324 323 324 326 326 323 321 322 324 324 321 323 324 323 323 323 327 325 324 323 323 327 326 327 323 323 322 321 320 319 318 319 319 319
301 302 301 301 305 308 312 316 321 323 323 324 326 328 327 324 323 323 322 323 323 323 325 326 327 328 327 325 327 327 328 333 328 325 320 320 321 322 320 318 319 319 320 321
302 301 301 301 304 306 312 316 321 324 326 324 326 326 325 322 322 326 324 325 326 326 324 325 325 323 324 325 325 326 329 329 329 330 319 324 316 317 316 316 316 316 315 317
300 301 302 302 303 307 311 317 321 324 324 325 324 326 325 322 322 325 325 327 326 326 325 328 327 331 324 322 320 320 323 327 329 331 324 319 317 316 316 316 316 316 316 315
299 301 301 301 301 303 309 312 315 325 325 328 323 323 324 325 331 328 325 324 326 326 334 336 330 332 325 326 323 317 318 324 330 325 331 330 322 316 316 316 320 316 316 317
300 302 302 301 301 302 304 312 313 323 326 325 324 323 324 323 329 329 326 324 324 324 335 331 337 333 323 329 328 324 325 327 326 327 329 327 318 316 316 319 325 318 317 317
301 301 301 301 302 302 305 310 311 319 324 323 324 322 321 326 329 331 327 327 326 334 334 336 336 334 331 328 322 324 325 329 328 330 327 326 315 316 320 323 319 318 317 317
302 302 302 303 306 306 308 311 312 314 328 327 325 323 323 323 323 330 327 328 327 330 332 332 338 325 321 328 331 320 327 326 331 325 327 320 316 316 315 317 317 317 317 317
302 303 304 304 304 308 310 311 313 324 329 326 324 325 322 322 325 325 328 328 327 328 332 336 336 323 330 326 333 327 321 319 325 322 316 316 316 315 315 316 317 316 317 318
304 304 304 304 306 309 310 310 313 325 327 324 328 322 322 320 322 325 326 328 328 330 331 335 320 327 327 333 330 334 323 319 319 320 318 317 317 318 318 317 317 317 317 315
304 306 305 307 309 308 309 311 314 322 325 326 326 321 320 320 322 323 324 327 328 330 330 318 334 329 329 327 327 329 320 319 326 327 319 320 319 315 315 313 312 311 310 307
306 308 309 308 309 310 311 321 321 321 324 328 328 321 321 320 321 322 324 326 327 328 331 328 326 320 328 328 328 319 318 317 317 319 317 318 314 311 309 308 308 306 306 304
307 308 308 309 310 311 319 318 316 319 324 327 324 322 320 322 322 323 324 323 326 327 328 326 326 322 324 321 328 319 315 314 315 313 315 314 313 310 308 305 303 301 300 299
308 309 309 310 312 314 317 313 314 316 320 324 322 317 322 320 325 324 322 327 326 323 320 322 326 320 327 328 318 314 312 313 311 311 311 310 308 306 304 302 301 300 299 298
311 312 313 312 316 320 317 313 316 315 318 320 322 320 323 318 316 317 320 322 323 318 319 325 323 317 323 319 315 312 311 313 310 309 308 306 304 303 302 301 299 299 299 299
313 314 317 317 315 311 310 315 320 320 317 318 315 317 320 317 315 315 317 317 319 319 318 316 319 318 310 309 308 308 309 310 309 307 304 303 302 301 301 300 299 297 295 294
317 319 315 311 311 313 315 316 319 318 318 313 312 315 318 315 319 316 314 317 318 319 318 319 318 316 309 306 306 305 307 307 306 305 302 302 301 300 299 296 294 293 292 291
315 315 312 311 315 314 312 314 314 318 317 309 313 312 312 312 315 314 314 313 314 318 313 317 317 310 305 304 303 303 303 303 302 301 300 299 297 296 295 294 293 291 291 290
312 311 308 313 309 314 318 313 314 312 307 306 309 310 311 311 312 313 312 313 317 313 314 314 311 304 303 302 303 302 301 300 299 297 296 295 294 293 292 291 290 293 292 289
311 310 309 308 310 306 305 306 305 300 301 305 309 309 310 309 310 311 312 308 311 315 315 314 305 302 301 302 301 300 298 296 296 295 293 292 290 289 289 288 288 287 287 287
304 304 305 303 299 299 299 298 300 299 302 305 312 312 311 309 308 310 309 311 314 313 314 306 302 300 300 300 300 296 296 295 295 294 292 291 290 289 288 287 287 286 286 285
299 299 302 300 302 300 299 298 299 298 300 305 309 310 311 309 311 313 312 315 315 309 303 299 298 298 299 299 297 296 297 297 295 293 291 290 290 290 288 285 285 285 284 283
301 300 296 298 298 299 298 297 298 297 301 305 307 310 307 306 311 310 306 307 304 299 298 297 296 297 298 297 296 296 296 295 294 292 291 290 288 287 287 287 285 285 284 283

GFSNW_925_thetae_027.txt.gz
Theta_e
298 302 302 303 304 304 310 314 317 314 314 316 316 320 322 321 323 323 322 321 320 318 320 319 316 317 323 320 321 322 322 322 324 325 321 321 321 322 323 318 320 319 317 319
297 301 304 305 304 304 310 315 317 315 315 315 316 316 321 323 323 323 322 322 322 321 320 323 318 325 323 323 323 322 323 320 317 318 319 322 322 321 320 323 319 320 316 318
298 300 301 305 304 305 311 315 319 320 319 312 315 315 320 324 323 323 322 322 322 322 320 320 321 325 323 323 321 315 322 322 318 317 319 321 323 324 322 319 317 318 318 321
300 298 298 304 304 305 311 314 316 320 322 320 315 317 320 324 325 322 321 322 322 321 320 321 322 325 324 324 317 320 320 320 321 323 324 323 322 323 322 320 320 319 319 321
298 298 298 303 303 305 310 315 316 320 321 320 320 317 322 324 323 322 322 323 321 319 322 323 322 326 325 324 321 321 321 323 323 322 321 319 318 319 319 318 319 317 318 318
298 297 298 302 303 306 308 311 314 318 320 321 320 318 322 323 322 321 320 323 323 321 324 323 325 324 323 324 322 321 321 317 316 320 316 314 311 313 317 318 318 317 316 315
298 299 298 302 303 306 307 310 314 320 320 322 318 319 320 323 322 323 322 321 322 324 321 321 320 320 321 323 322 324 319 319 313 315 312 308 313 315 314 315 314 313 312 313
298 298 299 302 302 304 305 307 314 320 313 320 318 318 322 324 323 322 325 326 323 321 324 322 322 316 314 320 319 322 322 314 317 313 315 314 315 316 317 315 315 314 314 313
298 298 301 302 301 302 305 305 307 317 322 321 317 317 322 324 322 325 326 322 321 325 324 314 322 321 320 321 319 318 316 314 311 313 315 312 316 315 315 314 315 316 314 314
299 299 302 303 302 301 304 305 307 313 323 320 319 319 323 323 324 323 324 323 322 324 312 320 316 317 321 322 320 316 313 312 311 309 310 315 319 315 315 311 313 316 314 314
301 301 302 302 301 302 303 304 306 313 319 320 322 319 321 325 323 322 322 323 320 316 320 317 316 316 316 318 322 318 316 315 311 315 317 319 315 315 312 316 315 314 313 314
299 300 300 300 300 301 303 302 305 308 313 319 322 323 324 324 322 322 320 325 322 323 321 319 315 318 312 316 316 319 318 319 316 317 315 316 313 313 313 312 312 314 314 314
299 300 300 301 301 301 302 303 309 311 314 317 321 323 320 326 324 322 322 323 323 325 324 319 317 319 309 317 316 320 319 318 316 315 316 315 313 314 315 315 315 313 310 309
300 300 302 302 301 302 303 305 308 312 314 317 323 322 320 321 325 326 325 325 326 324 323 313 312 317 321 312 317 315 317 316 317 316 316 318 316 315 314 311 310 306 304 303
301 302 302 302 303 306 307 308 308 311 313 320 321 320 321 321 323 325 326 324 324 321 314 307 314 312 315 307 310 310 316 316 312 311 318 315 313 310 309 308 306 306 304 302
301 302 303 303 304 305 309 311 310 310 310 316 317 318 320 321 322 322 323 322 322 323 319 316 317 317 313 310 309 317 315 315 315 317 313 311 308 306 305 304 303 302 301 300
303 303 303 304 305 309 310 314 313 313 311 317 314 314 317 320 320 317 320 321 321 320 320 313 314 316 317 307 312 315 313 312 312 312 311 310 308 305 302 301 300 299 298 298
304 305 305 307 308 309 311 311 315 317 318 316 314 313 315 318 313 313 316 315 315 315 314 311 309 311 305 312 313 312 312 310 310 308 308 305 303 302 302 300 299 297 296 296
306 306 307 308 311 315 316 315 316 314 316 311 310 314 317 315 312 309 312 315 313 313 309 309 310 306 313 315 311 310 311 311 308 305 304 303 302 302 300 297 297 296 295 294
308 310 314 311 314 311 314 316 312 310 311 308 307 310 314 314 306 309 310 306 313 310 312 310 307 305 307 307 307 307 308 307 304 302 302 301 301 299 299 297 295 294 294 291
314 313 309 310 312 311 306 305 308 308 306 305 306 309 312 311 311 310 306 310 308 309 310 309 311 307 307 304 304 304 304 306 305 302 301 301 300 297 295 293 292 290 289 288
314 312 311 311 311 308 308 307 304 310 310 303 308 308 311 307 310 306 309 310 306 312 310 312 310 306 304 303 303 303 303 302 301 300 298 297 296 294 293 291 290 288 288 287
310 306 304 310 304 311 311 309 310 308 304 303 304 306 305 305 307 306 308 315 312 306 311 309 304 304 302 302 302 300 299 298 296 295 294 293 292 291 290 290 290 288 286 286
304 304 306 306 308 304 303 304 303 299 299 301 303 304 305 302 306 305 310 306 306 312 312 308 304 302 301 301 300 299 297 294 293 292 290 290 289 288 288 287 287 286 285 285
300 300 303 301 299 298 298 297 299 297 298 300 305 304 306 305 307 305 306 309 310 309 307 304 301 300 300 299 296 295 293 292 292 291 289 288 287 287 286 286 285 285 284 285
297 297 301 299 301 300 298 298 299 298 297 299 301 305 307 307 307 309 310 310 307 304 301 298 298 298 297 296 295 295 294 293 292 291 290 289 287 286 285 285 284 283 283 283
298 298 295 297 298 298 298 296 297 297 300 303 303 306 305 303 308 306 303 302 301 298 297 296 297 297 295 294 294 294 293 292 291 290 289 289 288 285 285 285 285 283 282 283

GFSNW_925_thetae_030.txt.gz
Theta_e
298 299 298 297 299 303 304 310 315 313 313 314 314 320 319 316 320 321 324 321 321 316 316 316 315 315 315 317 321 320 321 322 320 322 320 321 318 320 320 316 317 315 315 318
299 298 297 296 300 301 305 311 315 313 314 313 312 315 318 318 319 321 323 322 320 319 320 319 320 319 322 321 320 319 319 319 316 318 316 318 320 319 319 319 314 318 316 317
298 297 297 299 298 302 305 311 315 315 314 313 310 315 318 319 317 319 321 323 321 321 320 320 321 324 322 321 320 317 318 317 316 317 315 316 322 323 322 319 316 317 316 318
298 296 297 297 301 302 305 311 315 313 316 315 311 312 315 317 316 321 321 321 322 321 319 320 321 324 323 322 317 319 317 319 318 317 321 322 319 321 322 319 318 318 317 318
297 297 298 297 301 302 305 312 315 314 315 314 314 312 314 314 315 318 319 322 321 319 318 318 321 324 322 321 321 319 318 319 321 321 318 317 318 316 317 318 318 318 317 317
297 298 298 297 301 304 305 306 311 315 315 316 316 314 314 313 314 319 318 320 320 320 319 321 319 320 320 321 319 320 318 315 314 319 313 312 313 313 314 316 317 317 314 315
297 297 299 299 299 300 305 305 310 317 317 319 318 315 314 314 316 316 320 318 320 321 318 317 316 315 319 322 323 320 316 314 310 313 309 311 314 313 313 313 312 311 312 312
296 298 298 298 298 300 305 307 309 316 311 319 319 317 315 315 317 321 320 322 319 319 319 318 318 314 316 317 319 320 319 313 315 311 312 313 314 315 312 313 315 313 312 313
297 298 298 297 298 302 304 305 306 309 318 318 319 318 316 315 319 318 323 322 320 322 317 312 318 318 318 319 318 315 315 309 311 312 312 310 312 314 313 312 314 314 313 313
298 298 298 298 298 302 304 304 305 306 313 319 317 318 316 315 320 320 323 322 323 318 311 314 314 317 318 318 317 313 310 308 309 304 307 310 312 314 312 310 309 313 312 312
297 297 298 297 300 303 303 305 305 307 312 315 317 314 314 318 321 322 320 321 320 312 317 316 313 310 315 315 317 315 314 312 309 313 311 315 314 313 312 309 312 311 311 312
297 298 298 299 302 303 303 304 304 304 307 314 312 314 316 316 319 320 318 320 321 320 318 316 312 315 309 312 317 316 315 313 312 313 313 313 312 313 313 311 312 313 313 314
298 298 298 301 302 301 302 303 304 305 309 313 314 317 321 322 321 322 320 319 320 321 317 315 315 314 306 314 311 315 316 317 315 314 315 314 315 314 313 313 309 306 307 308
300 300 302 302 301 301 302 303 304 309 312 312 318 321 319 321 321 321 321 320 322 320 314 311 310 312 313 307 313 311 314 314 315 313 316 315 313 310 309 305 304 303 302 301
299 300 300 300 301 301 301 303 303 306 313 314 314 317 320 322 324 322 320 322 320 315 310 306 310 306 313 302 307 308 313 314 311 311 314 312 311 308 306 305 304 302 301 300
300 301 301 301 301 301 303 307 305 305 308 312 312 315 318 320 322 322 322 321 319 318 314 308 313 315 310 308 307 314 314 313 313 316 311 308 305 304 303 302 301 300 299 297
301 301 301 301 301 304 308 309 311 308 307 311 312 313 316 318 316 315 319 318 316 318 316 310 311 314 311 303 311 314 312 311 309 307 307 306 305 302 300 299 298 298 297 296
301 302 302 302 304 306 308 310 312 310 311 314 312 315 314 315 312 314 313 313 313 313 314 310 307 310 302 312 313 311 309 308 308 307 306 304 301 299 298 297 297 296 295 293
301 302 303 304 307 309 308 309 310 310 312 313 307 313 318 311 308 306 309 308 312 309 309 310 310 308 310 312 311 310 308 308 304 303 302 301 300 298 297 296 295 294 292 291
303 304 307 307 309 309 309 309 312 311 310 305 308 309 313 312 305 308 306 305 309 312 308 307 306 308 306 305 306 306 305 304 303 301 300 299 298 297 296 295 293 292 290 289
306 309 307 310 308 307 307 306 307 306 306 304 305 305 313 309 311 309 303 309 304 310 310 309 309 309 305 305 304 304 304 303 303 301 299 298 297 295 294 292 290 288 288 288
312 311 310 309 309 304 306 305 306 307 309 304 307 307 310 307 309 308 306 309 304 309 308 307 313 306 305 306 305 303 303 302 301 300 298 296 295 293 291 289 288 288 287 287
309 304 302 307 301 308 305 309 309 307 303 303 303 306 304 305 306 305 306 309 308 304 311 310 303 305 303 302 300 298 297 296 296 295 294 293 291 290 289 288 287 286 286 285
300 301 304 305 305 302 302 304 303 299 299 300 302 303 305 301 306 303 309 306 306 306 305 305 303 303 301 299 297 296 295 293 292 291 290 289 289 288 289 286 285 285 284 283
298 300 302 300 299 298 298 297 298 297 298 299 303 303 305 304 306 304 306 309 309 305 305 303 301 300 299 297 295 293 292 291 290 289 288 288 287 286 286 285 285 285 283 281
294 297 300 298 299 299 298 298 299 298 297 298 301 304 305 306 306 307 307 308 306 303 300 298 298 297 295 295 293 293 291 290 290 289 288 287 286 285 285 284 284 284 282 281
296 297 295 297 298 298 298 296 297 296 299 303 302 304 305 303 304 302 301 300 299 298 296 296 296 295 294 294 292 292 291 291 290 289 288 286 285 285 284 283 282 282 282 280

GFSNW_925_thetae_033.txt.gz
Theta_e
300 303 302 300 300 301 302 305 310 312 313 316 311 314 316 316 317 319 321 322 321 317 314 314 314 314 313 312 318 318 318 316 317 320 318 318 318 319 316 316 317 314 314 317
299 303 301 300 298 299 303 306 310 312 313 316 313 313 315 316 316 318 319 322 321 318 315 315 314 314 319 318 317 318 319 318 317 318 317 316 320 318 319 316 312 316 315 316
301 302 301 300 297 299 304 307 311 313 313 313 313 313 315 318 317 316 319 321 322 321 319 318 319 321 321 320 319 317 316 315 317 319 318 316 320 321 318 318 316 316 314 316
301 300 300 299 298 297 301 305 310 313 316 313 314 312 314 317 318 316 315 317 321 322 320 319 321 322 322 320 316 318 317 317 315 314 314 320 319 319 320 318 317 317 317 316
301 300 299 299 297 298 301 306 311 312 313 313 313 313 313 316 316 317 318 316 319 317 320 317 318 321 320 320 319 318 316 316 319 319 316 315 317 316 315 316 316 316 316 316
300 300 299 298 296 299 299 302 305 311 313 314 314 313 313 313 315 315 315 318 319 320 319 317 314 317 318 317 318 317 316 313 314 318 312 312 313 312 313 314 315 315 314 312
300 299 298 298 297 299 301 303 305 313 313 314 313 312 312 313 314 314 314 312 317 317 315 314 314 314 317 320 319 315 313 311 309 312 309 312 315 312 311 312 312 310 311 311
299 298 297 298 298 298 299 304 305 311 311 312 314 312 313 312 312 313 312 316 313 316 317 317 319 313 317 316 316 319 315 310 312 312 312 313 314 311 312 312 314 312 311 311
298 297 298 298 298 297 297 302 304 306 312 314 314 314 313 313 313 312 316 314 317 316 312 310 318 321 320 318 318 313 310 308 314 308 311 313 313 311 312 311 313 312 311 311
297 298 298 297 298 298 299 301 306 305 308 312 315 316 315 312 312 313 318 321 321 317 308 311 313 314 317 318 317 313 311 308 311 304 308 309 308 312 309 313 312 311 311 311
297 297 297 298 298 299 299 300 305 305 306 310 314 314 314 314 313 314 315 322 319 309 317 315 311 311 314 313 314 313 315 313 309 307 307 313 311 312 310 308 311 311 310 310
297 298 298 299 297 299 299 304 305 304 306 309 307 308 309 311 312 315 316 318 320 318 317 312 312 310 306 313 316 315 315 312 313 313 312 310 311 310 310 309 310 309 310 310
298 298 298 298 298 298 300 304 305 304 306 305 309 312 315 314 315 317 319 316 319 318 316 315 312 314 307 314 311 314 314 313 312 312 315 314 314 311 310 311 310 309 310 309
297 297 297 298 297 300 302 304 304 304 308 309 314 316 316 319 320 319 319 318 319 315 314 312 310 312 311 309 312 310 312 314 314 314 315 313 311 307 304 303 302 302 301 301
297 297 298 298 300 302 302 302 304 307 308 310 310 310 315 319 321 319 319 320 317 312 311 306 312 308 311 301 307 306 312 313 313 313 314 312 311 305 304 303 302 301 299 298
297 297 298 302 302 302 302 303 302 303 306 309 308 310 314 318 320 318 318 319 316 313 313 307 311 313 312 312 309 313 312 311 310 313 310 307 305 303 302 302 300 299 297 295
299 300 302 301 300 301 302 304 305 302 305 308 307 303 310 316 316 314 317 315 316 317 315 307 310 313 308 301 310 313 311 309 307 305 305 304 303 301 299 299 298 296 295 295
299 299 300 300 300 300 304 309 308 304 306 310 310 309 310 313 309 315 313 312 313 313 313 307 306 310 302 311 312 310 308 307 306 304 305 304 300 298 297 296 296 295 294 293
301 301 301 302 301 305 307 309 307 309 310 312 307 310 313 310 308 307 308 309 312 310 310 311 311 307 314 311 311 309 308 308 303 301 300 299 298 297 296 295 294 293 291 290
302 302 304 304 306 307 307 307 310 309 311 305 307 308 313 311 305 306 309 306 309 313 310 308 309 308 305 304 306 305 303 302 301 300 299 298 297 295 295 294 293 291 289 289
303 303 305 307 308 306 305 307 307 306 307 304 306 306 312 309 311 310 303 308 305 314 312 313 309 310 305 303 303 303 303 302 303 301 299 298 296 294 292 291 290 289 288 288
304 308 307 307 307 305 303 305 305 307 309 303 307 307 310 306 307 307 306 309 305 313 306 307 312 306 303 302 302 302 301 300 299 299 298 296 295 294 291 290 289 288 287 286
307 303 302 305 300 307 307 310 308 307 302 303 302 306 303 304 304 302 303 306 305 302 311 312 306 305 303 301 299 299 298 298 297 296 294 292 291 289 289 288 287 287 286 285
300 302 303 302 302 301 301 303 303 299 299 300 301 303 304 301 305 303 306 305 306 309 309 305 303 302 300 299 297 297 295 293 293 292 291 290 289 287 287 286 286 285 284 284
299 300 302 301 299 298 298 297 299 297 298 299 303 303 304 303 306 304 306 309 309 306 304 302 300 299 297 296 294 293 291 291 291 290 289 288 287 286 285 285 284 283 283 283
296 297 299 298 299 299 298 298 299 298 297 298 301 303 306 306 305 306 305 307 305 301 298 297 297 296 295 294 293 291 291 290 290 289 288 287 287 286 284 284 283 281 281 280
295 297 296 297 298 298 297 296 296 296 299 302 302 303 302 302 302 301 300 299 297 296 296 295 295 294 293 292 291 290 290 289 288 287 286 286 284 284 283 283 282 281 280 280

GFSNW_925_thetae_036.txt.gz
Theta_e
302 301 300 301 303 301 301 305 304 308 310 315 315 317 313 314 318 318 319 320 322 318 314 313 313 313 313 311 315 315 316 314 313 317 318 316 315 316 315 316 317 313 313 315
302 301 300 301 303 300 303 305 306 310 310 314 314 314 313 314 317 317 318 320 320 319 315 314 313 313 312 314 314 316 317 315 316 316 315 315 318 317 316 313 311 316 314 315
302 301 300 302 303 301 303 305 306 311 310 311 311 313 313 313 315 315 316 319 320 320 319 314 314 314 319 317 315 316 315 315 315 317 316 315 318 318 316 316 315 315 314 315
302 301 300 301 302 301 302 305 305 310 311 311 312 311 312 313 314 315 315 317 319 319 321 318 319 320 321 318 317 315 314 315 314 314 314 316 317 318 316 317 315 317 317 314
302 301 300 302 301 301 301 304 306 309 309 309 312 314 313 313 314 316 315 317 316 318 320 316 317 320 319 318 317 316 313 316 314 318 315 316 318 315 315 316 316 315 314 314
302 301 301 301 300 301 300 300 302 308 309 310 311 312 312 312 313 314 315 314 314 317 317 316 315 315 316 316 317 316 313 313 313 317 312 313 314 312 313 313 313 314 316 313
302 301 301 301 300 299 299 300 304 309 311 312 311 309 311 312 313 314 315 315 315 313 314 314 314 313 316 317 317 313 310 311 310 311 309 313 314 311 312 312 311 310 310 310
302 301 302 300 300 299 299 300 302 307 309 311 313 311 309 311 312 313 314 313 312 315 317 318 320 314 317 316 314 313 311 309 311 314 312 312 313 311 311 312 311 310 309 310
301 301 301 300 300 300 298 301 301 305 309 310 310 312 310 310 311 311 311 312 313 315 316 312 320 322 319 318 319 312 310 307 312 306 312 314 313 311 309 310 312 310 310 310
301 301 300 299 299 300 297 298 301 303 304 309 311 311 312 310 310 310 311 313 317 314 303 309 312 318 316 320 321 316 311 308 311 303 307 311 310 310 309 312 312 309 310 309
301 301 300 299 299 300 298 297 298 302 304 305 308 312 310 311 311 311 312 318 316 308 315 314 312 307 313 314 316 317 319 315 310 306 307 318 308 311 311 309 309 309 308 308
300 300 299 299 299 299 297 298 298 299 305 307 306 306 306 308 310 310 311 313 316 314 316 309 310 309 304 312 316 312 317 315 315 314 314 311 309 310 308 307 309 309 308 308
299 299 299 299 298 297 297 298 299 301 306 305 307 307 310 310 309 311 312 314 316 315 314 312 313 315 308 314 313 314 313 309 311 311 312 310 311 311 309 310 309 308 309 306
298 298 297 297 297 298 297 299 303 303 306 306 309 311 312 314 315 312 313 315 315 313 313 311 311 313 310 309 314 312 312 311 312 311 314 313 311 309 306 304 303 302 301 300
296 296 296 297 298 298 298 300 303 303 305 307 308 306 310 314 317 316 315 316 314 312 312 307 312 308 311 305 311 307 311 313 313 314 312 311 310 305 303 304 302 300 300 298
297 298 298 298 297 298 300 301 302 303 305 307 307 306 309 312 317 316 316 317 312 311 311 309 312 313 314 313 313 313 311 309 312 313 310 306 303 302 301 301 299 297 297 296
297 296 297 297 298 301 301 302 302 304 304 307 307 303 306 313 315 312 313 312 312 314 312 309 312 314 310 304 313 313 312 310 308 305 306 305 304 303 299 298 296 295 294 294
297 297 298 301 301 300 301 303 304 303 305 306 307 308 309 311 312 315 311 308 310 311 312 305 308 310 302 312 311 309 307 306 306 304 303 304 300 298 297 295 295 294 293 292
298 301 301 300 300 300 302 306 303 305 306 306 307 311 312 309 309 309 306 306 308 309 309 309 309 307 314 311 310 308 307 308 303 300 300 300 299 297 296 295 294 293 292 291
300 300 302 297 301 305 304 306 307 308 308 309 307 307 309 311 305 309 308 305 309 309 309 308 308 310 305 304 305 304 303 302 300 299 298 297 296 295 294 294 293 292 291 291
302 302 302 303 305 306 304 303 306 306 306 305 305 306 311 308 308 310 304 308 305 315 312 314 311 313 306 304 304 303 302 301 302 300 299 298 296 294 293 291 291 290 290 290
302 304 306 306 304 302 305 305 303 304 309 303 306 307 309 306 307 307 305 309 306 315 306 311 314 307 303 303 302 301 299 298 298 298 296 295 294 293 291 290 290 289 287 286
304 303 301 303 299 307 306 310 308 308 302 302 302 306 303 304 304 303 307 311 310 304 311 311 306 304 301 301 300 299 297 297 296 296 294 293 291 290 290 288 287 286 285 284
300 304 301 302 302 301 301 301 302 299 298 300 300 303 304 300 305 303 310 305 306 309 308 306 303 301 299 298 297 296 295 293 292 292 291 289 288 288 287 287 286 285 284 284
299 299 301 301 299 298 298 297 298 298 298 299 302 303 304 304 305 304 306 309 307 305 304 301 299 297 296 295 293 293 292 291 291 290 288 287 287 286 285 285 285 284 284 283
296 296 298 297 298 297 297 296 299 297 297 298 300 303 306 305 301 299 300 304 300 299 298 297 296 295 294 293 292 291 291 290 290 289 287 286 286 285 283 282 283 283 282 281
295 296 292 293 295 294 293 293 294 294 299 302 301 298 297 297 298 294 293 295 295 294 295 294 294 294 292 291 291 290 289 289 288 287 286 285 284 283 282 281 280 280 280 280

GFSNW_925_thetae_039.txt.gz
Theta_e
304 304 303 302 301 300 303 303 304 303 304 310 313 315 314 313 315 317 319 320 322 320 316 315 316 317 316 311 314 317 317 318 319 319 317 316 317 320 320 325 320 318 319 320
304 304 303 302 301 301 303 303 303 303 305 311 311 312 312 313 314 317 319 320 320 319 316 316 315 314 312 313 315 318 318 317 319 318 317 316 320 318 316 316 317 320 328 323
305 304 303 302 301 301 301 304 305 306 306 308 309 312 312 313 313 315 317 319 319 320 320 315 315 315 315 314 315 315 316 317 318 318 319 318 320 319 317 320 322 322 321 321
302 305 303 302 301 301 301 304 305 307 307 307 308 310 311 313 314 314 315 317 319 320 319 317 317 316 320 317 317 316 318 319 317 315 315 316 317 319 318 319 320 324 322 317
302 304 303 302 301 302 302 304 306 306 309 306 308 311 311 312 313 313 315 317 317 317 321 319 319 321 319 320 317 317 315 319 315 316 315 316 319 317 318 318 317 317 317 318
302 303 303 301 301 301 301 302 301 306 308 308 307 308 310 312 313 313 313 315 316 317 316 317 316 315 317 318 319 317 316 317 317 319 313 315 319 317 317 316 316 319 320 320
301 300 303 301 301 301 301 301 302 306 307 309 307 307 310 311 312 313 312 314 314 313 314 314 315 315 317 317 317 316 314 316 315 318 313 323 318 312 314 317 316 314 313 313
301 301 302 301 301 301 300 301 303 306 307 309 309 309 308 311 311 312 313 314 313 313 316 317 319 318 317 316 314 314 313 314 314 321 319 317 314 313 314 315 316 313 313 311
300 303 302 301 302 302 300 300 302 304 306 309 309 310 308 310 312 312 312 312 313 313 314 315 321 325 321 320 318 311 310 311 321 312 321 323 318 313 310 312 317 313 312 313
300 303 302 301 302 301 300 300 301 303 305 306 309 311 310 309 310 311 311 312 314 312 310 315 318 322 318 323 322 319 316 313 319 312 321 318 314 310 311 318 319 312 312 313
302 302 301 302 302 301 299 299 300 301 304 304 306 306 310 309 309 310 310 313 313 311 314 316 316 316 318 320 318 318 321 320 320 313 320 324 311 310 317 318 311 312 312 313
302 301 301 302 301 300 298 297 299 300 302 304 304 306 306 306 309 309 312 311 313 313 316 313 311 315 311 317 323 313 323 320 321 320 323 317 310 315 311 309 312 311 313 310
301 301 301 301 301 300 298 297 298 299 301 301 303 305 305 307 307 308 311 311 314 314 314 313 316 315 312 317 316 316 313 311 319 318 317 314 312 310 311 309 311 309 310 310
301 301 300 300 300 299 298 298 297 298 303 302 304 306 307 309 312 308 309 313 313 313 314 313 313 316 314 316 317 317 315 314 314 315 313 314 314 312 311 308 308 308 306 306
301 300 299 299 299 298 298 297 298 298 303 306 306 306 306 308 307 311 311 312 314 313 313 310 316 311 312 308 312 313 313 315 317 319 315 316 315 313 308 308 308 306 304 302
299 299 299 298 298 298 297 299 297 300 300 303 306 306 306 310 313 314 314 313 314 316 315 311 311 313 314 316 318 315 314 313 314 315 312 307 305 305 305 305 304 302 302 300
297 297 296 296 297 298 300 301 300 300 303 306 305 306 307 309 314 314 315 314 315 315 315 312 314 315 314 309 318 315 312 312 310 307 308 308 305 307 302 300 299 298 297 296
296 295 296 296 297 298 300 302 301 300 304 305 304 306 308 311 311 314 312 313 313 313 313 307 313 310 306 313 312 311 310 309 308 306 305 308 303 300 298 297 297 296 295 294
297 298 298 298 299 301 300 303 303 304 304 303 303 307 313 309 310 309 309 309 314 310 311 312 313 310 317 314 311 310 308 309 306 302 302 302 302 299 297 297 297 296 294 294
297 298 300 298 299 301 302 303 304 304 305 306 306 307 312 310 304 307 308 306 311 317 311 308 313 313 306 305 304 306 304 303 302 302 301 299 299 298 296 296 295 294 294 293
300 300 300 300 302 304 301 301 304 304 307 305 305 306 311 308 310 309 306 308 307 316 315 315 314 315 306 304 303 303 302 302 302 302 299 299 298 297 295 294 293 293 292 291
301 302 303 304 303 303 303 304 302 304 309 304 307 307 309 306 307 306 306 309 306 316 308 313 316 307 303 303 303 302 301 300 299 298 296 295 294 294 293 292 291 289 287 286
304 301 300 304 300 307 306 309 308 307 302 302 303 305 304 304 304 303 305 309 311 305 312 310 306 303 300 300 299 297 297 296 296 295 293 292 291 291 290 289 288 287 286 285
298 301 302 301 301 301 301 301 302 299 298 299 301 303 304 301 304 303 310 305 305 310 309 306 301 299 298 296 295 295 294 293 292 291 291 290 289 288 287 287 286 286 285 284
298 297 301 300 299 297 298 297 298 297 297 299 302 303 304 303 306 303 305 308 304 302 302 299 297 296 295 294 293 292 292 290 290 289 288 288 287 286 285 285 285 284 284 283
295 291 294 293 295 293 293 292 295 295 296 298 300 303 304 302 299 299 296 301 297 295 293 295 295 294 293 292 291 291 290 289 288 288 287 286 285 284 283 282 282 282 282 281
295 293 289 289 290 290 290 290 291 292 299 300 298 294 294 295 294 292 291 290 290 287 290 293 293 292 292 291 290 290 289 288 287 286 285 284 283 283 283 282 281 280 280 279

GFSNW_925_thetae_042.txt.gz
Theta_e
305 304 304 304 303 303 301 303 306 304 304 306 308 313 314 311 313 317 319 320 323 321 319 317 318 318 318 317 318 319 319 320 323 321 321 320 320 321 323 324 322 323 326 323
305 305 305 304 303 302 302 303 305 304 304 306 308 310 312 312 314 315 319 320 321 322 322 319 318 318 318 317 319 319 320 321 323 321 320 320 320 321 320 322 322 325 330 323
303 305 305 305 304 302 302 303 305 306 305 307 308 309 312 311 312 313 317 319 320 323 323 320 319 318 317 317 318 318 320 320 321 321 319 319 321 321 321 322 326 324 325 322
301 303 305 305 304 302 302 303 305 306 308 308 308 309 309 311 313 313 315 319 320 322 322 321 320 317 319 318 317 318 320 320 320 318 317 317 318 318 321 322 323 323 323 321
301 301 304 304 304 302 302 303 307 308 307 307 307 311 311 310 312 312 313 318 319 320 320 319 321 321 322 320 321 320 320 319 321 320 319 319 318 319 319 321 320 321 321 320
301 301 299 304 303 302 301 302 305 308 307 307 308 311 309 311 311 312 311 314 315 319 319 319 318 317 318 318 322 322 322 321 321 320 320 320 323 321 320 321 322 322 322 321
301 301 302 302 303 301 300 302 305 308 309 309 308 307 307 308 310 313 312 312 315 315 316 315 316 317 319 320 318 321 323 323 323 323 320 329 319 319 320 321 321 321 320 320
301 301 302 300 303 301 301 302 304 306 310 308 307 307 307 308 309 311 312 314 314 315 314 314 313 314 317 320 321 322 322 323 324 330 323 320 319 317 319 321 321 320 320 319
301 301 301 299 302 301 301 302 303 308 310 309 307 308 307 310 311 313 313 311 316 316 318 319 318 312 313 321 322 316 318 320 327 321 324 329 320 319 318 318 324 319 319 318
302 301 301 300 302 300 301 302 303 306 307 306 307 310 309 308 311 313 312 314 316 315 319 324 320 317 314 319 326 322 320 321 327 326 328 324 320 317 316 322 324 319 318 318
301 301 300 303 301 301 301 301 303 305 307 307 307 309 310 309 311 313 313 315 317 319 319 319 319 325 322 319 321 323 323 325 326 325 330 330 316 315 321 323 320 319 319 319
301 300 301 301 301 301 300 301 302 304 306 305 305 304 306 307 309 312 314 312 314 315 317 320 319 325 321 323 325 320 325 323 326 324 325 323 318 321 319 321 320 318 319 318
300 301 302 302 302 300 300 301 302 302 305 303 302 305 305 305 308 310 312 313 311 315 315 320 323 327 323 328 324 323 320 316 323 322 321 321 320 319 317 316 318 317 317 317
301 302 301 301 302 299 300 301 301 301 303 303 304 305 307 306 308 310 310 312 313 316 317 321 321 325 319 325 321 323 321 316 321 322 322 318 319 319 318 316 314 314 315 316
302 302 301 301 299 299 299 298 299 300 302 305 304 303 304 304 304 306 312 312 315 316 319 318 319 318 319 318 319 323 318 320 323 327 324 323 322 320 319 317 315 314 315 314
300 302 302 299 298 298 298 299 298 300 300 303 306 307 307 308 307 309 312 313 313 315 316 319 318 317 320 325 322 317 318 318 319 320 316 318 315 313 317 316 314 314 313 313
300 300 299 298 298 299 300 301 300 299 300 301 304 308 308 308 310 313 314 314 316 315 316 318 320 320 318 322 324 318 319 318 317 314 312 315 312 314 310 312 311 308 310 308
300 299 298 298 298 298 300 301 301 300 301 304 307 308 309 310 315 315 316 317 316 315 316 315 319 318 318 322 319 319 318 314 314 313 311 310 310 309 308 307 306 306 305 304
297 298 298 298 299 299 299 300 300 300 305 306 305 309 315 310 310 311 309 313 318 315 318 319 319 320 321 318 317 315 314 313 313 308 308 307 308 305 303 303 304 305 301 301
297 298 299 299 299 299 303 301 301 304 306 307 308 307 306 308 311 314 310 307 311 316 316 315 319 321 314 310 310 310 310 308 307 308 307 306 304 303 303 303 302 301 300 299
299 300 301 301 300 302 304 303 304 305 305 307 307 308 306 308 313 313 312 311 307 316 317 320 319 320 309 306 307 307 306 306 306 306 306 305 305 303 301 300 300 299 297 297
301 303 302 303 304 305 305 304 304 306 308 308 308 308 307 309 311 314 310 315 310 318 310 320 319 306 302 303 304 304 304 304 303 303 302 302 301 300 299 297 295 292 289 288
303 304 304 305 303 306 307 310 310 309 303 304 305 308 308 309 309 308 309 314 316 306 312 307 302 300 299 298 298 298 297 297 297 296 295 294 294 293 291 290 289 288 288 287
301 303 303 304 303 302 302 302 303 302 299 301 303 304 306 303 306 304 314 307 307 312 309 303 298 297 296 296 295 294 293 292 292 291 290 289 288 288 288 288 288 287 287 286
297 298 301 300 297 295 295 295 298 297 296 299 303 303 304 304 305 303 307 308 304 301 299 297 294 296 295 294 293 292 291 290 290 289 288 288 287 287 287 286 286 285 284 283
293 290 291 291 294 292 291 291 293 293 294 296 299 303 304 300 298 298 297 300 295 293 290 290 293 293 292 292 291 290 290 289 289 288 287 286 285 285 284 283 283 283 282 282
292 291 288 288 289 288 289 290 290 291 298 300 297 296 296 297 295 293 291 291 289 288 287 287 290 291 291 290 290 289 289 288 287 286 285 285 284 284 283 283 282 281 281 280

GFSNW_925_thetae_045.txt.gz
Theta_e
305 305 305 305 304 303 303 303 306 304 303 307 309 309 311 311 311 312 312 316 317 317 322 319 317 318 318 318 319 320 320 322 325 324 323 322 322 323 324 326 325 325 326 325
301 305 305 305 305 304 303 304 305 304 305 307 311 308 310 311 312 312 312 317 319 320 320 322 319 318 319 320 319 320 320 320 325 323 323 322 322 323 323 324 324 325 333 326
300 302 305 305 305 304 303 304 306 306 307 307 308 308 309 309 311 312 311 315 317 319 322 321 321 319 318 320 319 320 321 320 322 325 324 322 322 321 321 322 327 325 324 322
301 301 302 305 305 304 303 304 307 307 307 309 310 308 307 308 310 312 313 313 316 315 320 320 321 320 321 319 318 319 321 321 321 320 321 321 321 321 321 321 321 324 323 321
301 301 300 302 305 305 303 302 307 308 309 308 309 309 308 308 309 310 312 314 316 317 318 318 320 320 320 319 319 320 321 322 321 320 321 320 319 318 318 319 320 320 320 320
300 301 301 302 302 304 303 301 304 308 307 309 310 311 308 307 308 310 311 312 313 317 317 321 320 319 320 320 322 322 320 324 322 324 321 321 324 319 318 319 319 320 321 321
300 301 301 301 302 304 300 301 306 309 310 310 310 308 308 307 308 311 311 312 314 315 317 317 318 317 317 319 320 320 323 323 323 326 324 328 320 319 319 319 319 319 320 320
300 301 301 302 302 305 301 303 307 309 312 309 309 308 308 308 308 311 311 312 313 314 316 316 316 316 315 315 318 319 319 326 326 330 327 321 319 319 320 320 320 319 320 320
301 300 301 302 302 299 301 304 304 310 311 310 308 309 308 308 310 311 311 312 313 316 316 316 315 310 311 315 320 320 321 323 329 326 326 328 321 320 320 319 324 319 319 320
302 301 301 302 301 300 301 304 304 307 309 308 308 309 309 308 309 312 311 313 317 316 320 321 319 312 310 313 323 323 323 324 330 329 327 323 320 319 320 324 323 321 320 319
302 301 301 302 301 301 301 302 304 307 308 308 307 309 310 309 311 313 311 315 316 319 320 320 316 319 316 315 312 320 324 325 329 328 330 331 321 320 322 323 324 323 322 320
301 302 301 302 301 301 301 303 303 305 308 306 307 309 309 309 308 311 312 314 316 315 317 318 315 323 328 316 322 314 323 323 327 324 325 324 321 323 321 322 322 324 322 321
301 300 302 301 300 301 301 303 304 304 306 307 307 307 307 307 308 310 313 315 313 314 314 315 318 320 325 325 323 316 317 320 326 324 323 322 323 320 321 322 323 323 322 320
301 301 301 300 301 299 301 303 304 304 305 308 307 305 306 306 304 307 311 314 313 315 315 318 320 322 315 323 321 322 320 321 322 322 320 321 321 322 322 322 321 321 319 319
300 301 301 302 300 300 302 302 303 303 305 307 306 305 306 308 307 307 310 313 315 315 320 323 320 316 316 319 322 323 318 320 326 324 320 324 325 323 321 322 321 319 318 318
301 302 301 299 301 301 300 300 301 302 303 304 308 307 306 306 306 307 310 313 314 315 314 319 315 313 316 322 321 315 314 318 319 320 321 321 321 320 319 321 321 320 318 318
302 301 300 300 300 301 302 303 301 301 302 304 305 307 308 307 307 309 312 313 313 316 316 318 317 318 318 324 323 315 313 313 314 317 318 318 317 319 316 317 319 316 317 316
299 299 299 300 300 300 303 302 300 301 302 303 304 307 309 309 311 312 313 315 315 315 315 315 318 318 319 321 316 315 316 317 319 318 318 317 314 313 313 313 314 313 315 314
299 299 299 299 300 301 302 300 300 302 303 304 306 308 311 304 310 312 313 313 315 314 317 317 317 319 321 318 316 315 318 317 317 313 312 313 312 313 310 310 310 312 311 310
298 299 300 301 301 300 300 301 302 303 304 307 308 307 307 303 308 308 311 314 314 316 315 316 318 319 315 309 312 313 312 312 312 313 314 312 311 311 308 309 309 309 306 305
301 302 303 300 299 301 305 304 303 303 307 307 307 309 307 307 309 311 313 313 312 317 318 322 320 318 302 301 305 307 308 309 309 309 310 309 310 310 308 306 305 304 303 302
301 303 302 302 305 305 306 304 304 306 308 309 309 309 308 306 306 311 313 311 313 318 312 321 309 300 298 298 299 299 300 304 305 305 305 305 305 304 303 300 297 293 291 290
303 304 304 305 305 306 305 308 311 309 304 305 309 309 307 306 307 311 313 316 315 304 309 305 302 297 296 296 296 295 294 294 295 294 293 293 292 291 291 291 289 288 287 286
302 305 305 305 306 302 300 300 302 300 299 300 305 304 306 305 310 304 313 306 309 311 309 303 298 296 295 294 293 292 291 290 290 289 289 289 289 288 288 288 288 287 287 286
297 297 299 298 296 295 295 295 297 297 296 299 303 302 304 303 305 304 311 309 304 300 299 295 293 294 294 293 292 291 290 290 289 289 289 288 288 287 287 286 285 285 284 283
292 289 291 290 294 293 292 293 294 294 293 296 300 304 303 301 300 299 299 300 297 295 293 290 292 292 292 291 291 290 289 289 288 288 287 286 285 285 285 284 284 284 284 284
292 291 288 288 289 289 290 291 292 293 298 301 299 297 297 298 296 293 291 291 290 289 288 288 288 288 288 288 288 288 288 287 287 286 286 285 285 284 284 284 283 282 281 281

GFSNW_925_thetae_048.txt.gz
Theta_e
303 304 305 305 305 304 304 304 306 304 305 307 308 309 311 310 308 309 312 312 312 314 317 319 324 320 321 320 320 320 320 324 325 322 321 322 323 324 326 329 328 331 337 329
303 303 305 305 305 305 305 305 305 304 306 306 308 309 307 308 309 309 311 313 313 314 317 321 322 323 320 320 320 321 320 321 324 324 325 323 323 323 323 325 326 329 333 328
303 304 305 306 305 305 304 304 305 307 307 307 308 309 310 308 308 309 309 312 312 314 318 322 321 323 320 321 319 318 322 322 322 327 327 324 324 323 325 326 330 328 328 325
304 305 304 304 305 305 304 304 306 306 308 307 308 308 308 308 308 308 309 311 313 313 320 320 322 323 322 319 320 320 322 325 322 321 321 323 323 323 322 322 323 326 325 323
303 302 302 303 303 306 305 301 306 308 307 307 308 309 310 308 308 307 309 312 313 314 317 318 319 322 322 321 320 321 320 323 323 323 321 321 323 324 321 321 321 321 322 322
300 300 302 302 302 305 305 301 304 307 307 308 309 310 310 309 309 309 308 311 313 315 315 317 320 320 322 322 322 322 322 326 323 324 322 321 322 324 322 321 320 320 321 322
300 300 300 301 301 302 302 299 305 308 309 310 310 308 308 309 309 310 308 310 311 314 315 317 320 321 321 321 321 321 323 324 325 325 324 326 321 321 321 320 320 319 319 319
299 300 300 300 301 301 300 300 305 307 311 309 309 309 309 309 310 310 310 310 311 313 317 318 318 320 322 319 320 320 320 324 330 327 324 323 320 321 320 321 320 320 319 319
301 300 300 300 301 301 301 298 303 306 309 310 308 309 309 310 311 311 310 310 312 313 316 318 320 322 321 320 319 319 320 322 326 331 326 326 324 321 320 320 322 320 320 321
301 301 300 301 301 302 301 298 300 306 309 308 309 310 311 309 310 311 310 311 313 315 319 320 319 320 314 316 320 323 323 323 327 327 329 328 320 320 320 323 323 323 322 321
302 301 301 301 301 301 301 300 302 305 308 309 309 308 310 310 311 312 311 313 315 314 319 321 318 320 317 313 314 323 324 325 327 327 329 329 321 320 321 323 325 325 323 324
303 302 301 301 301 302 300 300 302 305 308 308 308 308 309 309 310 311 311 313 312 315 318 318 319 325 323 317 317 316 323 320 325 324 325 325 322 321 322 324 326 326 325 325
302 302 301 301 301 302 301 301 303 305 306 307 307 308 309 309 310 311 315 313 313 316 315 318 320 321 320 326 321 318 316 320 323 320 320 323 323 321 321 321 322 323 323 324
302 301 301 301 302 300 301 302 303 304 307 308 307 305 308 308 309 310 312 313 313 316 317 318 320 320 316 320 319 320 317 317 321 322 320 318 318 319 321 323 323 323 321 321
301 301 301 302 301 301 302 303 303 304 307 307 308 307 306 308 308 308 309 312 314 317 316 319 319 316 319 320 320 321 317 318 320 326 321 322 323 321 322 321 320 321 322 321
301 302 301 301 301 302 303 300 303 303 304 307 308 307 308 309 308 307 307 310 312 315 315 318 317 316 318 325 321 315 315 316 316 320 320 321 321 319 320 320 320 321 322 320
301 301 301 301 302 302 304 304 303 303 304 306 306 307 306 307 309 309 309 310 312 314 315 317 317 318 316 319 320 313 314 314 314 313 316 318 316 319 317 316 317 318 319 319
301 301 301 301 301 301 303 302 302 303 304 304 306 308 309 308 310 310 311 313 313 314 316 317 318 317 319 318 314 314 315 315 316 316 316 318 317 315 315 314 314 316 317 317
300 300 301 301 301 303 302 301 302 303 304 305 306 308 310 305 310 311 313 313 314 314 317 317 317 319 317 309 310 314 315 316 315 314 314 314 315 314 313 310 311 312 312 312
300 300 301 302 302 300 301 302 303 304 305 306 308 306 309 306 304 310 311 313 313 314 316 315 316 315 302 299 300 302 304 309 311 313 313 312 313 314 313 310 310 310 309 307
302 303 302 301 301 303 304 303 303 303 304 305 306 308 308 304 307 306 309 313 309 316 316 317 317 308 299 297 298 299 299 303 305 307 308 308 308 310 310 307 303 300 296 294
302 302 301 300 301 303 305 305 303 304 307 309 310 309 308 306 304 303 306 310 309 316 314 314 305 299 297 295 295 294 294 296 296 296 297 296 297 297 295 293 292 290 289 287
304 304 304 306 304 306 306 305 307 308 301 302 309 309 307 306 304 301 305 310 311 304 308 303 298 295 295 294 292 291 290 290 290 290 290 289 289 289 289 288 287 286 285 284
303 304 302 304 301 299 298 299 300 299 298 297 300 304 303 300 303 303 311 306 306 309 305 298 295 294 294 292 291 290 290 289 289 289 288 287 287 286 286 286 285 285 284 284
295 296 297 296 295 295 294 295 297 296 296 297 302 302 304 303 305 303 308 307 300 298 295 293 293 292 292 291 290 290 289 288 288 287 287 286 286 286 285 284 283 283 282 282
291 289 291 291 293 292 293 293 295 295 295 296 301 304 303 300 299 298 298 298 295 293 291 290 289 289 289 289 289 288 288 287 287 286 286 285 284 284 283 282 282 283 282 282
292 291 289 290 290 290 292 292 292 292 296 300 299 297 299 298 295 292 291 291 290 288 288 287 286 286 286 286 285 285 285 286 286 285 285 284 283 283 283 283 282 281 281 281

GFSNW_925_thetae_051.txt.gz
Theta_e
301 301 302 303 304 304 305 305 305 303 303 306 306 306 307 308 307 308 309 310 310 312 313 313 314 318 322 318 318 319 318 321 319 319 320 320 320 320 322 326 328 327 321 324
301 301 302 303 304 304 306 305 304 304 304 306 307 306 306 308 308 308 309 308 310 311 312 313 314 321 321 322 319 320 318 318 320 320 320 320 320 320 322 324 326 327 325 326
300 301 301 302 304 304 306 303 305 306 306 304 305 306 306 307 307 308 308 309 308 308 312 312 314 320 323 322 318 320 318 319 319 319 321 324 324 323 321 323 323 325 324 325
300 301 302 303 303 304 306 302 304 305 308 306 306 305 306 307 308 307 306 307 308 309 310 313 313 319 321 321 321 318 319 319 319 319 319 322 324 324 322 323 324 325 324 324
301 302 302 302 303 303 306 299 305 305 304 306 306 306 306 306 307 307 308 307 308 308 308 311 314 319 320 322 322 320 319 321 319 321 320 321 320 320 321 321 322 324 323 323
300 300 301 303 304 304 306 303 302 305 305 307 307 307 306 307 307 307 307 307 307 308 309 309 317 320 322 321 322 323 322 320 321 320 320 320 320 320 321 322 322 320 319 318
299 300 300 304 303 304 306 303 303 304 308 305 306 306 306 306 308 308 308 308 307 307 311 317 317 318 318 319 321 323 324 321 319 319 320 322 319 318 321 322 321 318 316 316
299 299 300 299 301 303 302 301 303 305 307 306 306 306 306 306 307 308 308 309 307 306 306 314 316 314 317 317 320 322 321 320 320 321 321 320 320 320 320 320 319 318 317 316
300 299 300 300 299 300 303 299 301 304 306 307 306 307 307 307 307 307 307 308 307 308 308 313 315 314 319 321 321 321 321 321 320 318 321 322 319 319 320 319 320 317 317 317
301 301 300 300 300 301 303 301 299 299 303 306 306 307 307 307 307 307 307 308 308 308 309 309 311 314 316 318 319 321 322 318 320 316 319 321 320 319 319 321 319 318 319 318
302 302 301 300 300 300 300 300 298 299 299 306 306 309 309 308 308 308 307 309 309 311 310 311 310 310 314 316 314 314 320 320 317 321 323 324 319 320 319 318 317 318 318 319
301 301 302 301 300 300 301 301 298 299 299 306 307 308 308 309 310 310 309 309 308 310 310 312 312 310 312 313 313 314 320 319 319 319 318 319 318 320 321 319 321 321 321 320
301 301 302 301 301 300 300 300 301 300 300 304 307 309 308 309 309 310 312 309 308 312 309 311 314 312 312 313 312 314 315 316 317 319 318 315 314 317 318 320 317 318 320 319
301 302 302 301 301 300 301 300 301 301 303 304 306 305 308 306 305 305 309 311 311 311 310 312 312 311 314 310 314 313 313 316 318 318 317 316 317 316 318 320 319 318 318 319
302 301 302 301 301 300 301 300 301 302 305 306 305 305 306 307 307 304 308 311 310 310 310 308 310 312 313 312 313 311 313 314 317 315 318 318 317 317 319 318 317 318 318 318
302 302 302 302 300 301 302 302 300 299 304 307 304 305 307 307 308 307 307 308 309 311 311 312 311 312 314 312 311 314 312 312 313 315 315 318 319 318 319 318 317 316 315 316
301 301 300 301 301 301 302 302 302 300 304 306 304 306 307 308 307 306 307 307 309 309 310 311 313 313 314 304 309 313 313 313 313 314 316 315 314 315 313 313 313 313 314 314
302 301 301 301 302 302 303 303 303 303 304 303 302 302 304 306 305 306 307 307 308 308 309 310 310 311 310 311 306 306 306 310 312 311 312 313 313 312 310 309 309 310 311 310
301 301 301 301 301 302 301 303 303 303 304 303 301 302 304 303 304 305 306 307 307 307 305 308 310 306 306 302 300 302 303 304 307 309 310 310 310 311 309 308 308 308 305 302
301 301 300 300 301 302 302 302 303 303 303 304 302 302 304 304 303 307 307 303 303 305 305 311 307 302 299 296 297 298 298 301 302 305 303 304 304 307 301 300 298 296 294 292
302 301 301 300 302 303 302 300 301 301 301 302 302 301 303 301 305 305 303 306 305 312 309 310 309 298 296 294 294 293 294 296 297 298 298 297 297 297 296 293 292 289 288 287
301 301 301 300 301 303 302 301 301 302 305 304 301 302 303 303 301 300 303 307 305 311 305 306 299 296 294 293 292 291 291 292 292 292 292 292 291 290 289 287 286 285 284 283
303 304 299 303 300 303 302 305 305 305 299 299 301 304 298 302 301 299 304 307 310 302 303 297 294 293 292 291 290 290 289 288 288 288 287 286 286 286 286 285 284 283 283 282
299 300 296 298 297 296 295 295 297 296 297 296 297 301 302 299 300 302 308 304 302 302 298 292 291 291 290 290 289 288 287 287 286 286 285 285 284 283 283 283 282 282 282 281
291 291 293 291 293 292 292 293 295 295 295 295 299 300 301 301 302 300 303 301 295 294 291 290 288 288 288 288 288 287 286 286 285 284 284 283 283 283 283 283 282 282 282 281
287 287 287 287 287 284 288 291 293 293 293 295 298 302 300 298 295 294 293 293 291 289 288 287 286 285 285 284 286 286 285 284 284 284 283 283 282 282 281 281 281 281 281 280
290 287 287 285 286 288 290 290 290 291 295 298 296 293 293 294 289 288 288 286 286 286 285 284 283 284 284 283 283 283 282 282 283 283 284 283 282 282 281 281 280 280 279 279

GFSNW_925_thetae_054.txt.gz
Theta_e
299 299 300 301 302 303 304 306 306 303 303 305 303 304 305 306 307 307 308 309 308 310 310 312 313 315 316 318 317 317 315 316 318 318 317 317 317 319 320 324 326 323 319 323
299 299 299 300 301 302 305 306 304 303 303 305 304 303 304 306 307 307 306 308 308 307 309 310 313 314 315 319 321 319 316 317 318 319 317 318 318 318 320 322 322 325 324 324
299 299 299 300 301 302 304 301 305 305 304 303 304 304 304 305 306 306 306 308 308 308 308 308 310 311 313 319 320 320 319 318 318 320 319 319 322 319 320 321 322 324 324 323
299 299 300 300 301 301 304 300 303 305 307 305 304 303 305 305 305 306 307 307 307 308 309 307 308 311 318 318 320 321 321 319 319 318 318 319 318 320 321 320 320 323 322 323
299 299 299 300 301 302 304 299 304 304 303 305 305 304 305 305 306 306 307 307 306 307 308 307 308 309 315 319 321 321 320 323 317 319 318 319 319 318 321 321 321 322 322 323
299 300 300 300 300 301 303 303 300 304 305 305 307 306 304 305 305 305 305 306 306 306 306 306 308 310 314 318 320 320 321 322 321 320 318 319 319 319 319 318 320 321 322 321
300 300 301 302 301 301 303 303 303 305 307 304 306 306 305 305 306 305 306 305 305 306 306 310 314 314 315 318 320 319 319 320 321 318 317 323 319 317 317 318 319 319 318 316
298 298 299 299 301 303 303 303 304 305 306 304 304 305 305 306 304 305 306 306 306 305 304 306 307 308 311 313 317 321 318 320 319 317 319 318 318 318 318 319 318 317 316 316
298 298 298 299 299 299 301 304 303 304 306 306 305 304 305 305 305 305 305 305 305 306 305 306 307 308 313 317 319 318 321 319 318 319 321 320 317 317 318 318 318 316 316 317
299 299 299 299 299 300 298 303 301 298 302 303 304 305 305 304 305 305 305 305 305 305 304 304 307 308 312 313 314 319 319 319 320 319 319 317 317 317 317 320 318 317 317 318
301 301 300 299 300 300 298 301 300 299 298 300 303 306 305 305 305 305 304 306 306 305 306 306 306 304 312 312 314 313 315 319 319 318 321 320 318 320 319 318 316 316 318 317
301 301 301 300 300 300 300 299 299 300 301 301 300 303 306 305 305 306 304 306 306 307 306 306 306 306 302 309 312 312 314 314 317 318 318 316 317 318 320 318 318 317 317 317
300 300 301 301 300 301 300 299 298 299 299 300 300 302 306 307 308 307 307 307 308 308 305 307 309 309 305 307 308 311 312 312 315 317 317 317 317 316 319 317 317 317 317 316
300 300 301 300 301 300 300 299 299 299 300 301 304 301 301 308 308 309 309 309 310 310 308 307 305 306 310 305 311 309 311 316 317 316 315 315 314 313 314 315 316 318 317 316
301 301 301 300 301 300 300 300 299 301 302 302 303 304 306 307 305 307 308 309 310 309 309 306 306 307 309 307 311 313 312 315 316 315 314 315 314 312 313 315 317 316 317 315
301 301 301 302 301 300 300 301 300 300 303 306 305 303 306 306 305 305 305 307 308 309 309 308 308 310 312 310 310 309 308 309 311 313 312 314 316 316 316 317 314 313 314 314
301 301 301 301 301 300 300 301 301 300 302 303 304 305 306 307 306 305 305 305 307 308 308 308 310 310 312 307 311 306 305 304 308 308 311 314 311 311 309 310 310 310 309 308
301 301 301 301 300 300 302 302 300 301 299 304 302 305 304 304 305 306 305 306 306 307 307 305 308 310 311 310 300 300 301 302 305 305 305 307 308 308 307 307 307 303 299 296
301 300 299 301 300 301 302 300 300 300 303 302 299 303 307 301 302 301 304 303 304 303 304 303 307 303 300 297 297 298 297 299 301 304 301 302 303 301 299 299 298 296 293 290
298 299 300 297 302 302 302 302 302 301 301 301 298 298 306 303 297 304 304 298 300 308 304 305 299 297 297 294 294 293 294 296 298 302 301 300 300 298 295 293 291 290 289 287
301 301 301 301 302 302 300 300 299 300 300 299 299 297 301 299 299 302 302 305 305 309 307 304 299 295 293 292 291 291 292 293 294 295 294 294 294 293 291 289 287 286 285 284
300 301 300 300 300 300 298 299 298 299 305 301 298 300 301 300 299 299 303 307 305 310 303 298 293 293 291 290 290 289 289 289 289 288 288 288 288 287 286 285 284 283 283 282
303 300 299 299 295 294 295 300 299 300 298 297 299 304 301 300 299 299 303 307 308 301 297 292 291 290 289 288 288 287 287 287 286 285 285 284 283 283 283 283 282 281 281 281
293 294 290 290 290 292 291 290 289 292 295 295 297 301 302 299 297 301 305 298 297 295 289 290 289 289 288 287 286 285 285 284 284 284 283 283 282 282 282 282 281 281 280 280
289 289 288 287 288 286 288 290 288 292 293 294 299 300 300 298 298 295 297 293 291 290 288 286 286 285 286 285 285 285 284 283 283 282 282 282 281 281 281 280 280 280 280 279
286 286 284 284 284 286 286 289 289 290 292 294 296 300 298 294 291 290 289 290 288 287 285 285 284 284 283 283 283 284 283 283 283 282 282 282 281 280 280 279 279 279 279 278
286 284 281 280 280 283 285 286 287 289 293 293 292 289 291 291 290 288 287 285 285 284 283 282 282 282 282 282 281 281 280 280 279 280 280 280 280 280 279 279 278 278 277 277

GFSNW_925_thetae_057.txt.gz
Theta_e
297 298 299 298 299 300 302 304 306 303 303 304 305 303 303 305 305 307 308 309 308 308 309 311 312 313 312 317 318 316 315 316 318 316 315 316 316 318 319 321 323 320 318 321
297 297 298 298 299 299 303 304 303 303 303 305 303 303 303 303 306 306 307 307 308 308 308 307 308 312 312 316 317 321 320 317 318 318 316 315 316 316 317 320 319 322 323 323
297 298 298 298 299 299 301 299 304 303 303 302 304 304 304 304 304 305 306 307 307 307 307 307 308 309 310 310 319 320 319 318 317 320 318 317 319 318 317 319 320 319 322 320
297 298 298 299 299 299 301 299 302 304 306 304 304 304 304 303 305 304 306 306 306 307 308 307 307 307 309 311 318 320 320 322 321 317 316 317 319 318 317 318 319 320 319 321
298 298 299 299 299 299 302 298 303 304 302 305 305 305 305 304 303 304 305 305 306 305 306 306 306 306 307 310 316 319 319 321 319 318 318 317 318 318 318 317 318 319 319 319
298 298 298 298 299 300 302 302 300 305 306 305 306 304 304 305 304 304 303 305 305 305 305 305 305 305 307 311 314 317 318 319 320 321 320 317 319 318 318 318 319 320 321 319
298 299 299 299 299 300 302 301 302 304 307 304 305 305 304 304 305 304 304 304 305 304 304 303 305 309 310 314 318 317 318 318 319 321 317 324 320 316 317 317 317 316 318 318
299 299 299 299 299 299 301 301 303 304 305 305 304 305 306 305 304 305 304 304 304 303 304 304 306 304 307 309 314 319 315 318 318 322 322 319 320 316 317 317 318 316 316 316
299 299 299 300 300 300 300 300 302 303 305 305 305 304 305 305 304 304 303 304 304 304 303 305 307 306 308 314 317 317 316 314 315 317 320 322 317 315 315 316 319 315 315 315
297 297 297 298 299 300 301 302 301 302 303 304 305 304 304 303 303 304 304 304 304 303 302 303 306 307 309 309 312 314 318 317 319 319 320 316 316 316 318 322 319 316 315 316
298 298 298 298 298 299 299 299 302 302 301 302 303 304 304 303 304 303 303 305 303 302 303 304 305 301 307 309 311 311 313 316 317 317 319 318 315 316 322 317 315 317 317 317
300 300 299 299 299 298 299 299 298 302 301 303 301 303 304 303 303 303 302 304 305 304 304 302 303 302 298 307 308 311 312 310 312 313 315 316 313 315 315 316 317 317 317 317
301 301 300 300 300 299 299 297 298 299 299 301 301 301 303 305 306 304 305 304 305 305 303 303 305 306 302 303 305 309 310 309 310 313 311 313 311 311 312 313 316 317 317 317
301 300 300 300 301 299 300 297 299 298 300 300 300 301 301 302 304 306 306 306 308 306 306 306 304 303 307 303 307 305 307 310 311 312 311 312 312 312 313 314 315 315 317 316
300 300 300 300 300 300 299 298 298 299 300 300 299 303 302 301 302 306 308 308 308 307 306 305 307 304 307 305 306 308 310 312 314 311 313 312 314 313 312 311 312 314 314 316
300 301 300 300 300 300 299 299 299 299 302 304 302 301 305 306 305 306 307 308 307 307 308 307 308 307 310 306 306 306 305 305 306 310 307 308 311 310 308 311 311 309 307 304
301 301 301 300 301 298 299 300 300 300 301 299 303 305 305 306 305 305 305 306 307 305 305 306 307 310 312 306 305 302 301 301 303 304 304 311 309 306 304 305 304 300 298 295
301 301 301 300 297 299 301 301 299 300 299 300 303 305 306 306 305 306 302 303 304 305 305 304 307 308 310 307 298 298 297 299 303 301 302 302 302 300 297 297 297 294 292 291
301 300 299 300 300 300 301 300 300 300 301 302 300 302 308 302 301 302 302 302 302 302 302 304 306 302 300 295 295 294 294 295 297 298 301 301 299 296 294 292 291 290 288 287
299 299 299 298 300 300 301 299 299 297 300 301 302 296 306 303 300 302 302 301 304 308 305 303 296 296 292 291 291 291 292 295 296 299 300 298 298 295 291 290 289 288 287 285
300 297 299 301 300 299 298 300 301 300 300 298 297 297 303 299 301 303 299 305 305 308 306 305 298 294 291 289 289 289 289 291 290 292 291 291 291 290 289 287 286 285 284 283
301 301 300 300 300 297 297 299 296 300 304 299 301 299 299 299 297 298 302 305 304 307 298 295 293 291 289 288 287 287 287 287 286 286 286 286 285 285 284 283 283 282 281 280
300 295 293 294 290 289 290 296 298 297 297 296 299 303 300 299 298 300 303 306 304 296 293 291 289 288 288 287 286 285 285 285 284 284 283 283 283 282 282 282 281 280 280 279
291 290 286 286 285 289 288 288 287 291 294 295 297 300 301 299 300 299 300 295 292 288 287 289 286 286 285 285 284 283 283 283 282 282 282 281 281 281 280 280 279 278 278 278
289 288 286 287 286 286 284 285 287 290 292 294 299 297 296 293 292 291 291 288 287 287 284 283 284 283 284 284 284 283 283 282 282 281 281 280 280 279 279 279 279 278 278 278
286 285 284 283 283 285 285 286 285 289 290 294 295 295 294 290 288 287 287 287 286 283 283 284 283 282 282 281 281 280 280 281 281 281 280 280 279 279 278 277 277 277 276 276
285 282 283 279 280 283 284 285 287 288 291 290 291 290 292 290 288 285 284 284 283 282 280 280 280 280 280 280 280 279 279 278 278 279 279 279 279 278 277 277 276 276 275 275

GFSNW_925_thetae_060.txt.gz
Theta_e
296 297 297 296 296 296 298 301 302 303 304 304 303 305 304 302 302 305 307 309 309 308 308 308 312 314 313 309 316 314 313 314 316 315 314 314 314 315 317 319 320 319 318 320
296 297 296 296 297 297 299 301 302 302 304 306 305 305 304 302 302 305 306 307 308 307 307 305 309 310 310 308 311 321 319 316 317 317 315 314 314 314 316 318 316 319 323 320
296 297 297 296 297 297 299 300 302 302 304 304 304 304 304 304 303 302 305 306 306 307 307 306 308 308 308 308 308 318 319 320 317 319 318 316 317 315 315 317 318 317 318 319
295 296 296 296 297 297 299 300 300 303 305 304 304 304 304 304 304 303 304 305 306 307 307 306 306 308 307 309 310 318 318 321 321 320 319 318 317 317 316 316 316 318 317 318
296 296 296 297 297 298 300 298 302 303 304 304 305 305 304 304 304 304 304 305 305 305 306 306 306 305 305 307 310 312 317 318 318 318 319 319 318 315 315 315 316 316 317 317
296 297 297 297 298 298 300 299 299 304 305 305 305 305 305 303 304 303 303 304 304 304 304 304 304 304 305 306 307 311 315 316 316 320 318 318 318 317 316 316 316 316 318 317
297 297 297 297 298 298 300 300 301 303 306 305 305 304 304 304 304 304 305 303 303 304 302 303 303 304 304 305 305 309 316 316 314 318 316 322 318 313 315 316 316 315 316 317
297 298 298 298 298 298 300 300 301 303 304 306 305 305 304 303 304 304 304 303 304 302 303 305 306 304 306 308 311 312 316 315 317 316 316 315 314 316 315 318 318 314 314 313
298 299 298 299 299 298 300 299 302 302 303 304 304 305 304 304 303 303 303 304 302 303 303 305 310 305 306 309 314 310 313 312 313 317 317 317 312 316 315 318 317 315 315 314
297 297 299 299 299 299 300 300 300 303 303 303 304 304 306 304 304 304 304 304 303 302 303 308 310 309 306 307 312 314 315 315 317 316 317 314 313 315 316 321 314 315 315 316
297 297 297 299 300 300 300 300 300 300 298 303 304 304 305 304 304 304 303 305 302 300 302 304 307 303 305 306 308 313 314 315 312 315 316 314 312 315 321 316 314 314 314 315
299 298 298 297 298 299 301 296 300 299 301 302 302 304 303 303 303 304 304 303 302 302 302 301 302 301 297 306 308 309 309 309 310 311 311 310 311 313 313 314 315 315 314 314
300 300 300 298 297 297 298 297 298 298 297 301 301 302 303 303 303 303 303 302 303 302 301 300 302 303 300 302 304 307 307 308 309 310 308 310 309 308 309 311 313 313 313 314
300 300 300 300 299 298 298 298 298 298 300 302 303 301 303 304 305 304 305 304 306 304 303 303 301 303 304 301 305 303 304 308 309 308 311 311 311 310 310 308 311 311 311 313
301 301 300 300 300 299 299 298 298 298 301 301 300 301 301 303 305 304 305 307 306 306 306 301 306 302 305 303 305 306 308 310 309 308 310 310 310 308 304 306 307 305 304 309
300 301 301 300 301 300 298 299 298 298 300 303 301 300 303 301 301 303 305 307 307 305 306 305 304 305 307 309 304 306 305 303 304 308 304 304 304 306 300 300 301 299 297 295
300 300 301 300 300 299 299 299 299 298 299 302 302 303 304 303 304 303 304 306 308 308 307 306 304 306 309 307 309 301 300 298 299 303 302 306 304 302 297 297 297 294 291 289
300 300 300 301 298 299 300 300 298 299 300 300 302 305 306 304 305 305 304 306 306 306 306 303 305 306 307 308 297 297 296 295 298 298 298 301 301 297 294 293 292 291 289 287
301 301 300 298 297 298 300 299 299 300 300 298 299 304 307 303 303 304 302 304 304 302 303 302 304 304 302 293 292 293 292 293 295 295 297 300 299 295 292 291 290 289 287 286
298 298 297 296 300 299 299 299 299 298 298 301 302 298 304 303 301 302 303 300 301 302 302 297 296 294 290 290 289 290 290 291 292 294 296 294 294 292 289 288 287 286 286 284
298 299 300 299 299 298 299 299 299 299 301 300 299 300 304 300 300 303 298 303 303 306 302 301 298 293 290 288 287 287 288 288 288 289 288 287 288 288 287 285 284 283 282 282
300 300 298 296 295 296 299 299 298 301 303 299 302 301 301 300 295 300 302 303 304 303 295 295 291 290 287 287 286 285 285 285 285 285 285 285 284 284 284 283 282 280 279 278
295 293 291 293 289 291 294 296 295 296 296 295 299 302 299 298 298 301 302 305 298 294 292 290 288 287 286 286 285 284 283 283 283 283 282 282 281 280 280 280 279 279 278 278
290 288 285 284 283 286 287 286 286 291 293 294 298 300 300 298 299 297 298 291 289 287 287 287 285 285 284 283 283 282 282 282 281 281 280 280 279 279 279 278 278 277 277 276
287 285 283 284 285 285 286 286 287 289 290 294 297 291 294 288 287 288 290 287 287 287 284 283 283 282 282 281 282 282 281 281 280 280 279 278 278 278 277 277 276 276 276 276
284 283 282 281 281 282 281 283 284 287 288 289 291 289 287 286 287 285 285 287 284 281 281 282 281 281 280 280 280 280 280 280 280 279 279 278 277 277 276 276 275 275 274 274
283 283 280 278 278 279 281 282 285 286 289 288 290 288 290 289 285 283 283 279 279 279 279 279 280 279 279 279 279 278 278 277 277 277 278 277 277 276 276 275 274 274 273 273

GFSNW_925_thetae_063.txt.gz
Theta_e
296 297 297 297 297 296 296 298 300 301 303 303 304 306 304 302 302 304 306 307 309 309 308 307 309 311 311 308 309 316 314 316 316 317 314 315 315 318 320 323 323 322 323 322
297 297 296 297 296 296 297 300 300 301 302 303 304 305 304 302 302 304 306 307 307 308 308 308 309 309 308 308 309 310 321 317 317 316 316 314 316 316 318 319 319 322 326 322
297 296 296 297 296 296 297 299 301 301 302 302 303 305 304 304 302 302 302 305 306 306 307 307 307 306 306 308 310 315 319 321 318 318 320 319 318 316 316 319 322 321 321 320
296 296 296 296 297 296 297 299 299 301 302 300 303 304 304 303 304 303 303 303 305 306 306 306 306 306 306 306 311 313 319 320 321 320 319 319 319 318 317 316 318 319 319 319
296 295 295 295 295 296 297 298 301 301 301 303 302 304 304 304 303 304 304 305 305 306 306 306 306 306 306 306 308 309 310 320 319 319 318 318 319 318 316 316 316 317 317 319
294 295 295 294 295 297 297 298 298 301 301 302 304 306 304 304 304 304 303 304 304 304 304 304 304 304 305 306 306 307 310 317 318 318 317 317 320 317 316 317 316 317 319 318
295 295 295 295 296 296 297 298 299 301 301 303 303 304 304 304 304 304 304 304 304 304 303 304 305 304 305 305 306 306 309 316 315 318 315 315 318 315 314 317 316 316 316 316
296 296 296 296 296 297 298 298 300 301 301 301 304 304 304 304 304 304 304 304 304 303 304 306 308 306 306 308 306 307 308 310 318 318 317 314 312 315 319 320 318 318 318 318
297 297 297 297 297 297 298 298 299 301 301 301 302 304 304 304 304 304 304 304 303 304 304 306 308 309 306 309 313 310 309 311 318 317 320 317 314 316 316 317 318 317 317 317
297 297 297 297 297 297 298 299 298 299 300 301 302 304 306 304 304 305 303 303 304 304 306 308 309 310 306 309 313 312 313 315 316 318 318 316 313 315 316 316 315 316 316 317
297 297 298 298 298 298 299 298 299 300 298 301 303 304 305 305 304 305 304 305 304 304 306 307 307 308 308 308 308 314 314 315 316 317 319 316 311 315 317 315 315 315 316 316
297 297 296 296 297 300 299 299 299 299 300 300 301 303 303 304 304 304 304 305 303 303 305 305 306 307 304 308 309 308 311 314 316 315 316 311 312 313 311 312 313 314 314 314
299 298 298 297 297 298 299 297 300 299 299 299 300 303 302 303 303 303 305 304 304 303 302 304 305 307 304 309 309 308 308 308 312 311 309 311 311 311 311 309 311 309 306 308
300 299 299 299 297 297 296 298 299 299 299 303 303 300 302 303 303 303 303 305 304 304 305 305 305 307 305 307 307 307 306 308 310 310 310 312 311 309 306 307 306 304 303 301
300 300 299 300 299 297 297 297 297 298 301 302 302 301 301 303 303 304 304 305 306 308 308 304 308 305 308 305 307 309 309 311 312 312 307 307 308 308 302 303 303 300 299 298
300 300 300 300 299 298 296 297 298 297 298 302 304 300 302 302 304 305 305 305 306 306 307 307 307 306 309 309 309 307 305 303 301 305 303 304 305 304 299 299 299 296 293 292
300 300 300 300 300 298 298 299 298 297 299 301 303 303 303 302 302 303 305 305 306 307 307 307 307 309 309 308 309 302 299 297 298 299 300 306 303 302 296 295 295 293 291 289
300 300 301 300 299 298 299 299 298 298 299 300 303 304 305 303 304 305 305 306 306 306 306 305 308 308 308 307 297 296 294 294 297 295 295 297 299 296 293 292 292 291 290 288
300 301 300 296 294 297 299 299 298 299 299 301 300 305 306 303 304 304 303 305 305 303 305 304 307 307 307 293 292 292 291 291 292 293 294 295 296 292 290 289 289 288 287 286
298 298 298 296 295 299 299 299 298 299 299 302 300 301 305 304 303 302 303 302 304 307 305 299 300 293 290 289 288 288 288 289 290 291 293 290 291 290 287 286 286 286 284 283
299 299 299 299 299 299 299 300 298 297 299 300 301 301 303 297 304 304 301 304 304 306 303 305 298 293 289 288 286 285 286 286 286 288 287 286 287 287 285 284 283 282 281 280
299 298 296 294 293 297 298 300 299 300 302 300 302 301 301 299 299 304 302 305 304 304 295 296 292 289 287 286 285 284 284 284 284 284 284 283 283 282 282 281 280 279 278 277
293 291 290 292 287 289 292 297 296 295 294 295 299 302 299 299 299 302 303 303 297 292 291 289 287 286 285 284 284 283 282 282 282 282 281 280 280 279 279 278 278 277 276 276
289 288 285 284 285 287 288 287 288 291 292 293 299 298 298 295 297 295 297 291 291 289 289 286 285 284 284 283 283 282 281 281 280 280 279 278 278 277 277 277 276 275 275 274
286 285 285 284 284 284 285 285 288 289 289 295 295 291 292 288 288 289 290 289 287 287 285 284 283 282 282 281 281 281 281 280 279 279 278 277 277 276 276 275 275 275 274 274
283 282 283 281 282 283 282 284 286 287 288 290 290 289 287 286 286 285 285 287 285 283 282 281 281 280 280 280 279 279 279 279 279 278 277 277 276 276 275 274 274 273 273 272
283 282 279 278 280 281 282 282 284 285 289 288 288 288 289 287 284 282 282 282 280 279 280 280 279 279 279 279 278 278 277 277 277 277 277 276 276 275 275 274 274 273 273 272

GFSNW_925_thetae_066.txt.gz
Theta_e
295 296 296 296 294 295 296 298 300 302 303 303 304 304 303 304 304 304 305 307 309 310 309 309 311 314 310 308 311 313 314 318 319 318 317 317 318 319 320 323 324 323 326 325
296 296 296 296 296 294 298 298 299 301 302 305 304 303 304 304 304 304 305 306 308 308 309 308 308 311 309 307 309 313 318 316 317 316 317 317 318 318 318 319 320 323 328 323
295 296 296 296 296 295 297 299 301 301 302 303 304 304 304 305 304 305 305 306 307 308 308 307 307 307 307 307 310 313 317 320 316 315 315 318 318 318 318 320 322 321 320 320
295 295 296 296 296 295 296 299 301 300 303 302 302 303 303 306 305 304 304 305 305 306 307 307 307 307 306 307 308 309 314 323 322 321 320 320 321 321 319 318 319 321 320 320
295 295 296 295 296 295 296 299 300 301 301 303 302 301 303 304 304 304 305 305 305 307 307 307 307 307 307 307 308 309 311 319 317 317 317 319 320 320 320 320 320 319 320 320
294 295 295 296 295 295 297 297 297 301 300 301 302 304 304 305 305 305 305 305 306 307 307 306 306 306 307 307 308 308 310 313 316 316 315 314 318 320 319 319 319 320 321 320
295 295 295 294 294 295 296 297 298 298 299 301 301 301 302 305 305 306 305 305 306 306 305 306 306 307 307 308 308 308 308 316 314 317 316 317 319 317 317 319 319 318 318 320
296 296 295 295 295 294 296 296 298 300 301 300 300 301 302 303 305 305 305 305 304 304 306 308 309 310 309 309 309 309 309 311 320 314 315 315 313 316 317 317 321 317 318 319
298 297 296 296 295 295 296 296 296 299 302 301 300 301 301 304 305 306 306 304 304 305 306 307 309 311 308 310 313 309 309 310 315 317 315 312 313 317 317 319 316 314 316 317
298 297 298 296 296 296 296 296 296 298 299 301 301 302 303 304 306 305 305 306 305 304 308 309 309 309 308 310 315 314 311 312 313 315 317 314 314 316 317 314 316 314 314 314
297 297 298 298 296 296 296 296 297 298 299 300 302 302 303 304 306 306 305 306 306 308 308 308 308 309 308 308 311 313 312 313 314 313 315 318 315 314 314 316 314 316 316 316
298 297 297 298 297 297 297 298 297 298 300 301 300 301 302 303 304 306 305 304 306 307 308 308 308 308 310 309 310 309 313 312 314 313 314 316 315 314 315 314 315 315 314 313
300 300 297 297 298 297 297 298 298 298 299 299 302 302 302 303 304 303 305 305 306 306 307 308 308 309 309 311 310 310 310 310 312 311 312 313 314 314 312 312 312 310 309 309
300 299 297 297 297 297 298 298 299 299 299 303 302 300 300 302 304 304 304 305 305 305 306 308 308 308 308 309 309 309 309 309 309 310 310 312 313 312 309 309 309 308 305 304
300 300 299 298 297 297 298 298 300 299 302 303 302 302 301 301 302 304 304 304 305 307 308 309 310 308 309 309 311 311 310 310 312 312 310 309 310 308 305 306 306 304 302 301
299 300 300 299 298 296 296 296 298 299 300 302 304 302 303 302 304 304 305 306 305 305 308 309 309 308 309 311 310 310 309 307 306 309 306 306 307 304 300 300 300 300 299 297
299 300 300 299 297 296 300 301 298 299 299 302 305 305 303 302 304 305 306 305 306 306 307 308 308 308 309 310 311 307 301 300 301 300 301 306 302 302 297 297 296 294 292 291
300 300 300 299 297 297 300 299 298 298 300 302 306 306 305 303 305 306 305 306 307 306 307 306 308 308 308 310 298 296 295 297 298 296 296 297 298 295 293 292 293 292 290 288
300 300 300 297 297 299 300 298 299 299 300 304 304 306 307 304 305 304 306 305 307 305 306 308 308 310 306 294 293 292 291 293 293 293 295 294 293 291 290 289 289 289 286 285
297 297 295 296 297 299 298 297 297 299 300 303 305 304 306 306 305 306 306 306 307 309 306 303 307 295 291 290 289 289 289 289 290 292 295 293 293 291 288 287 286 286 285 283
299 299 298 299 299 299 299 301 303 302 302 303 303 304 305 302 306 306 305 306 306 308 306 308 304 297 291 289 287 287 287 287 287 288 288 288 288 289 287 285 284 282 281 280
299 297 294 293 295 300 302 302 300 301 303 301 302 302 303 301 301 305 303 308 307 308 300 306 302 290 288 287 286 285 285 285 285 285 285 285 284 284 283 282 280 279 278 277
294 294 292 294 292 297 301 302 301 302 297 297 300 303 302 299 301 304 307 307 303 298 301 297 291 287 286 286 285 284 283 283 283 283 282 281 281 280 280 279 278 278 277 276
292 293 290 292 292 292 292 294 295 294 294 295 301 300 302 299 301 299 301 295 297 300 299 293 289 286 285 284 284 283 282 281 281 280 279 279 278 278 277 277 276 276 275 275
289 290 290 290 288 288 288 289 292 292 293 298 299 298 298 296 297 296 296 297 296 294 294 288 286 284 283 283 283 282 281 280 280 279 278 278 277 277 277 276 275 275 274 274
286 285 289 288 290 290 289 290 292 290 293 295 297 297 296 293 293 294 292 296 295 289 287 285 284 282 282 281 281 281 280 280 279 278 278 277 277 276 276 275 274 274 273 273
285 286 285 285 287 287 287 288 289 289 294 296 295 296 292 291 291 289 288 289 287 285 284 283 282 282 281 280 280 279 279 279 279 278 278 277 276 276 276 276 275 274 273 272

GFSNW_925_thetae_069.txt.gz
Theta_e
296 296 295 296 296 296 295 298 302 302 302 304 305 305 305 305 305 305 305 305 307 309 310 310 311 319 312 309 309 314 312 314 319 320 319 319 319 321 322 326 325 326 329 330
296 296 296 296 295 296 296 299 300 301 303 306 306 304 304 304 304 305 305 305 305 307 308 310 310 314 313 309 308 312 313 316 316 319 321 319 320 321 321 322 324 329 331 326
294 295 294 295 296 296 296 300 302 301 304 304 305 305 305 304 305 304 305 306 306 307 309 310 309 310 309 308 307 311 311 318 319 321 321 319 320 320 320 322 326 324 326 325
294 296 295 294 296 295 296 299 301 301 303 304 303 304 305 304 304 305 304 305 306 307 308 309 309 309 309 308 309 309 312 321 322 318 320 320 319 319 320 320 321 322 322 321
295 295 295 295 296 295 297 299 299 301 302 303 303 303 304 304 304 305 306 305 305 306 306 307 307 308 309 309 309 309 310 318 319 322 318 319 320 319 318 319 320 320 321 321
295 295 294 295 295 295 297 297 297 301 301 302 304 304 303 302 303 304 305 306 305 306 307 308 309 309 309 309 310 310 309 314 318 325 319 318 320 320 320 320 320 321 322 322
295 295 295 294 295 294 297 297 298 300 300 301 302 301 304 304 304 306 306 306 306 307 307 308 308 308 308 309 309 309 310 312 314 320 320 321 322 319 318 321 320 320 320 319
296 295 295 294 295 295 296 296 298 300 300 300 300 301 302 303 304 306 307 307 306 307 307 309 309 310 309 311 309 310 309 311 316 315 319 319 316 318 320 323 321 317 319 319
297 296 296 295 295 295 295 297 297 299 303 301 300 300 301 303 304 307 306 307 306 305 309 312 311 312 311 311 311 310 309 310 315 317 320 319 316 318 317 316 322 315 316 317
297 297 297 297 296 295 295 296 296 298 301 299 302 302 302 302 304 306 307 307 307 305 308 311 311 311 310 312 315 312 313 312 313 316 316 313 315 316 317 318 320 316 316 317
298 298 298 298 297 296 296 296 296 297 299 299 300 302 303 303 304 308 308 306 307 306 311 311 310 311 311 310 312 313 312 313 313 313 314 315 316 315 317 318 316 316 316 315
298 298 298 298 298 297 296 296 296 297 298 300 301 299 301 303 304 305 305 306 307 308 309 311 310 311 311 310 312 313 314 311 314 312 313 316 316 317 315 315 315 314 313 313
299 299 298 298 298 298 296 296 297 297 297 299 301 303 301 302 303 304 307 306 305 307 307 310 311 312 310 312 312 312 311 312 313 314 315 315 315 314 313 313 313 311 310 309
300 300 300 298 297 299 297 297 297 297 299 302 303 301 301 303 303 304 304 305 306 307 309 309 311 311 309 312 313 311 311 311 310 311 313 314 314 312 310 311 310 309 308 307
300 300 300 298 297 298 298 297 297 298 301 303 302 302 303 301 302 303 304 305 306 307 308 309 310 310 310 309 310 311 310 312 311 315 312 313 312 309 307 307 306 306 305 304
300 300 299 297 297 299 298 296 298 299 299 302 306 302 303 302 302 303 304 305 306 306 307 309 309 309 311 311 311 312 310 308 308 310 307 308 307 304 302 303 302 301 300 298
300 300 299 298 297 297 299 301 299 299 299 302 303 305 304 303 304 305 306 305 306 306 306 309 309 309 309 310 311 305 303 304 303 302 303 307 303 302 299 297 298 297 296 293
300 300 299 299 297 298 299 299 299 299 300 302 306 306 306 304 306 306 305 306 305 305 307 309 309 309 310 311 300 298 298 300 301 298 299 299 298 296 294 293 294 294 292 290
299 300 298 297 297 300 300 299 300 300 301 305 306 309 308 304 305 305 305 305 306 306 306 308 309 309 302 295 295 294 293 294 294 296 298 297 296 294 292 291 291 292 291 289
300 296 294 296 299 298 298 298 297 299 302 304 306 306 307 305 306 306 306 306 308 307 307 306 310 298 293 292 292 291 291 291 292 293 294 293 294 293 291 290 289 288 287 285
297 296 299 299 298 299 300 302 303 304 305 305 305 306 307 304 307 308 307 309 308 308 309 308 307 298 292 290 290 289 289 289 289 290 289 289 289 289 289 287 285 284 283 282
300 297 296 297 299 300 303 305 303 304 305 304 305 305 305 304 305 307 305 307 308 308 305 308 305 293 290 289 288 287 287 287 286 286 286 285 285 285 284 283 282 280 279 279
298 296 296 299 297 303 304 302 303 302 301 301 304 305 303 304 303 305 307 308 307 302 306 302 294 290 288 287 287 285 285 284 284 283 283 282 281 281 280 280 279 279 278 278
296 297 294 298 298 297 297 299 300 296 298 300 303 302 304 301 304 304 305 300 302 305 305 298 291 287 286 285 285 284 283 282 282 281 280 279 279 279 278 278 278 277 276 276
293 294 295 293 291 292 292 293 296 295 295 298 303 302 303 301 301 300 300 301 301 301 299 292 288 286 285 284 284 282 282 281 281 280 279 279 278 278 277 277 276 276 275 275
290 289 293 292 295 294 293 294 295 293 295 299 302 301 300 298 299 300 298 303 301 294 290 287 285 284 283 283 282 282 281 281 280 280 279 278 278 277 277 276 275 275 274 274
289 290 289 291 291 292 291 292 292 292 297 300 301 300 296 296 297 294 293 293 290 287 287 286 285 283 282 282 281 281 281 281 280 279 279 279 278 278 278 277 276 275 274 273

GFSNW_925_thetae_072.txt.gz
Theta_e
296 296 297 296 295 296 297 298 300 299 302 304 304 304 304 305 305 305 305 306 306 308 309 310 311 312 316 311 310 314 315 316 317 316 315 319 320 320 320 326 326 324 330 331
296 296 296 295 296 296 295 300 299 298 303 304 305 303 304 304 304 305 305 306 305 305 306 307 309 311 313 311 313 312 310 317 316 316 317 321 323 321 321 322 327 329 334 327
296 296 295 295 295 295 295 301 300 300 305 304 304 304 305 305 305 304 305 305 306 306 305 306 310 312 313 311 310 309 311 314 318 320 322 321 325 322 322 324 328 330 331 328
295 296 295 295 295 296 295 300 300 302 303 305 304 304 307 305 305 304 304 304 305 306 309 307 309 308 310 310 309 310 312 319 320 319 318 321 324 323 322 324 325 328 326 326
295 295 296 296 294 295 296 301 298 299 302 303 303 303 303 304 306 305 305 305 304 304 305 306 307 307 308 312 311 310 311 315 314 316 317 319 324 322 322 324 324 323 322 323
295 295 295 296 295 295 296 296 297 300 301 302 303 305 304 302 303 304 306 306 307 307 307 308 309 309 310 311 311 311 310 312 318 318 319 321 322 322 322 321 320 321 325 324
296 296 295 295 294 295 296 297 298 300 300 300 302 303 303 304 304 304 303 304 307 308 308 308 308 308 308 309 310 309 310 311 313 317 317 323 319 320 320 323 323 322 322 322
296 297 296 295 295 295 296 295 299 300 300 299 299 300 302 304 304 304 304 304 307 308 308 308 308 309 309 309 308 309 310 311 313 319 318 318 318 320 324 321 325 322 322 320
298 297 296 296 295 296 296 296 297 299 302 300 299 300 301 303 304 304 306 308 307 306 308 309 309 309 309 310 310 309 310 311 314 317 319 321 317 320 317 317 321 317 318 318
297 296 297 297 296 295 296 296 297 298 299 299 299 302 303 303 303 304 306 307 307 306 306 308 311 310 310 312 312 313 312 313 314 316 319 315 315 319 318 320 321 318 317 316
297 297 297 297 297 296 296 296 297 297 299 298 299 300 301 304 305 307 307 307 307 306 306 308 310 311 312 312 312 312 313 314 315 314 315 317 316 317 319 319 318 315 315 314
297 298 298 298 297 297 296 296 296 297 299 298 298 299 300 301 301 305 303 306 306 306 308 309 312 313 314 312 313 312 313 312 315 312 314 317 317 316 316 315 314 312 312 311
298 298 298 298 298 298 297 297 297 297 298 299 298 299 298 300 302 302 306 306 305 306 308 309 311 313 312 314 313 314 314 313 316 315 317 316 314 313 313 311 311 310 309 308
299 298 298 298 298 298 298 296 297 297 298 298 299 298 300 298 301 303 304 305 305 306 309 308 310 312 311 314 313 314 313 312 313 316 315 312 311 309 310 308 308 307 306 305
300 299 299 299 299 298 298 297 297 297 299 300 300 300 300 302 301 303 304 305 306 306 307 309 310 310 311 311 313 314 312 313 316 316 310 311 309 306 306 306 305 304 303 301
300 300 300 299 299 298 297 294 297 297 297 300 304 302 303 303 302 303 303 305 305 306 307 308 309 309 311 313 313 307 306 306 304 305 306 307 306 302 301 301 301 300 299 296
300 300 300 301 298 298 298 300 299 297 298 299 303 303 304 303 303 304 305 305 305 306 306 307 309 309 310 312 311 302 301 304 301 301 304 304 300 299 297 298 298 296 294 291
300 300 300 298 298 297 298 300 300 297 299 300 304 304 306 304 306 307 306 306 305 305 307 307 309 310 310 304 298 297 296 299 298 298 300 299 298 296 295 295 295 295 292 289
301 299 298 297 297 298 300 299 299 299 300 303 305 305 308 305 306 306 306 304 305 305 306 308 309 307 300 296 295 294 293 294 295 297 296 296 296 295 294 293 292 292 290 288
299 297 295 296 298 299 299 299 296 298 300 303 306 306 307 306 307 306 305 306 307 309 307 307 305 297 294 294 292 291 291 292 292 293 293 292 292 293 290 289 288 287 286 284
297 296 299 299 299 299 299 300 302 302 304 304 306 305 305 305 307 306 306 307 309 309 308 308 306 298 293 291 290 289 289 289 288 289 288 288 288 289 287 285 284 283 282 281
297 298 298 298 300 301 303 303 304 304 305 306 307 306 306 305 304 306 306 308 309 310 307 307 301 293 290 289 288 287 287 286 286 285 285 285 284 284 283 282 281 280 279 279
298 299 299 302 299 304 305 302 303 305 303 303 305 306 305 305 305 307 307 307 308 304 307 301 294 289 288 288 287 285 284 284 283 283 282 281 280 280 280 279 279 278 277 277
298 298 296 300 299 299 298 300 300 298 301 303 304 304 305 304 303 305 304 302 303 306 306 297 291 288 286 285 285 283 283 282 281 280 280 279 279 279 278 278 277 276 276 275
295 296 296 294 293 293 295 296 298 296 297 300 304 305 303 302 302 302 301 302 303 299 296 291 288 286 285 284 283 283 282 282 281 280 279 279 278 278 277 277 276 275 275 275
291 292 295 295 297 296 295 297 296 295 297 298 303 302 302 300 302 302 301 304 300 294 289 287 285 284 284 283 283 283 282 281 281 280 279 278 278 277 277 276 275 275 275 274
291 291 291 293 293 293 293 294 294 295 298 303 303 301 299 298 299 295 293 294 290 289 287 286 284 283 283 283 282 282 281 281 280 280 280 279 279 279 278 278 277 276 274 273

GFSNW_925_thetae_075.txt.gz
Theta_e
296 296 296 296 296 296 295 297 298 297 300 300 302 301 301 302 303 304 305 305 306 306 307 307 308 312 315 311 311 315 314 318 318 316 316 318 317 323 323 327 328 325 324 329
296 296 296 296 296 295 295 298 297 297 299 301 301 302 302 302 303 304 305 305 305 306 305 306 307 314 312 311 312 311 311 317 320 316 315 315 319 322 322 322 323 327 330 329
295 295 296 296 296 295 295 296 297 296 296 297 302 302 303 303 303 304 303 304 304 305 307 306 306 309 313 311 311 311 311 313 315 319 320 318 321 324 323 322 328 326 328 329
295 296 296 296 296 296 295 294 298 299 294 300 301 303 305 305 305 305 304 305 304 305 305 307 308 308 313 311 311 310 312 313 315 316 314 317 318 320 322 324 324 329 328 327
295 295 296 296 295 295 295 297 298 299 300 300 303 302 303 303 304 305 306 306 305 306 304 304 306 308 309 310 311 311 311 313 313 314 314 315 319 320 321 325 323 324 326 327
295 296 296 296 295 295 292 295 296 297 299 299 301 304 304 303 303 303 305 307 307 308 308 308 308 308 308 310 311 312 312 311 311 315 315 316 321 322 324 324 324 325 328 325
296 296 296 296 296 296 295 296 297 295 296 297 298 299 301 305 304 304 304 305 306 308 308 307 307 307 307 309 310 310 310 311 311 314 316 324 318 318 321 323 324 323 324 324
296 297 296 296 295 296 296 295 296 297 295 297 298 299 300 301 303 304 304 305 306 304 307 308 309 305 307 308 308 310 309 311 312 314 316 316 319 321 320 324 321 318 321 322
296 296 297 295 296 296 296 295 296 296 298 296 298 300 301 301 301 303 304 305 304 304 306 306 306 307 308 309 309 307 307 309 311 314 317 321 318 318 315 317 322 316 317 317
296 296 297 296 296 296 296 296 295 297 298 297 297 299 300 300 302 302 303 306 306 304 303 303 305 308 307 309 310 309 309 311 313 313 315 315 319 317 315 321 320 319 315 314
296 296 296 297 297 296 296 295 296 296 296 296 297 298 298 300 301 304 304 305 306 303 302 304 304 306 309 312 312 311 310 313 312 311 313 314 318 318 321 319 316 313 312 312
296 297 296 297 297 297 296 295 295 296 297 295 297 297 298 299 299 301 299 303 304 306 305 305 307 310 310 311 315 313 313 311 312 311 312 316 315 317 313 311 311 310 309 308
298 298 297 297 298 297 297 296 296 296 295 296 296 296 296 296 297 301 301 303 304 304 306 307 308 310 310 311 312 314 313 310 314 314 315 314 311 310 309 309 308 306 305 304
299 299 298 297 298 298 297 297 296 296 295 293 296 297 298 298 298 299 301 302 303 304 304 305 306 309 310 311 312 311 308 313 314 309 305 308 307 307 306 305 305 304 301 299
299 298 299 298 298 298 298 298 296 297 296 299 299 298 300 299 300 300 299 303 304 303 304 307 308 309 309 309 310 307 306 305 310 310 306 305 303 303 302 302 301 298 298 296
299 300 299 299 299 298 299 294 296 297 297 297 298 300 301 301 301 301 302 302 302 302 306 306 306 308 308 309 308 302 300 300 300 305 304 302 299 298 299 299 296 294 292 291
299 299 300 299 299 298 297 298 297 296 297 297 299 300 301 302 303 301 301 303 303 303 304 306 306 308 308 306 304 298 297 297 298 300 301 298 296 296 296 297 294 291 288 287
299 300 300 300 298 297 298 300 299 297 297 299 300 301 303 303 302 304 303 305 304 304 305 305 307 307 303 298 296 294 294 295 295 297 297 297 295 294 292 293 292 289 288 286
300 300 300 297 296 297 298 299 297 297 298 299 300 301 305 303 304 304 304 304 303 304 304 305 307 300 296 295 293 292 292 292 292 294 292 293 293 291 290 289 289 287 286 285
298 297 295 296 298 298 298 298 298 297 300 301 303 302 302 304 302 303 304 302 305 307 304 305 298 295 293 291 290 289 289 289 289 290 290 289 290 287 286 285 285 284 283 281
297 297 298 298 298 298 298 297 300 300 300 299 301 301 303 303 304 304 302 305 303 306 306 306 302 296 291 288 287 287 287 286 286 286 285 285 286 285 283 282 281 280 279 278
297 299 298 298 299 300 301 302 300 300 300 299 301 303 304 303 303 303 302 305 304 308 304 306 296 291 288 286 285 285 284 284 283 282 282 282 281 281 281 280 279 278 277 277
299 298 298 301 298 300 299 301 297 302 302 301 301 304 302 302 303 303 303 305 304 299 302 293 290 288 286 286 284 283 282 281 281 280 279 279 278 278 277 276 276 276 275 275
297 295 290 297 299 297 297 298 299 298 299 300 300 301 302 300 301 302 303 300 301 302 297 291 287 283 283 282 283 282 280 279 278 277 277 276 276 276 276 276 275 275 275 274
293 293 294 292 291 290 294 295 296 295 296 298 299 298 300 300 299 300 298 301 302 294 288 285 285 283 282 280 280 280 278 277 277 278 277 276 276 275 275 275 275 274 274 274
290 290 293 292 294 293 294 296 295 294 295 296 296 300 300 299 300 298 294 299 291 286 283 283 281 279 278 281 280 279 280 279 279 278 278 277 276 275 275 275 274 274 274 273
290 288 288 292 287 290 292 292 294 293 297 302 298 297 299 296 294 291 289 287 286 285 284 281 278 277 276 278 281 281 281 280 280 279 278 277 276 276 276 275 274 273 273 273

GFSNW_925_thetae_078.txt.gz
Theta_e
296 296 296 296 296 295 295 295 296 296 297 298 299 298 298 299 299 301 302 304 305 306 306 306 306 313 315 311 311 313 314 315 315 315 314 318 320 320 323 324 326 326 326 328
296 296 296 296 295 295 295 296 295 296 296 299 298 298 299 299 299 300 302 305 304 304 305 304 306 313 311 310 310 311 310 314 315 315 315 318 318 319 320 324 324 329 329 328
295 295 295 296 296 294 295 295 295 294 294 295 299 299 299 300 301 301 300 301 303 304 305 306 305 310 312 310 311 311 310 312 313 315 316 316 319 318 317 322 324 324 325 326
295 295 296 295 295 294 294 294 292 296 298 298 299 299 300 302 301 302 303 304 304 304 304 304 304 307 311 311 311 310 311 311 312 313 314 314 315 318 318 319 321 325 323 325
295 295 294 294 295 295 295 295 295 297 299 300 300 302 301 303 303 305 305 306 306 306 307 306 308 307 308 310 309 311 310 310 312 312 312 315 317 317 316 317 320 320 322 326
295 295 295 295 294 295 293 294 295 296 297 297 298 299 299 304 305 304 303 304 306 307 307 308 307 306 307 308 310 310 310 312 310 310 313 313 317 317 317 317 320 322 325 322
295 296 296 295 295 295 294 294 295 295 295 297 297 298 298 301 302 304 304 305 305 306 307 306 306 306 307 306 308 309 309 310 309 310 312 318 319 314 320 323 321 322 324 324
296 296 296 295 296 295 295 294 295 296 294 297 297 298 300 301 301 301 303 305 305 304 305 306 306 305 305 306 307 308 308 308 308 308 313 310 315 317 322 316 317 321 322 322
295 295 296 296 295 296 296 295 295 295 295 296 297 298 300 300 301 302 302 304 303 303 302 303 305 306 306 308 308 306 307 307 308 310 313 312 317 316 316 318 320 317 320 320
295 295 296 296 297 296 296 295 295 295 296 293 296 296 297 299 300 301 302 300 303 301 300 301 303 306 307 307 308 309 307 307 310 310 312 313 313 317 317 321 321 314 313 313
295 296 296 296 296 296 297 295 295 294 295 294 295 296 296 297 298 300 300 301 305 303 301 302 303 302 305 307 310 312 309 310 309 310 313 313 316 316 319 315 313 312 311 310
296 296 296 296 296 296 296 295 295 295 294 292 297 297 297 297 297 298 300 302 303 302 303 302 304 305 306 310 313 311 313 310 309 309 311 314 313 314 312 311 309 307 308 306
298 298 297 297 296 297 297 296 295 295 294 294 294 294 295 296 296 298 298 302 300 302 302 306 308 309 308 310 312 313 308 311 312 312 310 309 308 308 307 304 303 301 300 301
298 299 298 297 297 297 297 296 295 295 292 288 292 295 295 296 296 296 298 300 300 301 303 305 306 307 307 309 306 304 304 306 311 308 304 306 304 302 302 302 300 297 295 295
299 299 299 298 297 298 298 297 295 295 293 293 295 296 297 297 298 297 298 300 302 303 303 303 307 307 309 305 305 301 301 301 309 308 302 303 302 299 298 296 294 294 293 291
299 299 299 299 298 298 299 294 296 295 296 295 294 295 299 300 299 299 298 300 302 302 303 305 304 307 305 308 304 298 297 298 300 302 298 297 297 298 295 293 290 289 289 288
299 299 299 299 299 298 297 297 296 296 296 298 295 297 298 301 300 300 299 301 300 300 303 305 304 307 305 301 299 295 295 296 297 298 299 296 294 294 294 291 289 287 285 284
299 299 299 299 299 298 298 299 298 296 296 297 297 296 299 302 301 303 299 301 301 303 304 304 305 302 298 296 294 292 292 293 293 294 295 293 292 290 291 290 288 286 284 283
299 299 300 296 296 296 297 299 297 297 297 297 298 301 300 302 302 302 302 303 303 303 304 304 303 296 294 292 290 289 289 290 291 291 292 291 289 288 288 287 286 286 284 283
299 297 295 295 298 298 297 298 297 297 298 300 300 299 302 303 302 302 302 302 304 304 303 300 296 292 289 288 287 287 287 287 287 289 288 289 287 285 284 283 283 282 281 279
297 295 297 299 298 297 297 297 299 298 299 297 296 300 303 302 303 302 301 303 303 306 304 304 298 294 288 286 286 285 284 283 284 283 283 283 284 283 282 281 280 279 278 277
297 298 298 298 297 298 300 300 299 298 298 295 301 300 302 301 302 301 302 303 304 306 303 298 290 289 286 284 283 283 282 281 281 281 281 281 281 280 280 279 278 276 275 275
299 298 297 299 297 300 297 299 299 301 301 300 302 302 301 298 301 302 302 301 304 299 292 290 288 287 285 283 282 281 280 280 279 279 278 278 277 276 276 275 275 275 274 274
296 294 291 291 297 296 291 294 298 297 298 300 298 300 299 299 299 301 301 298 299 298 291 289 285 283 282 282 281 279 276 276 275 274 274 274 273 274 274 274 274 274 273 273
292 292 291 287 288 288 293 293 296 294 295 298 298 295 296 297 298 298 298 299 297 292 290 283 282 280 279 278 278 276 275 273 273 275 274 274 274 274 274 274 274 274 274 273
288 288 290 291 290 290 292 294 295 294 295 296 295 299 298 298 298 293 291 295 291 283 278 278 280 278 277 277 276 275 276 276 276 276 276 275 275 274 274 274 274 273 273 273
288 286 280 280 280 288 287 291 292 292 297 300 297 298 297 295 288 286 285 281 279 282 280 277 274 276 276 276 278 278 278 277 277 277 276 275 275 275 274 273 273 273 272 272

GFSNW_925_thetae_081.txt.gz
Theta_e
296 296 296 296 296 295 294 294 289 296 297 296 295 298 297 298 298 299 299 302 303 306 307 306 308 314 315 312 312 313 313 315 314 313 313 316 318 318 321 325 328 325 325 323
296 296 296 296 296 295 295 293 295 294 296 296 298 297 298 297 298 298 298 302 304 304 306 306 307 313 311 310 310 312 311 313 312 309 314 318 319 319 318 320 321 323 323 322
295 295 295 296 295 294 294 294 293 289 293 290 292 296 298 298 298 299 300 300 300 300 304 305 306 310 311 310 310 311 309 310 311 311 310 314 314 316 316 316 322 324 322 323
294 294 295 295 294 294 294 294 291 291 288 294 296 295 294 298 298 299 299 301 303 303 306 306 304 309 311 310 311 310 308 309 311 311 311 312 313 314 314 315 316 319 317 322
295 295 295 294 294 294 294 292 294 294 292 297 297 297 301 301 299 303 302 303 304 305 307 307 308 307 308 310 308 309 309 309 310 310 309 311 313 310 313 314 316 317 317 319
295 295 295 294 294 294 293 293 293 297 294 296 297 297 299 299 300 303 303 304 304 306 306 307 306 306 306 307 309 310 309 309 310 307 307 308 311 314 316 317 317 315 318 318
295 295 295 295 295 295 293 293 294 296 294 296 296 297 298 300 302 304 304 304 304 304 306 305 305 305 306 306 307 307 308 308 308 307 307 305 311 314 315 318 318 317 319 318
295 295 295 295 296 295 295 293 294 296 294 296 297 297 299 299 300 302 303 305 304 303 304 304 305 304 304 305 306 308 307 307 307 306 307 306 308 315 316 315 318 315 320 319
295 295 295 295 296 296 295 294 293 293 293 293 296 296 298 298 300 302 302 300 300 302 301 303 305 306 306 306 306 305 306 305 306 307 308 307 312 314 313 313 319 314 318 317
295 295 295 295 296 297 295 295 293 294 294 292 294 295 296 298 298 299 302 298 303 300 300 302 303 305 305 307 305 307 307 307 309 307 307 308 311 317 314 319 318 313 314 315
294 295 295 295 296 296 297 295 294 294 291 293 295 295 295 295 296 294 297 297 299 302 303 303 303 302 304 305 305 308 307 308 308 307 309 309 314 315 314 313 311 310 309 307
295 295 295 296 296 296 297 294 294 294 293 291 295 296 296 295 295 295 297 296 299 301 302 300 303 304 302 306 307 310 311 308 308 308 308 310 310 313 310 306 307 306 307 304
296 296 296 297 296 296 296 295 294 294 294 293 292 292 294 294 295 297 298 298 301 299 300 304 306 305 308 307 309 305 304 304 311 310 306 305 305 302 301 299 298 299 299 299
298 298 297 298 297 296 297 296 294 294 291 288 290 293 293 295 295 295 297 299 299 299 301 304 304 306 307 308 303 301 300 301 308 308 305 304 300 298 298 296 294 293 293 293
298 299 298 298 298 297 297 297 295 294 292 291 293 294 296 297 297 295 295 297 299 301 302 300 305 306 306 303 302 297 297 299 302 305 301 300 299 296 293 292 291 290 289 288
299 299 299 299 298 297 298 295 295 294 294 294 292 293 295 298 297 296 296 298 299 300 303 301 303 305 305 305 300 295 295 295 297 300 297 297 295 292 291 289 288 287 286 285
299 299 299 299 298 297 298 297 296 295 295 296 294 294 295 300 298 297 299 299 300 302 301 302 304 304 301 298 296 292 293 294 295 295 297 295 294 292 290 288 286 284 283 283
299 299 299 298 299 298 298 297 298 295 295 296 296 294 298 300 298 301 298 299 302 301 300 303 305 299 297 294 292 291 290 292 292 293 291 291 290 289 289 287 285 284 283 282
299 299 299 298 297 296 297 298 296 296 296 296 296 297 300 299 300 301 301 298 302 300 303 304 299 294 291 291 289 288 288 288 289 290 289 288 287 286 286 285 284 284 282 281
299 298 295 294 296 298 296 297 295 296 297 298 297 295 298 301 299 301 301 301 303 305 303 297 294 290 288 287 287 286 286 285 285 288 288 287 285 284 283 282 282 281 280 279
297 294 296 297 297 296 297 297 298 297 298 297 297 298 300 300 303 301 300 302 303 305 304 302 295 291 287 286 285 283 283 283 283 283 283 283 283 282 281 280 279 278 277 276
297 297 297 296 296 297 298 298 298 296 297 292 299 300 300 301 299 301 301 303 303 306 302 296 287 287 285 284 283 282 281 281 281 281 281 281 280 280 279 278 276 274 274 273
298 297 296 298 297 300 297 299 300 299 298 298 301 302 300 298 300 301 302 301 299 299 286 287 285 286 284 283 282 281 280 280 279 278 278 277 275 275 275 273 274 274 273 273
296 296 294 296 297 291 290 287 288 294 298 299 299 301 300 298 299 300 294 294 294 289 289 287 283 283 282 281 280 278 275 274 273 272 273 273 273 272 273 274 274 274 273 272
293 292 291 285 289 291 293 294 296 294 295 298 298 296 299 295 295 296 298 295 290 289 286 278 280 279 278 277 276 274 272 271 272 273 272 273 273 273 273 274 274 273 272 272
289 287 291 290 290 290 292 294 295 294 295 296 295 295 295 295 294 294 291 295 292 282 275 276 278 276 276 275 274 273 274 274 274 274 274 274 274 274 273 273 273 273 273 273
288 286 282 280 284 285 290 291 291 292 297 298 292 291 294 292 288 287 285 283 277 275 278 277 273 276 273 272 274 275 276 275 276 275 275 274 274 274 273 272 272 272 272 272

GFSNW_925_thetae_084.txt.gz
Theta_e
296 296 296 296 296 295 294 292 290 296 297 295 294 291 296 297 297 297 297 300 301 302 304 304 308 311 314 310 311 314 313 313 313 312 311 314 316 316 316 323 322 322 320 320
295 295 294 295 296 295 294 291 291 293 295 287 290 297 297 297 297 297 297 298 299 304 302 303 306 309 311 312 311 313 312 312 310 307 312 316 318 317 317 316 319 322 326 320
295 295 294 295 295 294 294 289 292 288 294 288 292 295 296 296 297 298 298 299 299 300 301 301 304 307 309 310 310 311 308 310 309 308 308 310 310 312 313 316 316 314 319 318
294 294 294 294 295 294 294 291 289 290 291 292 293 296 296 296 297 297 298 299 299 299 303 306 306 307 310 310 310 309 306 309 310 309 309 310 310 310 311 313 313 315 312 314
294 294 294 294 295 294 293 290 293 294 290 293 294 296 296 297 298 300 300 300 299 301 304 305 308 306 307 310 308 309 308 309 309 310 308 308 310 308 306 307 309 312 313 315
295 295 295 294 294 294 294 293 293 294 293 294 292 294 296 298 299 299 300 302 303 304 305 303 305 306 306 307 308 308 308 306 306 305 305 307 306 309 313 312 313 314 317 315
294 295 295 295 295 295 293 292 292 293 292 294 295 296 297 298 299 299 304 302 304 304 303 304 305 304 304 305 306 306 307 307 307 307 305 303 304 313 314 313 313 311 316 317
295 294 294 295 295 295 294 293 293 293 292 295 294 296 297 297 298 299 302 301 301 301 304 303 304 303 303 303 304 307 305 306 306 304 306 304 305 314 311 311 312 313 313 315
294 294 295 295 295 296 295 294 293 293 291 292 294 295 295 296 299 298 300 298 299 300 300 302 304 304 305 304 303 305 305 304 306 306 307 303 302 314 312 313 314 309 314 317
294 295 295 295 295 295 296 294 293 293 292 292 293 294 295 297 297 298 298 296 300 298 299 301 302 304 304 305 305 307 307 306 307 307 308 306 308 312 313 316 314 304 306 303
294 294 294 294 295 295 296 294 293 293 292 290 293 295 294 294 294 295 295 296 296 301 303 304 303 303 304 305 304 306 307 308 307 308 309 308 309 313 314 311 304 301 300 298
294 294 294 295 295 296 297 294 294 293 292 290 293 294 295 295 294 294 295 297 299 300 303 302 302 303 302 304 306 304 309 308 308 307 308 305 302 304 302 301 300 302 299 298
293 294 296 296 295 296 297 295 294 293 295 294 291 292 293 293 294 295 296 297 299 299 299 302 304 306 306 308 303 303 298 302 304 309 304 301 300 298 296 295 295 295 295 295
294 296 297 297 296 296 297 295 294 294 292 293 290 292 292 294 294 294 295 298 299 299 299 301 302 302 305 306 301 297 297 298 299 306 304 300 296 295 294 293 292 290 290 290
296 297 298 298 296 297 297 296 295 294 293 289 291 293 294 296 295 294 295 296 297 297 296 302 299 303 305 302 300 294 295 296 298 301 300 298 295 292 291 290 288 288 288 287
297 298 299 299 298 297 297 294 295 294 294 294 291 291 293 296 295 294 294 295 296 297 301 303 300 303 304 303 298 293 293 293 295 298 295 293 291 289 288 287 285 285 285 284
298 299 299 299 298 298 297 297 297 295 294 296 294 293 293 299 297 295 295 297 298 297 301 300 301 301 300 297 295 292 291 293 293 292 296 293 291 289 287 285 284 283 281 281
298 298 299 299 298 297 297 297 297 294 294 296 295 293 294 299 296 298 295 297 298 300 301 300 303 298 296 294 291 290 289 291 291 290 290 289 288 287 286 285 284 282 281 280
298 299 299 299 297 297 297 298 295 295 295 295 296 296 294 298 300 300 299 298 297 297 301 302 299 294 290 290 289 287 287 286 287 288 287 285 285 284 283 283 283 282 281 279
299 299 295 293 295 298 297 295 294 295 295 298 292 292 296 299 299 298 297 299 300 305 303 295 293 288 288 286 285 284 284 284 284 288 286 286 284 283 282 281 281 280 279 277
297 294 295 296 297 296 295 296 297 296 297 295 296 294 295 299 301 300 299 301 302 305 304 302 294 289 288 285 284 282 282 282 282 282 282 281 281 281 280 279 278 277 275 274
296 297 297 296 296 296 298 296 297 297 295 295 296 297 297 299 297 300 301 302 302 304 299 296 288 287 285 284 283 281 280 280 280 280 280 279 279 278 277 276 275 273 272 272
297 297 295 298 297 299 294 298 298 296 291 295 299 300 299 298 299 300 302 303 302 296 290 289 284 285 284 282 281 280 280 279 278 277 276 275 274 274 274 272 272 273 272 272
296 296 295 296 296 291 292 294 290 290 298 298 299 300 300 298 300 300 295 295 299 296 292 289 283 282 281 280 280 277 274 273 273 271 272 272 272 271 273 273 273 273 272 272
293 292 294 287 287 288 293 294 295 295 295 298 298 297 299 294 294 294 296 298 297 290 288 278 279 279 278 275 274 272 270 270 270 272 272 272 273 273 272 273 273 272 272 271
290 286 287 288 289 292 293 294 295 294 295 295 294 294 292 293 294 296 294 293 291 282 273 274 277 275 275 274 274 273 273 273 272 273 273 273 273 273 273 273 273 273 273 272
287 284 283 281 282 289 290 291 291 291 296 295 291 291 293 292 289 289 285 284 278 274 276 274 274 275 273 272 272 273 273 273 273 273 274 274 274 273 273 272 272 272 272 272

GFSNW_925_thetae_087.txt.gz
Theta_e
295 295 295 295 295 293 293 291 291 295 294 294 295 296 296 296 296 296 296 297 298 298 299 304 304 305 306 304 309 313 313 313 314 313 311 314 316 316 316 318 321 321 321 321
295 294 294 294 295 294 293 291 292 293 294 291 293 294 295 295 296 296 297 297 297 297 299 300 300 305 306 303 307 314 312 312 309 316 316 316 316 317 313 313 313 318 321 320
295 294 294 294 295 294 293 290 290 290 294 290 294 295 295 296 296 297 297 297 298 298 299 299 301 302 305 303 310 310 310 311 308 307 309 311 312 311 310 314 314 312 313 312
294 294 294 294 294 294 293 290 290 291 291 293 295 293 294 296 297 297 297 298 298 298 299 303 303 305 306 306 309 310 309 311 311 310 309 310 310 310 310 311 310 310 308 309
294 294 294 294 295 294 292 292 292 294 293 293 291 294 295 296 297 298 298 300 298 299 300 302 305 307 307 308 309 310 309 310 310 309 308 307 307 307 307 307 308 309 310 313
294 295 295 294 295 294 294 293 293 293 292 294 293 293 295 297 298 298 298 298 301 301 302 304 305 305 306 307 308 309 309 309 310 308 306 307 305 307 308 309 311 314 313 313
294 294 295 295 295 294 292 292 292 293 292 294 294 295 295 296 297 297 298 301 302 303 303 304 305 305 306 306 306 307 308 307 308 308 306 303 305 305 311 314 312 311 312 313
294 294 294 294 295 295 294 292 292 293 293 294 293 293 295 296 296 298 300 298 299 299 303 305 304 304 304 304 304 307 306 308 308 308 307 305 307 313 311 313 311 307 307 308
293 293 293 294 295 295 295 294 293 293 292 292 294 295 294 295 297 297 298 297 298 299 302 304 304 304 305 304 305 306 306 307 308 307 306 305 303 310 311 313 314 304 302 302
293 293 294 294 294 295 296 295 294 292 293 292 293 294 295 296 296 296 296 296 299 299 303 304 304 304 304 304 304 307 306 305 306 306 306 306 307 308 311 314 311 303 300 298
293 293 294 294 294 294 296 295 294 293 292 291 293 294 295 294 294 295 296 297 298 301 303 304 304 304 305 306 306 306 307 308 308 306 308 307 303 308 310 308 301 300 297 296
292 293 294 294 295 295 296 295 294 292 293 293 292 293 293 293 294 295 296 297 299 301 300 302 304 303 304 304 307 304 309 305 304 309 308 301 299 299 297 298 298 298 296 294
293 294 293 294 295 295 296 295 294 292 294 294 292 293 293 292 293 294 296 297 299 300 299 300 304 304 306 307 302 301 297 297 302 302 300 297 296 295 294 293 292 292 292 291
293 292 294 295 296 295 296 296 294 293 291 292 292 292 292 293 293 293 294 295 298 299 299 299 303 301 304 303 299 297 295 296 297 302 300 297 293 292 291 291 290 289 288 288
292 294 295 296 297 296 297 296 295 294 293 293 293 292 293 295 294 293 293 294 296 297 298 300 302 303 305 301 297 294 294 295 297 297 296 293 291 290 288 287 287 287 286 285
294 295 296 298 298 297 296 294 295 295 293 295 293 292 293 294 294 293 294 294 296 298 299 301 302 302 304 302 297 293 292 294 293 296 292 290 288 287 287 285 284 283 283 282
295 296 298 298 298 297 296 297 296 295 294 295 294 295 293 296 295 294 295 295 298 299 300 302 302 300 299 297 296 291 290 293 291 292 292 290 289 287 286 284 282 281 280 280
295 297 299 299 299 297 296 297 296 294 294 294 296 295 295 297 298 299 296 296 298 301 301 300 303 297 296 294 291 289 288 290 290 288 288 288 286 285 284 283 282 282 281 280
296 298 298 298 296 296 296 296 295 295 295 296 295 295 297 297 300 300 299 299 300 298 302 302 300 294 292 291 289 287 286 286 287 287 286 285 284 283 283 283 282 281 280 279
297 298 296 294 295 297 295 294 294 295 295 297 295 293 296 298 300 299 299 300 300 301 302 295 295 289 287 286 285 284 284 284 286 288 286 285 283 282 282 281 280 279 278 277
297 295 296 296 296 296 294 296 297 297 297 296 297 294 296 299 301 300 297 302 302 304 304 303 296 291 288 285 283 282 282 282 282 282 282 282 282 281 280 279 277 276 275 274
295 296 296 297 296 297 298 297 297 297 297 295 296 296 297 299 299 300 301 303 302 304 299 299 297 288 286 284 282 281 281 280 280 280 280 279 279 278 277 276 274 273 272 271
297 295 295 297 297 299 296 295 298 296 294 292 297 299 298 299 299 301 303 304 304 298 298 298 288 286 284 282 281 280 279 278 277 277 276 275 274 274 273 272 271 271 271 270
297 298 297 296 296 295 292 294 295 293 293 295 298 300 300 298 300 301 301 298 299 300 299 297 287 284 282 281 280 278 275 274 273 273 272 272 271 270 272 272 272 272 271 270
295 294 295 291 288 288 292 291 295 294 295 298 299 299 299 297 298 296 297 300 300 299 298 286 283 281 279 277 275 274 272 271 271 271 271 271 272 271 270 271 271 272 271 271
290 288 286 286 290 294 294 293 295 294 296 296 296 297 299 298 295 298 299 298 297 292 282 278 278 276 276 275 275 273 272 272 271 272 272 272 273 272 272 272 272 272 272 271
287 282 277 280 283 289 290 292 292 291 297 299 294 295 297 293 292 293 289 292 285 278 278 278 277 277 275 273 273 273 273 273 273 273 274 273 273 273 273 273 272 272 272 272

GFSNW_925_thetae_090.txt.gz
Theta_e
295 295 295 294 293 292 294 296 298 296 295 298 297 297 296 296 296 297 297 298 298 299 300 302 303 305 304 305 304 306 313 314 317 316 316 315 316 316 318 320 323 320 321 320
295 294 294 293 294 293 295 297 296 295 296 297 297 296 296 296 297 297 297 298 298 298 298 299 301 302 304 303 304 310 314 314 316 316 315 315 316 318 316 315 315 319 320 319
295 294 294 293 293 293 295 297 298 296 297 296 296 296 296 297 296 297 298 298 299 299 299 299 300 300 302 302 303 305 311 313 311 312 314 315 316 314 313 315 317 314 315 313
295 295 294 294 293 294 295 296 297 296 297 297 296 296 296 297 298 298 298 300 300 300 301 299 301 304 306 304 306 310 312 313 311 310 310 309 309 309 310 312 311 311 309 310
295 294 294 294 294 294 295 297 296 295 295 295 296 296 296 297 298 298 299 300 300 299 302 301 301 304 305 310 308 308 309 311 310 308 308 308 308 307 308 308 308 310 311 313
292 293 294 294 294 294 296 295 294 295 295 295 296 297 296 296 298 297 298 300 301 301 301 302 302 303 305 306 308 308 309 310 307 308 306 306 306 307 308 308 309 311 313 313
295 295 295 295 295 294 295 295 295 295 296 295 296 295 296 296 297 298 298 300 302 302 302 304 305 307 308 307 308 308 309 308 309 308 307 307 311 309 311 310 312 310 310 310
294 294 294 294 295 295 295 294 295 296 296 296 295 296 296 295 297 299 299 298 298 298 302 308 306 306 306 306 307 308 308 308 309 309 307 305 311 311 310 312 312 305 304 304
294 294 293 294 295 295 295 294 294 295 297 296 295 296 295 297 297 297 297 298 298 299 306 306 305 305 305 305 309 308 308 307 309 307 307 305 310 309 310 312 316 302 301 299
293 293 293 293 294 295 296 295 294 294 297 297 296 297 297 297 296 296 298 298 301 303 306 305 306 305 305 305 304 307 308 307 308 307 308 308 306 307 309 316 310 301 299 296
293 293 293 293 294 294 296 296 295 294 295 297 296 296 297 296 296 298 298 301 301 303 305 306 305 306 306 307 308 308 309 310 310 307 309 311 300 307 309 303 301 300 297 295
292 292 292 293 294 294 295 296 294 293 294 297 295 295 295 295 295 296 298 300 300 301 302 303 305 305 307 306 310 306 310 304 307 305 304 299 297 297 296 296 296 296 295 293
291 292 293 294 295 295 295 296 294 292 294 295 297 297 295 294 295 295 297 298 300 300 300 301 303 305 306 310 307 305 301 299 305 305 299 297 296 295 293 293 292 292 291 291
292 293 293 293 295 295 296 296 294 294 295 297 298 294 296 294 295 295 295 296 296 297 298 300 303 305 305 305 302 302 298 298 299 301 299 298 293 292 291 291 290 288 288 288
293 293 292 293 295 296 296 296 295 295 296 298 298 297 295 296 296 296 296 296 297 298 300 301 304 303 305 301 300 298 295 296 300 301 296 295 292 290 289 288 287 287 287 285
292 292 294 295 295 296 296 295 295 295 294 298 299 297 297 297 297 297 297 297 298 299 300 302 303 303 304 306 301 294 294 294 294 296 292 291 289 288 287 286 285 284 284 283
292 293 295 296 298 297 297 298 298 296 295 297 297 299 298 298 298 298 299 298 300 300 301 302 303 302 302 301 300 293 293 292 293 293 292 291 289 288 286 285 283 283 282 282
293 295 296 298 298 297 296 297 296 295 295 295 297 299 299 299 301 302 300 300 300 301 301 302 303 300 299 296 292 290 290 291 290 290 290 289 288 286 286 285 284 284 283 282
294 295 298 297 296 295 297 295 294 294 297 298 296 299 301 299 300 302 301 301 302 302 302 302 301 300 298 293 291 289 288 289 289 288 288 287 287 286 286 285 285 284 283 281
295 297 296 295 295 296 294 295 296 296 297 297 298 298 301 301 300 301 301 301 302 301 303 301 302 295 289 288 287 287 287 287 289 289 288 287 286 285 284 283 282 282 280 279
295 294 296 296 296 295 295 298 298 297 298 298 298 299 301 301 302 302 300 303 302 303 305 304 303 298 290 287 286 285 285 285 286 286 285 285 285 284 282 281 280 279 278 276
295 297 296 296 297 299 300 299 298 298 299 299 298 297 299 300 299 302 300 301 303 306 302 304 305 293 288 286 285 284 284 283 283 283 283 282 282 281 280 279 277 275 273 272
296 297 296 299 299 301 300 299 299 300 299 299 298 298 300 300 300 302 304 306 306 301 305 305 297 289 287 285 284 283 282 281 281 280 280 279 278 277 276 274 273 273 271 270
297 300 300 299 300 300 301 301 303 301 300 299 298 300 301 301 300 304 305 303 302 303 304 305 293 288 286 284 283 282 280 279 278 277 276 275 274 273 272 272 272 272 271 270
300 299 301 298 299 296 297 296 297 296 299 301 301 301 301 302 303 301 301 302 302 302 305 296 290 286 284 282 280 278 276 276 276 275 274 273 273 273 272 271 272 271 270 270
293 293 296 293 297 297 297 297 296 297 299 301 302 301 302 303 302 301 302 303 304 302 293 289 286 282 281 280 278 277 276 276 276 275 275 274 274 274 273 272 271 271 271 270
291 292 289 293 297 300 296 296 296 294 300 304 302 302 303 297 301 301 298 302 296 288 287 286 284 281 279 277 276 275 276 276 276 275 275 274 273 273 275 276 274 274 272 272

GFSNW_925_thetae_093.txt.gz
Theta_e
296 296 296 294 293 292 296 299 303 298 298 302 300 300 297 297 298 298 298 299 299 299 300 300 300 302 304 306 304 307 308 317 318 313 313 312 313 315 317 319 320 318 322 324
296 296 294 293 293 294 298 300 300 297 300 301 299 298 297 297 298 298 298 298 299 299 300 300 300 301 303 303 305 308 308 318 321 319 318 317 316 315 316 318 318 321 320 319
295 295 293 292 292 293 297 301 301 299 299 299 299 298 298 298 299 299 299 299 300 300 301 302 301 301 301 303 304 306 306 310 319 318 317 318 318 317 317 317 319 316 317 315
296 295 294 293 291 293 296 301 300 298 300 300 299 298 298 299 299 300 299 300 301 302 303 302 302 303 306 305 306 307 308 317 314 315 314 314 315 315 314 315 314 312 312 311
295 295 294 294 293 294 298 301 300 298 299 298 298 299 298 298 299 299 300 300 301 302 302 301 302 302 304 308 309 308 310 314 311 310 309 309 309 309 309 310 310 309 311 312
295 293 294 294 293 295 297 297 297 299 296 298 299 299 298 298 300 299 299 301 302 303 304 304 304 305 305 306 309 310 311 309 310 309 307 306 307 307 308 308 311 313 315 313
294 294 295 294 293 294 297 297 297 298 298 298 298 298 298 298 298 300 300 301 301 303 302 303 305 305 306 307 308 308 312 309 310 309 308 312 311 310 310 312 312 311 310 309
294 295 295 294 293 294 297 296 297 297 299 298 298 298 298 299 299 301 302 300 300 300 301 304 308 308 308 309 308 307 308 310 308 310 309 308 311 309 310 311 312 306 306 305
293 294 294 294 295 294 297 297 296 298 299 300 298 299 299 299 299 299 300 301 302 301 305 309 309 307 306 306 307 308 308 308 311 309 307 310 311 309 309 311 311 302 302 300
293 294 293 294 295 295 297 297 296 296 299 299 299 300 299 299 299 301 301 302 303 304 308 308 308 306 306 307 307 307 309 309 311 309 310 313 304 307 307 317 307 300 298 296
293 293 293 293 294 295 297 297 296 297 299 299 299 299 299 299 299 301 301 304 304 304 306 306 307 307 306 309 309 309 310 312 312 311 311 314 300 306 307 301 300 300 296 295
293 293 293 293 293 294 295 297 296 295 295 299 297 297 298 298 298 299 300 301 303 304 304 304 306 308 309 308 313 307 310 305 307 305 304 300 297 298 296 297 297 297 295 294
292 292 292 293 293 294 295 297 295 294 296 297 299 300 297 296 297 297 300 302 301 301 300 301 305 307 308 310 308 309 304 302 307 304 300 297 296 295 294 293 292 292 292 291
291 291 292 293 294 295 295 297 296 296 297 299 300 296 298 298 297 297 297 299 299 300 301 302 305 307 306 307 305 303 299 301 302 301 300 297 293 292 292 291 290 289 289 289
292 292 293 293 293 295 296 297 297 296 297 299 300 299 298 298 299 299 298 299 300 301 302 303 305 305 306 305 304 300 297 297 301 301 298 296 292 290 290 289 288 289 288 287
292 293 293 293 294 296 297 296 298 296 296 298 300 300 300 299 300 300 299 299 301 300 301 302 303 304 305 307 303 295 295 295 297 296 293 292 290 289 288 287 286 286 286 285
292 292 292 294 295 296 297 299 298 297 296 299 299 301 300 300 301 301 301 300 301 301 302 303 304 304 303 304 304 295 294 294 295 295 294 293 290 289 287 286 286 285 285 285
292 292 294 295 296 296 296 298 297 296 297 298 298 301 301 300 301 302 301 301 300 301 303 303 304 303 301 299 294 293 293 292 292 292 291 290 289 288 288 287 286 286 285 284
292 294 295 296 297 296 298 296 296 297 298 300 298 301 303 301 301 302 303 302 303 303 303 303 303 304 300 295 293 292 291 292 291 291 291 291 290 289 288 288 287 286 285 283
293 295 295 295 295 297 295 296 297 297 297 299 300 301 303 302 302 303 302 302 303 303 304 304 304 297 292 290 290 289 290 291 291 291 290 290 288 287 286 286 285 284 283 281
294 293 296 296 296 296 298 299 300 298 298 299 298 300 302 302 303 303 302 304 304 304 306 306 305 301 293 290 288 288 289 289 290 289 289 288 287 286 285 284 282 281 280 277
295 295 295 295 296 300 301 300 300 299 300 302 300 299 301 302 302 303 302 302 305 306 304 306 307 295 291 289 288 287 287 287 287 286 286 286 285 284 283 282 279 277 274 273
296 298 297 298 300 303 302 300 300 302 302 302 300 300 301 302 301 302 303 303 306 305 306 307 300 292 290 289 287 286 285 285 284 284 283 283 281 280 278 276 275 274 273 273
297 300 302 301 301 302 303 303 306 305 303 302 300 301 302 302 302 304 304 305 304 306 307 307 296 291 289 287 286 286 284 283 282 281 279 277 276 275 275 274 273 273 273 272
299 301 302 301 302 300 300 300 300 300 302 302 301 302 303 303 304 304 304 304 305 304 307 299 293 289 287 286 285 282 281 279 279 278 277 276 275 275 274 274 274 273 272 272
298 298 299 298 300 300 301 299 300 299 301 302 303 302 304 304 304 303 303 304 305 305 297 293 289 286 285 284 282 280 279 280 279 277 277 276 276 276 276 274 274 273 273 272
296 296 293 299 300 304 302 301 300 298 301 306 303 303 303 303 303 303 303 305 299 294 291 289 287 285 283 281 280 279 279 279 279 278 277 277 276 275 276 277 276 275 275 273

GFSNW_925_thetae_096.txt.gz
Theta_e
296 296 296 294 294 292 295 302 305 300 300 305 302 303 299 297 298 299 299 298 299 299 300 300 301 301 301 304 305 304 306 314 313 318 314 314 311 315 318 319 319 318 324 327
295 295 296 293 292 293 299 303 302 298 302 306 302 300 299 298 299 299 299 300 300 300 299 301 300 301 301 304 304 305 307 310 315 316 316 314 312 312 315 318 318 323 324 326
296 296 295 292 292 293 296 304 304 301 302 299 300 300 299 299 299 300 301 300 300 302 303 302 303 303 303 305 306 305 306 307 308 313 316 314 314 314 317 319 320 319 319 320
296 295 294 293 291 293 297 303 304 301 303 301 300 299 300 300 300 300 299 301 300 301 302 302 301 304 305 304 305 307 308 311 312 313 313 318 319 318 318 318 317 315 313 315
296 296 294 292 291 294 300 302 302 297 300 300 300 301 300 300 300 300 300 302 301 301 303 303 303 303 304 307 308 309 309 315 314 315 316 316 317 315 316 312 312 311 312 313
296 295 293 292 293 296 299 299 298 300 299 300 301 303 299 300 301 300 300 301 301 302 304 303 303 304 305 306 307 311 311 313 313 310 307 309 311 309 309 314 312 312 313 310
295 294 293 293 293 296 298 298 299 301 301 299 299 299 299 300 300 301 301 301 302 302 302 302 303 304 305 306 309 308 311 312 310 309 310 316 312 311 313 311 307 306 306 305
295 295 294 294 293 294 298 298 298 299 302 299 299 299 300 301 301 303 303 302 302 303 303 305 307 310 310 309 307 307 309 312 312 312 315 314 313 309 311 313 307 303 303 300
293 294 295 293 292 294 297 298 297 299 301 302 300 299 301 300 301 303 304 303 304 303 305 308 312 307 309 311 308 308 307 309 312 311 309 314 307 304 307 309 307 301 299 297
293 293 294 294 294 294 297 298 298 298 300 300 300 300 299 300 300 301 303 303 304 305 306 312 310 308 307 311 309 310 312 311 313 311 314 309 301 304 307 313 305 299 297 294
293 293 294 293 295 295 296 298 298 298 299 299 300 300 300 300 300 301 301 305 304 304 306 305 307 309 309 310 308 309 307 311 310 312 313 310 298 302 303 301 299 298 295 293
292 293 293 293 294 294 295 298 297 297 297 299 297 298 298 299 299 300 301 302 303 303 302 303 305 308 309 311 311 306 307 305 307 303 303 298 296 297 295 295 295 294 294 292
293 293 293 293 293 293 295 298 297 295 296 299 300 302 300 298 298 298 301 303 301 301 301 302 304 309 307 309 307 309 304 302 305 304 299 296 295 294 293 292 291 291 291 290
293 292 292 292 292 294 295 296 296 297 298 299 301 298 300 299 299 298 299 299 300 301 302 302 304 308 306 307 306 302 299 301 302 300 298 295 292 292 292 291 290 289 289 289
292 292 291 292 294 294 296 297 297 298 298 299 300 299 300 299 300 300 299 299 300 302 302 304 305 306 305 307 304 298 297 296 300 299 297 294 291 291 290 289 289 289 288 287
292 292 292 294 293 294 297 296 298 298 297 298 299 300 301 300 300 301 300 300 300 301 301 303 304 305 304 306 302 296 295 296 297 295 292 291 290 289 288 288 287 287 287 286
291 293 293 293 293 296 298 299 297 298 297 299 300 301 301 300 300 301 301 300 301 302 301 303 304 304 304 304 302 295 294 295 296 295 293 292 291 289 288 287 286 286 285 285
291 293 292 293 295 296 296 298 297 297 297 299 298 300 302 301 302 303 302 302 302 301 302 304 304 304 302 298 295 294 293 293 294 292 292 291 290 289 289 288 287 286 285 284
292 292 294 295 295 295 297 297 296 297 299 300 299 300 306 302 302 303 303 302 304 303 305 305 304 305 300 296 294 293 293 294 292 293 292 291 290 290 289 288 287 286 285 284
292 295 295 294 294 297 296 296 298 298 299 299 300 301 303 303 303 304 304 304 304 304 305 304 305 297 293 292 292 291 291 292 292 292 291 290 289 288 287 286 285 284 282 280
294 294 295 296 296 297 299 298 300 299 299 299 299 301 303 302 304 304 303 304 304 304 306 306 306 300 293 290 290 290 290 291 291 290 290 289 288 286 285 284 282 280 278 276
294 295 295 295 296 298 301 300 300 300 300 302 301 300 301 303 303 303 303 302 304 305 305 306 307 296 292 290 289 289 289 288 288 288 287 286 286 285 283 281 278 276 274 273
295 296 296 298 300 300 300 300 300 302 303 304 303 301 301 302 302 303 304 302 304 305 307 306 299 294 291 290 288 287 287 286 286 285 284 282 281 280 278 276 275 274 274 273
296 299 301 301 301 301 303 305 307 306 306 303 302 301 302 303 302 302 302 306 304 306 307 306 296 293 291 289 288 287 285 284 283 281 279 278 276 275 275 274 274 273 273 272
297 298 302 301 303 302 300 301 302 303 303 302 302 303 303 304 303 303 304 305 305 305 307 300 294 291 289 287 285 284 282 281 280 278 277 276 276 275 275 275 274 273 273 272
297 299 301 302 302 300 301 301 299 301 303 303 303 303 304 304 304 304 304 305 306 303 297 293 290 288 287 285 283 281 281 280 279 278 277 276 276 276 276 275 274 274 273 273
298 299 297 300 302 302 300 301 301 300 303 305 303 303 302 304 303 304 305 305 300 294 292 290 288 287 284 282 281 281 281 280 280 279 278 277 277 276 276 277 275 275 275 274

GFSNW_925_thetae_099.txt.gz
Theta_e
297 296 296 296 294 292 294 299 302 300 301 303 303 302 299 297 298 299 299 298 299 300 300 300 300 301 300 301 303 303 306 308 308 308 308 312 314 314 316 317 319 319 322 321
296 296 296 294 293 294 298 301 299 298 302 303 301 300 299 298 299 299 299 301 301 300 301 301 302 303 303 304 304 303 305 307 305 307 313 313 315 314 315 318 317 321 323 320
296 295 296 292 293 294 297 301 301 299 300 298 300 300 301 299 300 300 300 299 299 301 302 302 303 303 303 304 304 305 305 307 305 306 309 310 313 314 316 318 319 322 321 317
296 296 294 292 291 294 298 300 302 300 302 299 298 299 300 300 300 300 299 300 301 301 301 301 301 302 302 303 304 305 306 309 308 307 307 309 310 313 318 320 317 320 314 309
297 296 294 292 291 295 299 298 301 295 299 299 297 300 301 300 300 300 300 301 300 300 301 302 304 303 304 305 306 308 307 310 313 315 314 315 317 317 314 312 312 312 311 307
296 295 292 291 293 298 300 299 298 298 299 298 299 301 301 299 299 300 300 300 302 301 302 302 302 302 302 303 304 305 310 311 314 316 314 314 317 313 309 306 305 307 307 302
296 293 293 293 295 297 298 298 298 297 299 297 300 299 299 300 301 295 300 302 302 302 303 303 304 303 303 303 305 306 310 312 313 312 311 315 310 307 306 304 301 301 300 299
294 293 293 293 294 296 298 298 298 297 298 300 300 299 301 301 301 299 301 301 302 301 303 305 307 309 309 309 309 309 309 311 313 313 316 312 307 303 303 309 302 299 298 296
293 293 294 294 293 295 298 298 298 297 295 300 300 299 300 298 297 300 302 300 302 302 304 307 308 309 311 309 309 308 310 310 311 311 313 312 304 299 301 302 300 297 295 294
293 293 294 292 293 294 297 298 297 298 295 298 299 297 297 299 298 298 300 299 302 302 303 308 309 310 309 311 312 308 307 308 308 310 310 306 298 298 300 298 301 296 294 292
294 293 293 293 294 295 296 297 298 297 297 296 299 300 299 298 297 296 298 300 301 299 302 303 305 309 309 310 306 307 305 307 305 306 305 304 295 297 298 299 296 294 292 291
293 292 292 294 295 294 296 298 298 296 295 295 296 296 296 298 298 297 297 303 301 299 299 300 302 307 307 308 307 304 304 306 302 302 300 296 294 293 293 292 292 292 292 289
292 293 293 293 293 293 296 297 297 295 295 294 297 300 300 300 299 298 299 302 299 299 300 299 302 307 304 306 304 303 299 300 300 300 295 294 294 292 291 290 290 290 289 288
292 292 293 293 293 293 294 296 296 296 297 294 300 299 299 299 298 298 299 298 299 299 299 301 303 305 303 304 302 298 297 298 300 298 294 292 291 291 290 290 289 288 288 287
294 292 292 292 292 293 294 296 297 297 298 297 296 297 299 299 299 299 299 299 298 298 297 299 303 303 303 299 299 296 296 295 297 295 294 291 290 289 289 288 288 288 287 286
292 292 292 293 294 294 296 294 297 297 298 296 294 298 300 300 300 300 300 299 298 298 297 298 301 303 299 301 296 295 295 294 296 294 290 288 288 288 288 288 288 287 286 285
292 292 293 293 293 295 297 297 297 298 297 296 295 296 300 300 300 299 299 299 297 298 298 299 302 302 299 295 294 294 295 295 294 292 291 290 290 288 287 286 286 285 284 283
292 293 293 293 294 295 296 297 298 297 296 297 298 296 299 300 299 299 299 299 298 298 299 300 302 301 296 295 294 293 292 293 292 291 290 289 289 288 288 286 285 284 283 282
292 293 293 295 295 295 295 297 296 297 297 297 298 298 301 299 300 300 299 298 294 299 299 301 301 303 295 295 294 294 294 294 293 292 290 290 289 289 287 286 285 284 282 280
292 294 294 294 294 296 297 296 296 296 298 298 296 296 297 301 297 297 298 299 297 300 300 301 300 295 293 293 292 292 292 292 292 291 290 288 287 286 284 283 282 280 278 276
294 294 295 295 296 297 297 296 297 294 297 297 296 296 295 299 297 297 299 296 298 300 302 303 304 296 292 291 290 290 291 291 289 288 287 286 285 284 282 280 278 277 275 274
294 295 295 295 295 296 298 294 295 299 297 297 299 295 297 299 300 296 298 300 297 300 300 302 301 294 290 289 289 287 287 287 287 286 285 284 283 282 280 277 275 274 273 273
294 295 294 297 297 299 298 295 297 294 295 297 295 294 299 295 299 295 300 300 300 301 299 301 297 292 289 288 287 286 286 285 282 281 280 279 278 277 276 274 274 273 273 273
295 296 298 297 297 298 295 295 295 295 295 295 295 295 295 294 295 299 301 299 301 303 298 302 293 291 288 287 286 284 281 279 278 277 276 275 275 275 274 274 273 273 272 272
295 296 299 293 295 298 298 298 298 298 294 294 294 295 295 296 299 299 300 301 301 299 303 296 291 287 285 283 282 280 278 277 276 276 275 275 275 275 274 274 273 273 272 272
294 296 300 300 298 298 298 298 299 297 295 293 295 296 296 297 299 301 299 301 298 299 294 291 287 285 283 281 279 279 279 278 277 276 276 275 275 275 275 274 274 274 273 273
296 297 294 297 299 299 296 297 297 298 294 298 297 298 298 300 301 302 302 298 297 292 290 288 287 283 280 279 280 280 279 278 277 277 276 276 277 276 275 275 274 274 275 275

GFSNW_925_thetae_102.txt.gz
Theta_e
298 297 296 296 296 293 295 299 301 300 299 301 302 302 299 298 298 298 298 298 299 300 299 300 300 300 300 301 302 301 305 304 305 305 304 305 312 314 314 313 314 318 319 318
297 296 296 296 294 294 298 300 298 298 301 299 299 300 299 299 300 300 300 300 300 299 299 301 302 302 303 303 303 302 304 303 305 304 311 311 314 315 315 316 316 320 322 318
296 297 296 295 293 296 299 300 297 297 298 296 299 300 299 300 300 300 299 299 299 301 301 301 300 301 301 303 302 304 305 304 305 306 306 307 309 311 313 316 318 316 312 311
296 296 295 293 293 296 299 295 298 299 299 298 298 298 299 300 299 300 299 299 301 300 300 300 300 302 300 301 303 305 305 309 308 306 306 306 306 313 314 316 315 314 309 307
296 295 293 291 293 297 299 296 297 297 298 296 295 300 300 299 299 299 300 300 300 300 300 300 300 302 301 302 305 307 304 308 309 309 309 308 311 312 308 308 309 309 306 304
296 294 292 291 295 299 298 298 297 297 299 298 298 299 300 299 297 299 300 299 301 302 302 301 301 301 301 302 302 302 304 308 312 315 313 314 310 307 304 303 302 302 304 302
296 293 291 294 298 298 298 297 296 296 297 296 299 302 301 301 299 292 300 300 302 302 302 303 303 302 303 303 303 303 306 309 313 314 313 309 306 303 301 300 299 298 298 299
295 294 293 296 297 297 297 297 296 295 297 299 300 300 300 299 298 297 296 301 300 300 303 305 305 308 308 308 305 308 307 309 312 315 312 309 305 300 299 304 298 296 295 295
294 294 293 295 296 298 297 298 298 296 296 298 299 298 298 297 295 297 299 299 300 301 303 304 306 311 311 310 310 306 307 310 311 313 310 309 301 296 297 300 297 295 293 291
294 294 293 293 295 298 297 297 298 296 292 295 297 297 297 297 296 296 297 297 300 298 299 301 305 310 308 308 310 306 305 307 306 308 307 304 295 296 299 299 297 294 291 289
293 294 292 293 294 295 297 297 297 296 288 293 297 299 297 295 295 294 296 297 298 298 299 301 303 307 308 306 305 306 304 305 303 303 303 303 293 294 298 296 294 292 289 287
293 292 293 294 295 296 297 297 296 296 292 293 296 296 297 296 297 295 296 300 298 296 298 299 301 304 304 305 306 303 302 302 300 299 297 294 292 291 291 292 291 291 288 286
292 292 293 294 294 295 297 297 296 295 291 291 295 299 299 299 298 298 297 299 297 298 298 298 301 307 303 306 300 299 297 298 297 296 294 293 292 290 289 289 289 288 287 286
293 293 293 293 293 293 295 296 296 296 294 292 295 297 298 298 299 298 298 297 297 297 296 298 301 304 302 303 298 295 295 295 297 295 293 291 290 290 289 288 287 287 286 285
292 292 292 292 292 293 294 295 296 297 296 293 294 296 298 298 298 298 298 298 296 295 295 296 302 302 302 299 296 295 295 294 295 294 292 290 290 289 288 288 288 286 285 285
292 291 291 292 293 294 296 290 297 297 297 292 291 294 297 298 299 299 299 297 296 295 296 296 298 302 298 299 296 295 294 291 293 290 289 287 287 287 287 286 286 285 284 283
292 291 293 294 294 296 297 295 297 298 297 294 295 294 297 300 299 297 297 297 295 296 296 297 301 300 296 288 287 294 295 290 289 288 288 288 286 287 286 285 284 283 283 282
291 293 293 293 294 295 296 297 297 297 296 295 292 294 295 299 297 297 296 297 295 295 296 297 300 296 290 288 291 291 291 291 291 290 289 287 287 287 286 284 283 282 281 280
293 293 294 294 294 294 295 297 297 297 297 296 293 292 296 297 297 297 296 295 292 295 296 298 300 300 293 288 290 289 291 292 290 289 289 289 288 287 285 284 283 281 280 278
293 294 293 292 293 296 296 296 293 295 297 297 294 292 294 300 293 294 295 295 295 300 298 298 296 294 293 293 292 293 292 293 293 290 289 288 287 285 284 282 280 279 277 276
293 294 295 296 296 297 296 295 296 293 296 294 293 296 291 296 295 295 296 293 295 299 300 302 301 295 292 292 291 290 291 289 289 289 287 286 284 282 281 279 278 276 275 273
294 295 295 295 295 295 297 295 293 296 296 293 298 292 295 295 297 294 296 296 295 298 300 303 301 292 291 290 289 287 287 286 286 285 284 283 282 280 279 277 275 274 272 272
295 295 295 296 296 297 297 294 295 290 291 294 291 292 297 293 295 292 295 298 293 299 301 303 294 290 289 287 286 284 283 282 282 281 280 279 278 278 276 273 273 273 272 272
295 296 296 295 295 296 291 290 289 291 290 292 290 291 294 290 293 292 298 295 300 302 298 298 291 288 287 286 285 283 280 279 278 277 277 276 275 274 274 274 273 273 273 272
294 296 295 294 292 296 297 297 292 291 288 291 292 292 292 291 297 298 299 300 302 296 295 292 289 287 285 283 281 278 276 275 275 275 274 274 274 274 273 273 273 273 273 273
293 295 298 297 297 297 297 298 298 295 291 289 292 293 291 292 292 300 297 298 295 296 293 288 286 284 281 280 279 278 276 276 275 275 274 274 274 274 274 273 273 273 273 273
294 297 292 296 297 296 296 296 296 294 292 297 293 295 294 296 298 298 295 292 293 291 289 287 286 283 277 277 277 276 276 275 275 275 275 275 275 274 274 274 274 274 274 275

GFSNW_925_thetae_105.txt.gz
Theta_e
299 299 298 295 293 294 297 299 301 299 300 301 301 302 302 298 298 298 299 298 300 299 299 299 299 300 299 299 301 301 302 301 304 302 301 302 303 306 314 315 314 314 316 310
298 298 296 295 294 296 298 298 298 298 300 300 301 301 299 300 300 299 299 300 299 298 299 300 301 301 302 301 301 302 303 302 301 302 309 308 311 311 311 316 316 315 315 310
296 296 296 297 295 296 299 297 297 297 298 296 299 299 299 300 299 299 299 299 299 300 300 300 299 301 299 301 301 303 302 301 302 302 303 305 308 308 309 313 317 312 310 305
297 297 297 296 294 297 299 297 297 298 299 298 298 298 299 300 299 299 298 299 300 300 300 299 299 299 298 299 301 303 305 306 306 304 304 305 308 310 311 312 314 310 306 302
297 296 296 294 295 298 298 299 297 297 297 297 298 299 299 299 299 299 299 299 299 299 300 299 299 299 300 300 301 305 305 303 306 306 306 309 305 303 303 306 307 307 302 298
296 295 295 293 296 298 297 297 296 297 297 296 298 298 300 299 297 299 299 299 299 301 301 301 300 300 301 302 302 303 304 304 308 312 309 306 300 302 301 300 299 301 303 297
295 295 292 296 298 299 297 297 296 295 297 297 299 302 300 299 298 294 299 299 301 301 300 300 301 301 302 302 303 303 304 305 307 313 311 306 304 301 299 298 297 296 297 294
295 293 297 298 297 297 298 297 296 296 297 298 299 301 300 298 297 296 294 299 299 297 300 304 304 304 306 306 305 307 305 306 312 313 308 306 306 298 298 301 297 294 294 294
294 295 296 297 297 297 297 297 298 295 297 298 299 297 297 296 295 297 298 298 297 300 302 304 306 309 308 309 309 305 305 306 311 310 310 308 300 294 295 298 295 293 291 290
293 294 295 297 297 296 297 296 297 295 295 295 297 296 297 296 295 296 296 297 299 297 298 304 305 308 307 305 305 307 306 306 305 307 306 302 293 293 298 299 297 291 289 287
294 293 294 296 296 296 296 296 296 295 291 294 297 298 295 294 294 293 295 295 296 297 299 302 302 303 305 305 303 304 302 303 301 303 303 304 291 293 297 294 292 289 287 285
293 293 294 294 297 296 296 296 295 295 292 293 296 296 295 295 295 294 296 296 297 294 298 300 301 301 300 300 300 300 301 299 298 297 295 292 291 291 291 291 290 288 286 285
293 294 294 295 296 297 296 296 296 295 289 292 295 297 298 297 297 297 296 296 296 297 296 297 300 304 302 304 299 298 296 297 295 294 292 292 290 289 288 288 287 287 286 285
293 294 294 294 296 296 296 296 296 296 291 292 295 296 297 297 299 298 297 296 296 295 295 297 297 303 302 302 296 294 294 295 295 293 291 290 289 288 287 287 287 286 284 284
293 293 293 293 293 294 296 296 296 297 293 292 293 294 297 298 298 297 297 297 294 294 295 296 302 301 302 295 295 292 295 294 292 293 290 290 288 288 287 286 285 285 284 284
293 292 292 292 293 294 295 290 297 297 297 291 291 293 295 297 297 297 298 296 294 293 295 296 296 302 297 297 295 294 290 291 290 291 289 287 287 286 286 285 284 284 283 282
292 292 293 293 295 296 296 294 297 297 296 291 291 294 296 298 297 295 295 295 294 294 295 296 301 300 294 292 292 293 290 287 288 288 287 287 287 286 285 285 284 283 281 279
292 293 293 294 296 296 296 297 297 297 296 294 290 294 298 299 295 296 294 295 294 294 295 295 299 298 289 292 291 293 292 289 288 288 288 287 285 285 284 283 282 281 280 279
293 293 294 294 294 293 295 297 296 296 295 292 289 292 299 295 295 295 295 293 292 293 295 297 300 297 293 288 292 291 290 290 288 287 287 286 286 285 283 282 282 280 279 278
293 293 292 291 293 297 296 295 290 290 292 296 291 291 294 297 291 292 294 293 294 298 298 296 296 294 292 289 288 289 291 288 289 288 288 288 286 284 283 282 281 279 278 277
294 293 294 295 296 296 295 295 295 293 293 293 291 292 291 294 294 294 294 292 294 298 299 301 298 294 292 291 291 291 291 291 290 288 288 287 285 283 281 280 278 276 275 273
293 295 295 295 295 296 296 294 293 296 295 290 292 291 293 294 294 293 294 295 294 297 300 302 299 289 291 290 289 289 287 287 287 286 284 283 282 281 279 277 275 274 273 272
295 295 294 294 296 295 296 292 295 289 290 292 290 291 294 291 293 291 294 292 291 297 299 302 293 290 290 287 286 285 284 284 283 282 281 280 279 278 277 274 273 272 272 271
295 295 295 295 294 296 288 289 288 289 288 290 289 291 293 290 293 287 291 293 298 295 297 297 288 289 287 286 285 284 281 280 279 278 278 277 276 274 274 274 273 273 273 272
294 295 294 294 290 293 295 296 294 290 286 290 292 291 292 290 296 297 296 297 299 293 293 287 286 286 285 284 281 279 277 275 275 275 274 273 273 273 273 273 273 273 273 273
293 293 296 295 296 296 296 297 296 294 291 288 292 293 292 294 290 298 293 295 294 289 285 286 284 284 282 281 280 278 277 276 275 275 274 274 274 274 273 273 273 273 273 273
292 296 290 295 296 296 296 295 296 292 291 291 294 291 293 293 296 298 292 289 290 288 288 287 286 284 278 277 277 277 276 275 275 274 274 274 274 274 273 273 273 273 274 274

GFSNW_925_thetae_108.txt.gz
Theta_e
305 303 301 300 299 295 298 299 297 299 300 301 299 300 302 298 298 299 299 299 299 299 299 299 299 300 298 299 300 300 300 300 303 301 300 301 301 303 305 306 314 312 311 307
303 301 299 297 293 295 299 299 298 298 300 302 301 301 299 300 300 299 299 300 299 298 298 299 300 300 300 300 300 301 302 302 300 301 306 308 308 309 311 309 309 316 307 304
300 299 297 295 294 299 298 297 297 298 299 296 300 300 301 300 299 299 298 298 299 299 300 299 299 301 299 300 299 302 301 300 300 300 300 301 304 306 308 309 310 309 305 304
298 296 295 294 297 299 299 296 296 299 301 296 299 299 300 300 299 299 297 298 300 299 300 299 299 298 296 297 300 301 300 303 302 303 303 303 306 305 303 312 312 310 304 299
297 296 296 297 298 297 298 298 298 297 297 298 299 300 299 299 299 299 298 299 299 298 299 299 298 299 298 298 299 303 306 303 304 303 304 307 303 302 300 300 304 301 299 296
296 296 296 297 296 298 296 296 296 297 296 297 298 298 299 299 297 298 298 298 299 300 300 299 298 299 300 301 303 303 303 304 305 308 305 304 303 301 300 298 297 300 302 296
297 296 296 296 297 299 297 296 295 296 297 297 299 300 299 299 297 293 299 298 299 300 298 298 299 299 299 300 301 302 304 304 305 308 307 306 301 300 297 296 295 295 295 293
296 295 294 296 298 298 297 297 296 295 295 297 300 300 299 298 298 296 294 298 298 297 300 303 303 304 305 305 305 306 303 305 307 312 307 302 303 297 297 300 295 293 293 293
296 298 298 298 298 298 298 297 297 295 298 298 298 298 297 296 295 296 297 297 296 297 299 302 302 305 306 309 308 305 306 305 308 310 308 306 298 294 294 296 295 291 290 290
297 297 297 297 297 297 298 296 296 296 295 296 296 296 296 295 295 295 295 296 297 296 296 299 303 306 305 305 304 305 305 306 306 307 305 300 293 292 295 300 295 290 288 286
296 297 297 296 296 296 297 295 295 296 292 294 297 296 295 294 293 292 294 294 294 296 298 301 301 302 301 304 302 302 301 302 301 302 304 303 291 294 298 293 289 287 285 283
295 296 296 296 295 295 295 295 295 296 293 294 296 295 295 294 293 293 296 294 296 292 297 300 299 301 301 298 298 299 301 297 297 296 295 291 290 291 290 290 288 286 285 283
294 295 296 296 296 295 295 295 296 296 292 294 295 296 297 295 296 297 296 295 295 295 294 298 298 302 303 302 298 298 297 295 294 293 292 290 289 288 287 287 286 285 284 282
294 294 296 296 296 296 296 297 296 295 291 294 296 295 297 296 297 297 296 295 294 293 293 296 299 300 302 298 295 294 293 294 294 292 291 290 288 286 287 286 284 283 283 282
294 293 294 296 296 296 296 296 297 296 293 294 293 294 296 297 298 297 297 295 293 293 294 295 302 301 299 292 294 291 295 294 290 288 288 288 288 284 285 284 284 283 283 282
293 293 293 293 295 295 295 292 296 296 294 292 292 292 295 296 296 296 296 294 292 292 294 295 296 301 295 289 293 293 289 292 290 290 288 285 287 285 285 285 284 283 282 281
292 292 294 295 295 296 294 294 296 296 295 291 291 295 295 296 296 294 294 293 292 293 294 295 300 299 295 286 290 292 288 289 288 287 287 287 285 285 284 284 283 281 280 278
292 294 296 296 296 296 296 297 297 296 295 290 290 296 298 297 295 296 292 294 293 293 294 294 299 297 291 291 289 289 287 287 287 288 288 286 285 284 283 282 281 280 279 278
293 294 295 294 294 293 296 296 296 296 294 291 289 294 297 294 294 293 294 292 291 292 294 296 300 297 291 288 293 291 289 289 289 287 286 285 285 284 283 282 281 280 279 278
294 293 292 289 295 296 295 295 290 289 291 293 291 290 298 296 290 292 293 292 293 299 300 295 295 291 292 288 290 290 290 288 287 287 287 286 284 283 282 282 281 279 278 277
293 292 295 295 296 295 292 290 290 290 292 292 290 291 293 293 293 297 294 294 294 297 298 300 297 294 292 289 289 289 288 288 287 287 287 286 284 283 281 280 279 278 276 275
294 295 295 295 295 295 294 294 293 294 294 290 291 290 293 294 293 294 295 294 292 295 299 300 298 290 292 291 291 291 289 288 288 287 285 284 283 282 280 278 276 275 274 273
295 294 295 294 295 294 289 291 295 289 290 290 289 290 292 291 292 290 293 289 290 296 300 301 293 292 291 290 287 286 286 287 285 284 283 282 280 279 278 275 274 273 272 271
294 294 294 292 292 295 288 289 287 288 286 288 289 290 292 289 292 285 290 289 294 290 295 296 288 291 289 287 286 285 284 282 282 280 279 278 277 276 276 274 273 272 271 271
293 294 295 293 290 292 289 292 294 292 285 289 291 291 293 292 294 293 291 294 293 291 292 285 282 287 286 284 282 281 279 278 277 277 275 274 274 273 272 273 273 273 273 272
292 294 296 294 295 295 296 296 296 293 292 287 291 295 293 294 289 298 291 294 292 289 286 284 279 284 283 282 281 279 278 277 275 275 274 273 273 273 273 273 273 273 273 273
292 293 291 295 296 294 295 295 295 292 294 289 294 290 292 292 295 295 291 288 285 282 286 287 284 281 279 278 278 277 276 275 275 274 273 273 273 273 272 272 273 273 273 273

GFSNW_925_thetae_111.txt.gz
Theta_e
308 309 308 303 302 301 300 299 300 298 299 302 300 301 302 298 298 299 299 299 298 299 299 299 299 299 299 299 300 300 301 303 303 301 301 303 301 302 305 306 308 309 311 309
308 309 305 301 300 299 299 298 298 297 298 301 301 301 300 299 299 300 300 300 300 298 299 299 300 300 300 300 300 301 303 303 301 302 307 306 305 305 307 310 307 307 310 308
309 306 304 300 299 300 300 298 299 299 300 298 300 301 300 300 299 299 298 299 299 300 299 299 299 300 300 300 300 302 302 302 301 299 298 299 303 304 305 308 310 308 309 301
306 303 300 298 298 298 298 298 299 299 300 299 300 300 301 300 300 299 298 299 300 300 299 300 300 299 299 297 299 301 302 302 302 302 302 302 305 304 303 301 306 310 302 298
303 301 299 298 299 298 299 298 299 298 300 299 300 301 301 300 299 299 298 299 299 299 300 299 299 299 299 300 300 303 303 304 302 301 303 304 302 301 302 299 302 300 298 296
300 299 298 298 298 299 297 295 296 299 300 299 300 300 300 300 299 298 299 300 300 300 300 299 299 299 300 301 302 305 304 304 304 306 304 303 305 301 300 298 298 301 302 296
298 297 298 298 299 299 297 296 296 298 298 299 299 299 299 299 298 298 299 299 301 300 299 299 299 300 300 301 301 302 305 304 305 307 306 309 302 299 297 296 295 296 295 293
297 297 298 298 298 298 297 297 296 296 298 299 300 300 299 299 298 298 298 298 299 298 301 303 304 304 303 303 302 304 302 305 305 310 307 303 302 298 299 299 296 293 294 294
296 297 298 297 298 297 298 296 296 296 299 299 299 298 299 299 298 297 298 296 296 298 301 302 305 306 305 308 309 306 305 304 305 307 308 307 300 294 294 296 299 292 291 291
297 296 297 298 297 298 298 296 297 296 297 296 296 298 298 296 296 297 297 298 299 297 300 303 305 306 305 305 304 305 305 305 307 309 305 300 294 292 295 303 299 290 288 288
297 297 297 297 297 298 298 294 296 297 296 296 297 296 296 295 295 297 296 298 297 298 301 303 303 302 303 304 301 303 302 302 302 304 304 304 291 295 299 293 290 287 286 284
296 296 296 296 296 297 298 295 296 297 295 296 294 294 294 293 293 296 296 296 297 298 300 300 301 302 302 301 303 298 302 298 298 296 296 291 290 292 291 290 288 286 285 283
296 296 295 295 295 295 297 295 296 296 295 295 295 296 295 296 296 296 298 297 296 297 296 300 301 302 303 302 300 299 297 296 294 294 291 290 289 289 288 288 286 285 284 283
296 296 295 295 295 295 297 296 295 296 294 297 297 295 295 296 297 296 296 295 294 295 296 300 302 302 301 299 297 297 295 295 294 292 291 289 288 288 287 286 285 284 283 282
296 296 296 296 296 296 296 295 295 295 296 297 296 293 295 297 296 296 296 295 295 296 298 300 302 301 299 295 295 295 295 294 294 295 291 290 288 287 286 285 284 284 283 282
295 295 296 295 295 295 295 293 295 295 296 296 297 292 295 295 296 296 296 295 294 295 298 298 299 300 299 297 297 293 291 292 291 291 289 288 287 286 285 285 285 283 282 281
293 294 294 295 296 295 295 294 296 295 295 295 296 298 295 296 295 294 295 293 295 296 297 298 302 299 295 293 297 292 290 290 289 288 288 287 287 286 285 284 283 282 280 279
296 296 296 296 296 296 296 296 296 296 293 292 295 297 299 296 297 298 293 297 296 295 296 297 300 297 294 297 290 290 289 288 289 289 288 288 286 285 284 282 281 281 280 278
296 294 294 295 295 294 296 295 295 295 294 294 293 298 298 295 295 295 296 295 299 294 298 299 300 299 299 293 291 289 288 289 289 287 286 286 286 284 283 282 282 281 280 278
294 294 292 292 295 295 295 294 291 291 291 293 294 292 299 297 295 297 298 295 299 301 300 297 300 299 293 292 291 290 289 289 288 288 287 286 285 284 283 283 282 281 279 277
294 294 295 295 295 295 292 291 293 293 294 293 293 294 298 295 298 299 296 298 297 300 300 301 300 299 293 290 291 290 290 288 288 288 287 286 285 284 283 282 280 279 277 276
295 295 295 295 295 293 293 293 293 294 296 293 295 294 295 296 295 299 296 297 296 299 299 302 302 295 291 291 291 290 288 288 288 287 286 285 284 283 281 280 278 277 275 274
294 294 295 294 294 292 290 291 295 294 293 293 293 295 295 295 294 294 296 295 296 296 299 301 297 293 292 291 291 290 288 288 286 286 285 283 281 280 278 276 276 275 273 272
294 293 293 290 293 293 291 292 291 290 290 292 293 294 297 293 295 291 295 293 296 297 297 299 294 292 291 290 289 288 287 285 284 282 281 279 278 276 276 276 274 273 272 271
293 293 295 294 292 293 293 292 295 293 289 292 295 295 296 294 294 295 293 296 297 295 298 294 289 290 288 287 287 285 283 281 281 279 277 275 275 274 272 273 272 272 272 271
292 293 296 294 295 297 297 297 296 293 293 291 295 297 295 295 293 297 293 296 296 297 291 291 284 286 286 285 284 282 280 280 277 276 275 274 274 273 272 271 272 272 272 273
292 293 291 296 295 295 296 296 295 293 294 295 295 292 294 294 295 296 294 296 294 288 291 287 283 284 283 282 280 279 278 276 276 274 274 274 273 272 272 271 272 272 273 273

GFSNW_925_thetae_114.txt.gz
Theta_e
302 302 304 307 305 303 303 300 301 296 300 303 303 306 304 302 300 300 300 301 301 302 301 301 301 301 300 300 302 300 301 303 303 303 303 303 302 303 305 308 310 308 311 312
302 304 305 307 303 304 300 300 299 297 299 305 305 303 302 301 300 300 301 301 301 301 301 302 301 301 301 301 301 301 304 304 304 305 308 307 309 305 304 307 309 310 312 311
302 304 305 306 303 305 301 301 302 299 299 304 305 304 303 301 300 301 301 301 300 301 302 301 300 300 301 302 302 302 304 303 303 305 302 302 304 306 307 308 310 310 312 306
303 304 305 304 303 304 300 303 303 302 304 303 304 303 303 301 301 300 300 300 301 301 301 301 300 300 301 300 301 302 303 303 304 304 303 303 305 306 306 306 305 308 308 303
304 304 306 303 304 303 301 303 303 302 304 303 303 303 302 301 301 300 300 301 301 301 300 300 301 301 302 304 302 302 302 303 305 305 306 306 307 303 305 303 301 302 301 298
304 305 306 302 302 302 301 300 302 304 302 303 304 304 301 302 303 301 301 301 301 301 301 301 301 302 303 303 304 305 307 305 307 310 305 306 307 303 302 301 300 303 307 298
304 306 302 302 301 301 299 301 303 305 303 303 302 300 301 301 302 307 301 302 302 302 302 302 303 303 303 303 302 303 306 306 307 308 308 312 303 300 300 299 298 299 298 296
305 302 301 300 299 300 298 298 302 302 303 301 301 300 301 301 302 302 303 302 302 302 303 304 306 306 304 304 303 304 304 306 309 310 309 305 303 301 301 303 299 296 297 296
301 300 299 298 299 298 298 297 299 302 303 302 301 302 302 302 302 302 302 301 301 302 304 305 309 309 309 310 308 305 306 305 308 308 309 310 304 298 297 299 304 295 295 296
299 298 298 298 298 298 298 296 298 302 303 300 302 302 302 301 301 301 301 301 302 301 306 308 308 308 307 308 308 308 309 309 308 309 312 305 297 296 297 306 303 294 295 295
298 298 298 298 298 298 298 296 297 302 302 300 300 300 300 300 301 302 301 302 301 302 305 307 307 306 306 306 304 305 307 308 309 308 310 308 294 297 302 296 293 292 292 290
298 299 298 298 297 297 298 298 297 300 301 298 296 296 296 297 298 301 301 302 303 304 306 305 304 304 304 305 307 301 306 302 305 301 301 293 293 295 294 293 292 291 290 288
298 297 296 296 296 298 298 297 298 298 300 299 298 299 298 298 298 299 302 301 302 302 302 304 303 304 304 305 304 302 299 297 298 299 294 293 292 292 292 292 291 289 288 286
295 295 295 296 297 297 297 297 296 299 299 300 299 297 298 297 298 299 300 300 300 302 303 304 304 303 303 304 302 302 300 298 297 294 293 292 291 290 290 289 288 287 286 285
295 295 295 296 297 296 296 296 296 297 300 300 299 298 298 298 298 299 299 300 302 302 304 304 303 301 302 301 300 302 298 298 299 303 295 295 292 289 289 288 287 286 286 284
296 295 295 295 296 297 297 302 298 297 298 299 301 298 298 298 299 300 300 300 300 301 303 303 302 302 303 304 304 296 294 294 295 295 293 292 290 289 288 288 287 286 286 284
295 295 295 295 295 295 299 300 298 296 299 301 300 299 299 299 300 300 301 300 300 301 302 303 303 303 301 304 304 295 293 292 292 292 291 289 289 288 288 287 286 285 285 284
296 296 295 295 295 297 297 296 295 296 298 300 300 299 301 299 300 301 300 301 301 300 301 303 303 302 302 303 294 293 292 291 291 291 291 291 290 288 287 287 285 285 284 282
295 295 295 295 296 298 297 295 295 295 299 301 300 300 301 300 301 302 302 301 302 300 302 302 302 302 304 301 294 292 292 292 292 290 291 290 289 288 287 286 286 285 283 281
294 295 297 297 297 295 295 297 299 299 299 300 300 299 300 301 302 302 302 302 302 302 303 302 302 303 297 295 295 293 292 292 291 290 290 289 288 288 287 287 286 284 282 281
296 297 298 297 295 297 298 298 299 298 299 299 299 299 301 300 302 303 302 302 302 301 303 302 303 304 298 295 294 293 292 291 291 291 290 289 289 288 287 286 284 283 281 280
296 297 296 297 297 297 297 297 296 299 299 298 300 301 301 302 301 303 301 301 301 303 301 303 303 301 296 295 294 293 292 290 290 289 289 288 287 286 285 284 282 280 279 276
296 297 297 297 296 298 298 298 299 300 299 299 300 301 302 301 300 301 300 301 302 300 301 302 303 297 294 295 294 292 291 290 289 288 287 286 286 285 283 282 279 276 275 274
297 297 296 297 297 298 298 299 300 296 299 300 302 300 302 300 300 299 300 300 300 302 301 303 302 296 294 293 293 291 291 289 288 287 285 284 281 280 278 277 275 274 272 272
297 297 297 298 296 297 296 296 297 296 298 301 301 300 300 299 299 299 299 299 301 301 303 303 298 294 293 292 292 291 289 287 286 284 282 280 278 277 275 274 274 273 272 272
296 297 298 297 301 300 300 300 299 297 299 300 300 299 299 298 299 299 300 300 301 304 301 297 292 291 292 291 290 289 287 286 285 283 280 278 277 276 274 272 272 272 273 272
296 297 296 298 300 299 299 301 299 297 300 300 300 300 299 298 299 300 299 303 303 299 295 294 291 290 290 289 286 284 283 283 282 280 278 277 275 272 273 273 272 273 273 273

GFSNW_925_thetae_117.txt.gz
Theta_e
299 300 300 302 304 305 303 302 303 299 300 303 304 312 312 309 308 304 305 305 307 306 307 305 305 305 303 303 303 303 303 304 305 303 303 304 304 305 305 308 307 310 310 313
299 300 300 302 304 304 302 299 298 298 300 308 310 310 311 308 306 304 304 304 305 305 305 304 304 304 304 302 303 302 303 303 304 304 305 307 309 307 305 307 310 311 313 313
298 299 299 301 304 304 302 300 301 298 298 302 311 311 310 308 305 305 304 304 304 304 303 304 305 304 303 303 302 302 303 304 306 307 307 306 308 307 307 308 309 309 311 311
298 299 299 301 304 304 304 302 304 303 303 302 308 309 309 308 305 304 304 304 304 303 304 305 305 303 303 303 303 302 302 304 306 304 304 304 305 307 308 310 309 311 311 307
299 299 300 301 303 305 306 303 308 305 309 304 307 309 309 309 305 304 304 303 302 303 304 305 303 303 304 304 302 302 304 304 306 305 306 307 310 309 308 308 307 304 305 302
299 300 300 302 303 304 305 303 307 307 308 306 308 311 309 308 306 303 302 302 304 305 304 303 302 303 303 304 305 303 305 307 307 310 307 307 310 308 306 306 303 305 306 300
299 300 301 302 304 304 302 305 305 309 309 309 308 308 308 306 305 308 302 304 305 304 304 303 303 304 305 305 305 305 309 308 309 310 308 312 305 303 303 304 303 302 300 299
300 301 302 302 304 305 304 304 305 310 309 308 307 307 306 304 303 303 306 303 304 304 304 305 306 306 306 306 305 304 307 308 311 311 311 308 304 302 303 303 302 302 300 297
301 301 302 303 304 304 303 303 304 308 310 308 307 306 304 303 306 305 304 304 304 304 305 306 308 310 308 310 307 305 306 306 308 311 310 312 307 303 302 302 306 299 300 298
301 301 303 304 304 303 301 301 304 305 308 304 304 305 305 305 304 304 305 304 305 304 306 307 310 310 308 311 310 310 309 309 309 309 312 308 302 300 300 308 305 299 299 299
301 302 304 302 301 300 300 300 303 305 307 304 303 304 305 304 304 304 304 304 304 305 306 308 309 309 309 310 308 308 310 311 312 309 313 313 298 300 304 300 298 298 297 295
300 299 299 299 299 299 301 301 301 302 304 304 301 300 301 302 303 304 304 305 305 306 307 308 308 307 307 309 309 305 308 307 309 305 304 296 297 299 298 297 297 296 294 291
298 298 298 299 298 298 300 301 301 301 303 302 302 301 300 301 303 303 304 304 305 306 307 307 307 306 306 309 308 306 302 301 304 301 297 295 295 295 296 296 294 293 292 290
298 297 297 298 299 300 301 301 301 301 302 302 300 300 300 300 301 302 304 305 304 306 306 306 306 306 305 307 307 306 304 301 301 298 295 294 294 294 293 292 291 290 290 289
296 296 297 299 299 299 300 300 301 300 301 301 301 299 299 300 301 302 303 304 306 307 307 305 305 304 304 304 305 306 302 304 303 306 297 298 295 292 291 291 290 289 289 288
297 297 297 298 298 299 299 304 300 299 299 300 301 299 300 300 300 301 302 304 304 305 305 304 304 303 304 305 307 300 298 297 298 298 297 295 292 291 291 291 290 289 289 287
296 296 297 298 299 300 302 302 300 300 300 301 300 300 300 300 300 301 301 302 303 304 304 305 303 304 303 305 306 298 295 295 296 295 293 292 291 291 291 290 289 289 288 287
296 296 297 298 298 298 298 297 298 300 301 302 302 301 301 300 302 302 302 302 302 301 303 304 305 304 304 304 299 295 294 295 295 294 295 293 292 291 290 290 289 289 288 286
296 296 298 299 299 299 297 298 300 301 302 302 301 302 302 302 302 302 302 302 303 301 303 303 303 305 305 305 297 295 294 294 294 294 294 293 292 291 290 290 290 289 287 285
297 299 299 299 298 296 299 301 303 303 302 302 303 302 302 302 303 303 303 302 303 304 303 303 304 305 301 300 298 296 295 296 294 294 293 293 292 291 291 290 290 288 286 284
300 300 300 298 297 300 301 303 302 302 302 301 301 302 304 302 304 304 303 303 302 301 304 303 304 305 301 299 298 296 296 295 294 294 293 293 292 291 290 290 288 286 284 283
298 299 299 299 300 300 301 300 300 301 302 301 302 302 302 304 303 303 303 302 303 304 303 303 304 302 299 298 297 295 295 294 293 293 292 291 291 290 289 288 286 284 283 280
299 299 299 300 299 302 302 301 301 302 301 303 303 304 303 303 303 303 302 303 303 303 303 304 305 301 298 297 296 294 293 292 291 292 291 290 289 288 287 286 283 280 278 277
301 302 299 301 300 299 300 304 303 300 303 305 305 304 303 303 302 303 303 301 302 302 304 304 305 299 297 295 294 294 293 292 291 290 289 288 286 285 284 281 279 278 276 276
300 299 299 300 299 299 298 299 300 302 303 304 303 303 302 302 302 301 301 301 302 302 305 304 299 297 295 295 295 293 291 290 289 287 286 284 283 281 279 278 277 276 275 274
299 299 301 301 300 300 300 300 302 302 303 303 302 301 300 300 301 301 302 302 302 305 301 297 294 295 295 294 293 292 290 289 288 286 284 281 280 279 278 277 276 274 275 274
298 299 298 300 300 300 299 303 302 302 303 303 302 302 300 300 301 302 302 304 302 298 296 295 294 293 294 292 291 290 289 288 287 285 283 281 280 277 276 276 275 275 275 275